[[{"header":{"parameterUnit":"m.s-1","parameterCategory":1,"la1":31.0,"la2":29.5877,"lo1":-88.7671,"lo2":-86.6584,"dy":0.0162,"dx":0.0185,"nx":115,"ny":88,"refTime":"2023-10-18T12:00:00:Z","depth":0,"parameterNumber":2,"parameterNumberName":"U-component_of_WINDS"},"data":[0.0,0.0,0.0,0.0,0.0,0.0,0.0,0.0,0.0,0.0,0.0,0.0,0.0,0.0,0.0,0.0,0.0,0.0,0.0,0.0,0.0,0.0,0.0,0.0,0.0,0.0,0.0,0.0,0.0,0.0,0.0,0.0,0.0,0.0,0.0,0.0,0.0,0.0,0.0,0.0,0.0,0.0,0.0,0.0,0.0,0.0,0.0,0.0,0.0,0.0,0.0,0.0,0.0,0.0,0.0,0.0,0.0,0.0,0.0,0.0,0.0,0.0,0.0,0.0,0.0,0.0,0.0,0.0,0.0,0.0,0.0,0.0,0.0,0.0,0.0,0.0,0.0,0.0,0.0,0.0,0.0,0.0,0.0,0.0,0.0,0.0,0.0,0.0,0.0,0.0,0.0,0.0,0.0,0.0,0.0,0.0,0.0,0.0,0.0,0.0,0.0,0.0,0.0,0.0,0.0,0.0,0.0,0.0,0.0,0.0,0.0,0.0,0.0,0.0,0.0,0.0,0.0,0.0,0.0,0.0,0.0,0.0,0.0,0.0,0.0,0.0,0.0,0.0,0.0,0.0,0.0,0.0,0.0,0.0,0.0,0.0,0.0,0.0,0.0,0.0,0.0,0.0,0.0,0.0,0.0,0.0,0.0,0.0,0.0,0.0,0.0,0.0,0.0,0.0,0.0,0.0,0.0,0.0,0.0,0.0,0.0,0.0,0.0,0.0,0.0,0.0,0.0,0.0,0.0,0.0,0.0,0.0,0.0,0.0,0.0,0.0,0.0,0.0,0.0,0.0,0.0,0.0,0.0,0.0,0.0,0.0,0.0,0.0,0.0,0.0,0.0,0.0,0.0,0.0,0.0,0.0,0.0,0.0,0.0,0.0,0.0,0.0,0.0,0.0,0.0,0.0,0.0,0.0,0.0,0.0,0.0,0.0,0.0,0.0,0.0,0.0,0.0,0.0,0.0,0.0,0.0,0.0,0.0,0.0,0.0,0.0,0.0,0.0,0.0,0.0,0.0,0.0,0.0,0.0,0.0,0.0,0.0,0.0,0.0,0.0,0.0,0.0,0.0,0.0,0.0,0.0,0.0,0.0,0.0,0.0,0.0,0.0,0.0,0.0,0.0,0.0,0.0,0.0,0.0,0.0,0.0,0.0,0.0,0.0,0.0,0.0,0.0,0.0,0.0,0.0,0.0,0.0,0.0,0.0,0.0,0.0,0.0,0.0,0.0,0.0,0.0,0.0,0.0,0.0,0.0,0.0,0.0,0.0,0.0,0.0,0.0,0.0,0.0,0.0,0.0,0.0,0.0,0.0,0.0,0.0,0.0,0.0,0.0,0.0,0.0,0.0,0.0,0.0,0.0,0.0,0.0,0.0,0.0,0.0,0.0,0.0,0.0,0.0,0.0,0.0,0.0,0.0,0.0,0.0,0.0,0.0,0.0,0.0,0.0,0.0,0.0,0.0,0.0,0.0,0.0,0.0,0.0,0.0,0.0,0.0,0.0,0.0,0.0,0.0,0.0,0.0,0.0,0.0,0.0,0.0,0.0,0.0,0.0,0.0,0.0,0.0,0.0,0.0,0.0,0.0,0.0,0.0,0.0,0.0,0.0,0.0,0.0,0.0,0.0,0.0,0.0,0.0,0.0,0.0,0.0,0.0,0.0,0.0,0.0,0.0,0.0,0.0,0.0,0.0,0.0,0.0,0.0,0.0,0.0,0.0,0.0,0.0,0.0,0.0,0.0,0.0,0.0,0.0,0.0,0.0,0.0,0.0,0.0,0.0,0.0,0.0,0.0,0.0,0.0,0.0,0.0,0.0,0.0,0.0,0.0,0.0,0.0,0.0,0.0,0.0,0.0,0.0,0.0,0.0,0.0,0.0,0.0,0.0,0.0,0.0,0.0,0.0,0.0,0.0,0.0,0.0,0.0,0.0,0.0,0.0,0.0,0.0,0.0,0.0,0.0,0.0,0.0,0.0,0.0,0.0,0.0,0.0,0.0,0.0,0.0,0.0,0.0,0.0,0.0,0.0,0.0,0.0,0.0,0.0,0.0,0.0,0.0,0.0,0.0,0.0,0.0,0.0,0.0,0.0,0.0,0.0,0.0,0.0,0.0,0.0,0.0,0.0,0.0,0.0,0.0,0.0,0.0,0.0,0.0,0.0,0.0,0.0,0.0,0.0,0.0,0.0,0.0,0.0,0.0,0.0,0.0,0.0,0.0,0.0,0.0,0.0,0.0,0.0,0.0,0.0,0.0,0.0,0.0,0.0,0.0,0.0,0.0,0.0,0.0,0.0,0.0,0.0,0.0,0.0,0.0,0.0,0.0,0.0,0.0,0.0,0.0,0.0,0.0,0.0,0.0,0.0,0.0,0.0,0.0,0.0,0.0,0.0,0.0,0.0,0.0,0.0,0.0,0.0,0.0,0.0,0.0,0.0,0.0,0.0,0.0,0.0,0.0,0.0,0.0,0.0,0.0,0.0,0.0,0.0,0.0,0.0,0.0,0.0,0.0,0.0,0.0,0.0,0.0,0.0,0.0,0.0,0.0,0.0,0.0,0.0,0.0,0.0,0.0,0.0,0.0,0.0,0.0,0.0,0.0,0.0,0.0,0.0,0.0,0.0,0.0,0.0,0.0,0.0,0.0,0.0,0.0,0.0,0.0,0.0,0.0,0.0,0.0,0.0,0.0,0.0,0.0,0.0,0.0,0.0,0.0,0.0,0.0,0.0,0.0,0.0,0.0,0.0,0.0,0.0,0.0,0.0,0.0,0.0,0.0,0.0,0.0,0.0,0.0,0.0,0.0,0.0,0.0,0.0,0.0,0.0,0.0,0.0,0.0,0.0,0.0,0.0,0.0,0.0,0.0,0.0,0.0,0.0,0.0,0.0,0.0,0.0,0.0,0.0,0.0,0.0,0.0,0.0,0.0,0.0,0.0,0.0,0.0,0.0,0.0,0.0,0.0,0.0,0.0,0.0,0.0,0.0,0.0,0.0,0.0,0.0,0.0,0.0,0.0,0.0,0.0,0.0,0.0,0.0,0.0,0.0,0.0,0.0,0.0,0.0,0.0,0.0,0.0,0.0,0.0,0.0,0.0,0.0,0.0,0.0,0.0,0.0,0.0,0.0,0.0,0.0,0.0,0.0,0.0,0.0,0.0,0.0,0.0,0.0,0.0,0.0,0.0,0.0,0.0,0.0,0.0,0.0,0.0,0.0,0.0,0.0,0.0,0.0,0.0,0.0,0.0,0.0,0.0,0.0,0.0,0.0,0.0,0.0,0.0,0.0,0.0,0.0,0.0,0.0,0.0,0.0,0.0,0.0,0.0,0.0,0.0,0.0,0.0,0.0,0.0,0.0,0.0,0.0,0.0,0.0,0.0,0.0,0.0,0.0,0.0,0.0,0.0,0.0,0.0,0.0,0.0,0.0,0.0,0.0,0.0,0.0,0.0,0.0,0.0,0.0,0.0,0.0,0.0,0.0,0.0,0.0,0.0,0.0,0.0,0.0,0.0,0.0,0.0,0.0,0.0,0.0,0.0,0.0,0.0,0.0,0.0,0.0,0.0,0.0,0.0,0.0,0.0,0.0,0.0,0.0,0.0,0.0,0.0,0.0,0.0,0.0,0.0,0.0,0.0,0.0,0.0,0.0,0.0,0.0,0.0,0.0,0.0,0.0,0.0,0.0,0.0,0.0,0.0,0.0,0.0,0.0,0.0,0.0,0.0,0.0,0.0,0.0,0.0,0.0,0.0,0.0,0.0,0.0,0.0,0.0,0.0,0.0,0.0,0.0,0.0,0.0,0.0,0.0,0.0,0.0,0.0,0.0,0.0,0.0,0.0,0.0,0.0,0.0,0.0,0.0,0.0,0.0,0.0,0.0,0.0,0.0,0.0,0.0,0.0,0.0,0.0,0.0,0.0,0.0,0.0,0.0,0.0,0.0,0.0,0.0,0.0,0.0,0.0,0.0,0.0,0.0,0.0,0.0,0.0,0.0,0.0,0.0,0.0,0.0,0.0,0.0,0.0,0.0,0.0,0.0,0.0,0.0,0.0,0.0,0.0,0.0,0.0,0.0,0.0,0.0,0.0,0.0,0.0,0.0,0.0,0.0,0.0,0.0,0.0,0.0,0.0,0.0,0.0,0.0,0.0,0.0,0.0,0.0,0.0,0.0,0.0,0.0,0.0,0.0,0.0,0.0,0.0,0.0,0.0,0.0,0.0,0.0,0.0,0.0,0.0,0.0,0.0,0.0,0.0,0.0,0.0,0.0,-3.1171,0.0,0.0,0.0,0.0,0.0,0.0,0.0,0.0,0.0,0.0,0.0,0.0,0.0,0.0,0.0,0.0,0.0,0.0,0.0,0.0,0.0,0.0,0.0,0.0,0.0,0.0,0.0,0.0,0.0,0.0,0.0,0.0,0.0,0.0,0.0,0.0,0.0,0.0,0.0,0.0,0.0,0.0,0.0,0.0,0.0,0.0,0.0,0.0,0.0,0.0,0.0,0.0,0.0,0.0,0.0,0.0,0.0,0.0,0.0,0.0,0.0,0.0,0.0,0.0,0.0,0.0,0.0,0.0,0.0,0.0,0.0,0.0,0.0,0.0,0.0,0.0,0.0,0.0,0.0,0.0,0.0,0.0,0.0,0.0,0.0,0.0,0.0,0.0,0.0,0.0,0.0,0.0,0.0,0.0,0.0,0.0,0.0,0.0,0.0,0.0,0.0,0.0,0.0,0.0,0.0,0.0,0.0,0.0,0.0,0.0,-3.7614,-3.5571,-3.7293,-3.6237,-3.1957,0.0,0.0,0.0,0.0,0.0,0.0,0.0,0.0,0.0,0.0,0.0,0.0,0.0,0.0,0.0,0.0,0.0,0.0,0.0,0.0,0.0,0.0,0.0,0.0,0.0,0.0,0.0,0.0,0.0,0.0,0.0,0.0,0.0,0.0,0.0,0.0,0.0,0.0,0.0,0.0,0.0,0.0,0.0,0.0,0.0,0.0,0.0,0.0,0.0,0.0,0.0,0.0,0.0,0.0,0.0,0.0,0.0,0.0,0.0,0.0,0.0,0.0,0.0,0.0,0.0,0.0,0.0,0.0,0.0,0.0,0.0,0.0,0.0,0.0,0.0,0.0,0.0,0.0,0.0,0.0,0.0,0.0,0.0,0.0,0.0,0.0,0.0,0.0,0.0,0.0,0.0,0.0,0.0,0.0,0.0,0.0,0.0,0.0,0.0,0.0,0.0,0.0,0.0,0.0,0.0,0.0,0.0,0.0,0.0,0.0,0.0,0.0,-3.894,-3.7679,-3.3505,0.0,0.0,0.0,0.0,0.0,0.0,0.0,0.0,0.0,0.0,0.0,0.0,0.0,0.0,0.0,0.0,0.0,0.0,0.0,0.0,0.0,0.0,0.0,0.0,0.0,0.0,0.0,0.0,0.0,0.0,0.0,0.0,0.0,0.0,0.0,0.0,0.0,0.0,0.0,0.0,0.0,0.0,0.0,0.0,0.0,0.0,0.0,0.0,0.0,0.0,0.0,0.0,0.0,0.0,0.0,0.0,0.0,0.0,0.0,0.0,0.0,0.0,0.0,0.0,0.0,0.0,0.0,0.0,0.0,0.0,0.0,0.0,0.0,0.0,0.0,0.0,0.0,0.0,0.0,0.0,0.0,0.0,0.0,0.0,0.0,0.0,0.0,0.0,0.0,0.0,0.0,0.0,0.0,0.0,0.0,0.0,0.0,0.0,0.0,0.0,0.0,0.0,0.0,0.0,0.0,0.0,0.0,0.0,0.0,0.0,-3.8433,-4.1041,-4.1227,0.0,-3.6079,0.0,0.0,0.0,0.0,0.0,0.0,0.0,0.0,0.0,0.0,0.0,0.0,0.0,0.0,0.0,0.0,0.0,0.0,0.0,0.0,0.0,0.0,0.0,0.0,0.0,0.0,0.0,0.0,0.0,0.0,0.0,0.0,0.0,0.0,0.0,0.0,0.0,0.0,0.0,0.0,0.0,0.0,0.0,0.0,0.0,0.0,0.0,0.0,0.0,0.0,0.0,0.0,0.0,0.0,0.0,0.0,0.0,0.0,0.0,0.0,0.0,0.0,0.0,0.0,0.0,0.0,0.0,0.0,0.0,0.0,0.0,0.0,0.0,0.0,0.0,0.0,0.0,0.0,0.0,0.0,0.0,0.0,0.0,0.0,0.0,0.0,0.0,0.0,0.0,0.0,0.0,0.0,0.0,0.0,0.0,0.0,0.0,0.0,0.0,0.0,0.0,0.0,0.0,0.0,0.0,0.0,0.0,0.0,0.0,0.0,-3.9863,-4.2563,-4.1701,-3.9298,0.0,0.0,0.0,0.0,0.0,0.0,0.0,0.0,0.0,0.0,0.0,0.0,0.0,0.0,0.0,0.0,0.0,0.0,0.0,0.0,0.0,0.0,0.0,0.0,0.0,0.0,0.0,0.0,0.0,0.0,0.0,0.0,0.0,0.0,0.0,0.0,0.0,0.0,0.0,0.0,0.0,0.0,0.0,0.0,0.0,0.0,0.0,0.0,0.0,0.0,0.0,0.0,0.0,0.0,0.0,0.0,0.0,0.0,0.0,0.0,0.0,0.0,0.0,0.0,0.0,0.0,0.0,0.0,0.0,0.0,0.0,0.0,0.0,0.0,0.0,0.0,0.0,0.0,0.0,0.0,0.0,0.0,0.0,0.0,0.0,0.0,0.0,0.0,0.0,0.0,0.0,0.0,0.0,0.0,0.0,0.0,0.0,0.0,0.0,0.0,0.0,0.0,0.0,0.0,0.0,0.0,0.0,0.0,0.0,0.0,-3.9815,-4.1364,-4.3768,-4.2121,-3.9241,-3.5326,0.0,0.0,0.0,0.0,0.0,0.0,0.0,0.0,0.0,0.0,0.0,0.0,0.0,0.0,0.0,0.0,0.0,0.0,0.0,0.0,0.0,0.0,0.0,0.0,0.0,0.0,0.0,0.0,0.0,0.0,0.0,0.0,0.0,0.0,0.0,0.0,0.0,0.0,0.0,0.0,0.0,0.0,0.0,0.0,0.0,0.0,0.0,0.0,0.0,0.0,0.0,0.0,0.0,0.0,0.0,0.0,0.0,0.0,0.0,0.0,0.0,0.0,0.0,0.0,0.0,0.0,0.0,0.0,0.0,0.0,0.0,0.0,0.0,0.0,0.0,0.0,0.0,0.0,0.0,0.0,0.0,0.0,0.0,0.0,0.0,0.0,0.0,0.0,0.0,0.0,0.0,0.0,0.0,0.0,0.0,0.0,0.0,0.0,0.0,0.0,0.0,0.0,0.0,0.0,0.0,0.0,0.0,0.0,-4.6328,-4.3125,-4.2633,-4.5587,-4.2929,-4.0058,0.0,0.0,0.0,0.0,0.0,0.0,0.0,0.0,0.0,0.0,0.0,0.0,0.0,0.0,0.0,0.0,0.0,0.0,0.0,0.0,0.0,0.0,0.0,0.0,0.0,0.0,0.0,0.0,0.0,0.0,0.0,0.0,0.0,0.0,0.0,0.0,0.0,0.0,0.0,0.0,0.0,0.0,0.0,0.0,0.0,0.0,0.0,0.0,0.0,0.0,0.0,0.0,0.0,0.0,0.0,0.0,0.0,0.0,0.0,0.0,0.0,0.0,0.0,0.0,0.0,0.0,0.0,0.0,0.0,0.0,0.0,0.0,0.0,0.0,0.0,0.0,0.0,0.0,0.0,0.0,0.0,0.0,0.0,0.0,0.0,0.0,0.0,0.0,0.0,0.0,0.0,0.0,0.0,0.0,0.0,0.0,0.0,0.0,0.0,0.0,0.0,0.0,0.0,0.0,0.0,0.0,0.0,0.0,0.0,-4.08,-4.2538,-4.4448,-4.6533,-4.3813,-4.1189,0.0,0.0,0.0,0.0,0.0,0.0,0.0,0.0,0.0,0.0,0.0,0.0,0.0,0.0,0.0,0.0,0.0,0.0,0.0,0.0,0.0,0.0,0.0,0.0,0.0,0.0,0.0,0.0,0.0,0.0,0.0,0.0,0.0,0.0,0.0,0.0,0.0,0.0,0.0,0.0,0.0,0.0,0.0,0.0,0.0,0.0,0.0,0.0,0.0,0.0,0.0,0.0,0.0,0.0,0.0,0.0,0.0,0.0,0.0,0.0,0.0,0.0,0.0,0.0,0.0,0.0,0.0,0.0,0.0,0.0,0.0,0.0,0.0,0.0,0.0,0.0,0.0,0.0,0.0,0.0,0.0,0.0,0.0,0.0,0.0,0.0,0.0,0.0,0.0,0.0,0.0,0.0,0.0,0.0,0.0,0.0,0.0,0.0,0.0,0.0,0.0,0.0,0.0,0.0,0.0,0.0,0.0,0.0,0.0,-3.9765,0.0,-4.65,-4.6687,-4.4247,-4.1255,0.0,0.0,0.0,0.0,0.0,0.0,0.0,0.0,0.0,0.0,0.0,0.0,0.0,0.0,0.0,0.0,0.0,0.0,0.0,0.0,0.0,0.0,0.0,0.0,0.0,0.0,0.0,0.0,0.0,0.0,0.0,0.0,0.0,0.0,0.0,0.0,0.0,0.0,0.0,0.0,0.0,0.0,0.0,0.0,0.0,0.0,0.0,0.0,0.0,0.0,0.0,0.0,0.0,0.0,0.0,0.0,0.0,0.0,0.0,0.0,0.0,0.0,0.0,0.0,0.0,0.0,0.0,0.0,0.0,0.0,0.0,0.0,0.0,0.0,0.0,0.0,0.0,0.0,0.0,0.0,0.0,0.0,0.0,0.0,0.0,0.0,0.0,0.0,0.0,0.0,0.0,0.0,0.0,0.0,0.0,0.0,0.0,0.0,0.0,0.0,0.0,0.0,0.0,0.0,0.0,0.0,0.0,0.0,-3.7998,-4.457,-4.7984,-4.8457,-4.6126,-4.4142,-4.0176,0.0,0.0,0.0,0.0,0.0,0.0,0.0,0.0,0.0,0.0,0.0,0.0,0.0,0.0,0.0,0.0,0.0,0.0,0.0,0.0,0.0,0.0,0.0,0.0,0.0,0.0,0.0,0.0,0.0,0.0,0.0,0.0,0.0,0.0,0.0,0.0,0.0,0.0,0.0,0.0,0.0,0.0,0.0,0.0,0.0,0.0,0.0,0.0,0.0,0.0,0.0,0.0,0.0,0.0,0.0,0.0,0.0,0.0,0.0,0.0,0.0,0.0,0.0,0.0,0.0,0.0,0.0,0.0,0.0,0.0,0.0,0.0,0.0,0.0,0.0,0.0,0.0,0.0,0.0,0.0,0.0,0.0,0.0,0.0,0.0,0.0,0.0,0.0,0.0,0.0,0.0,0.0,0.0,0.0,0.0,0.0,0.0,0.0,0.0,0.0,0.0,0.0,0.0,0.0,0.0,0.0,0.0,0.0,0.0,-4.1363,-4.461,-4.7027,-4.8218,-4.3297,-4.0236,0.0,0.0,0.0,0.0,0.0,0.0,0.0,0.0,0.0,0.0,0.0,0.0,0.0,0.0,0.0,0.0,0.0,0.0,0.0,0.0,0.0,0.0,0.0,0.0,0.0,0.0,0.0,0.0,0.0,0.0,0.0,0.0,0.0,0.0,0.0,0.0,0.0,0.0,0.0,0.0,0.0,0.0,0.0,0.0,0.0,0.0,0.0,0.0,0.0,0.0,0.0,0.0,0.0,0.0,0.0,0.0,0.0,0.0,0.0,0.0,0.0,0.0,0.0,0.0,0.0,0.0,0.0,0.0,0.0,0.0,0.0,0.0,0.0,0.0,0.0,0.0,0.0,0.0,0.0,0.0,0.0,0.0,0.0,0.0,0.0,0.0,0.0,0.0,0.0,0.0,0.0,0.0,0.0,0.0,0.0,0.0,0.0,0.0,0.0,0.0,0.0,0.0,0.0,0.0,0.0,0.0,0.0,0.0,0.0,-4.177,-4.4876,-4.7276,-4.8709,-4.3518,-4.0638,-4.0333,0.0,0.0,0.0,0.0,0.0,0.0,0.0,0.0,0.0,0.0,0.0,0.0,0.0,0.0,0.0,0.0,0.0,0.0,0.0,0.0,0.0,0.0,0.0,0.0,0.0,0.0,0.0,0.0,0.0,0.0,0.0,0.0,0.0,0.0,0.0,0.0,0.0,0.0,0.0,0.0,0.0,0.0,0.0,0.0,0.0,0.0,0.0,0.0,0.0,0.0,0.0,0.0,0.0,0.0,0.0,0.0,0.0,0.0,0.0,0.0,0.0,0.0,0.0,0.0,0.0,0.0,0.0,0.0,0.0,0.0,0.0,0.0,0.0,0.0,0.0,0.0,0.0,0.0,0.0,0.0,0.0,0.0,0.0,0.0,0.0,0.0,0.0,0.0,0.0,0.0,0.0,0.0,0.0,0.0,0.0,0.0,0.0,0.0,0.0,0.0,0.0,0.0,0.0,0.0,0.0,0.0,0.0,0.0,-4.4864,-4.8109,-4.9085,-4.7659,-4.4729,-4.1377,0.0,0.0,0.0,0.0,0.0,0.0,0.0,0.0,0.0,0.0,0.0,0.0,0.0,0.0,0.0,0.0,0.0,0.0,0.0,0.0,0.0,0.0,0.0,0.0,0.0,0.0,0.0,0.0,0.0,0.0,0.0,0.0,0.0,0.0,0.0,0.0,0.0,0.0,0.0,0.0,0.0,0.0,0.0,0.0,0.0,0.0,0.0,0.0,0.0,0.0,0.0,0.0,0.0,0.0,0.0,0.0,0.0,0.0,0.0,0.0,0.0,0.0,0.0,0.0,0.0,0.0,0.0,0.0,0.0,0.0,0.0,0.0,0.0,0.0,0.0,0.0,0.0,0.0,0.0,0.0,0.0,0.0,0.0,0.0,0.0,0.0,0.0,0.0,0.0,0.0,0.0,0.0,0.0,0.0,0.0,0.0,0.0,0.0,0.0,0.0,0.0,0.0,0.0,0.0,0.0,0.0,0.0,0.0,0.0,-4.5894,-4.8454,-5.0128,-5.0688,-4.6395,-4.3034,0.0,0.0,0.0,0.0,0.0,0.0,0.0,0.0,0.0,0.0,0.0,0.0,0.0,0.0,0.0,0.0,0.0,0.0,0.0,0.0,0.0,0.0,0.0,0.0,0.0,0.0,0.0,0.0,0.0,0.0,0.0,0.0,0.0,0.0,0.0,0.0,0.0,0.0,0.0,0.0,0.0,0.0,0.0,0.0,0.0,0.0,0.0,0.0,0.0,0.0,0.0,0.0,0.0,0.0,0.0,0.0,0.0,0.0,0.0,0.0,0.0,0.0,0.0,0.0,0.0,0.0,0.0,0.0,0.0,0.0,0.0,0.0,0.0,0.0,0.0,0.0,0.0,0.0,0.0,0.0,0.0,0.0,0.0,0.0,0.0,0.0,0.0,0.0,0.0,0.0,0.0,0.0,0.0,0.0,0.0,0.0,0.0,0.0,0.0,0.0,0.0,0.0,0.0,0.0,0.0,0.0,0.0,0.0,-4.4179,-4.6711,-4.909,-5.0709,-5.1569,-4.7899,-4.4585,0.0,0.0,0.0,0.0,0.0,0.0,0.0,0.0,0.0,0.0,0.0,0.0,0.0,0.0,0.0,0.0,0.0,0.0,0.0,0.0,0.0,0.0,0.0,0.0,0.0,0.0,0.0,0.0,0.0,0.0,0.0,0.0,0.0,0.0,0.0,0.0,0.0,0.0,0.0,0.0,0.0,0.0,0.0,0.0,0.0,0.0,0.0,0.0,0.0,0.0,0.0,0.0,0.0,0.0,0.0,0.0,0.0,0.0,0.0,0.0,0.0,0.0,0.0,0.0,0.0,0.0,0.0,0.0,0.0,0.0,0.0,0.0,0.0,0.0,0.0,0.0,0.0,0.0,0.0,0.0,0.0,0.0,0.0,0.0,0.0,0.0,0.0,0.0,0.0,0.0,0.0,0.0,0.0,0.0,0.0,0.0,0.0,0.0,0.0,0.0,0.0,0.0,0.0,0.0,0.0,0.0,0.0,0.0,-4.4859,-4.7225,-4.9547,-5.0684,-5.0588,-4.899,-4.5898,0.0,0.0,0.0,0.0,0.0,0.0,0.0,0.0,0.0,0.0,0.0,0.0,0.0,0.0,0.0,0.0,0.0,0.0,0.0,0.0,0.0,0.0,0.0,0.0,0.0,0.0,0.0,0.0,0.0,0.0,0.0,0.0,0.0,0.0,0.0,0.0,0.0,0.0,0.0,0.0,0.0,0.0,0.0,0.0,0.0,0.0,0.0,0.0,0.0,0.0,0.0,0.0,0.0,0.0,0.0,0.0,0.0,0.0,0.0,0.0,0.0,0.0,0.0,0.0,0.0,0.0,0.0,0.0,0.0,0.0,0.0,0.0,0.0,0.0,0.0,0.0,0.0,0.0,0.0,0.0,0.0,0.0,0.0,0.0,0.0,0.0,0.0,0.0,0.0,0.0,0.0,0.0,0.0,0.0,0.0,0.0,0.0,0.0,0.0,0.0,0.0,0.0,0.0,0.0,0.0,0.0,0.0,0.0,-4.4585,-4.6345,-4.8113,-4.899,-4.885,-4.8364,-4.6195,0.0,0.0,0.0,0.0,0.0,0.0,0.0,0.0,0.0,0.0,0.0,0.0,0.0,0.0,0.0,0.0,0.0,0.0,0.0,0.0,0.0,0.0,0.0,0.0,0.0,0.0,0.0,0.0,0.0,0.0,0.0,0.0,0.0,0.0,0.0,0.0,0.0,0.0,0.0,0.0,0.0,0.0,0.0,0.0,0.0,0.0,0.0,0.0,-4.2578,0.0,0.0,0.0,0.0,0.0,0.0,0.0,0.0,0.0,0.0,0.0,0.0,0.0,0.0,0.0,0.0,0.0,0.0,0.0,0.0,0.0,0.0,0.0,0.0,0.0,0.0,0.0,0.0,0.0,0.0,0.0,0.0,0.0,0.0,0.0,0.0,0.0,0.0,0.0,0.0,0.0,0.0,0.0,0.0,0.0,0.0,0.0,0.0,0.0,0.0,0.0,0.0,0.0,0.0,0.0,0.0,0.0,0.0,0.0,-4.4803,-4.5955,-4.7164,-4.7747,-4.7646,-4.7376,-4.5507,0.0,0.0,0.0,0.0,0.0,0.0,0.0,0.0,0.0,0.0,0.0,0.0,0.0,0.0,0.0,0.0,0.0,0.0,0.0,0.0,0.0,0.0,0.0,0.0,0.0,0.0,0.0,0.0,0.0,0.0,0.0,0.0,0.0,0.0,0.0,0.0,0.0,0.0,0.0,0.0,0.0,0.0,0.0,0.0,0.0,0.0,0.0,0.0,0.0,0.0,0.0,0.0,0.0,0.0,0.0,0.0,0.0,0.0,0.0,0.0,0.0,0.0,0.0,0.0,0.0,0.0,0.0,0.0,0.0,0.0,0.0,0.0,0.0,0.0,0.0,0.0,0.0,0.0,0.0,0.0,0.0,0.0,0.0,0.0,0.0,0.0,0.0,0.0,0.0,0.0,0.0,0.0,0.0,0.0,0.0,0.0,0.0,0.0,0.0,0.0,0.0,0.0,0.0,0.0,0.0,0.0,0.0,-4.3314,-4.4791,-4.5583,-4.639,-4.6723,-4.6509,-4.6207,-4.4391,-4.0954,0.0,0.0,0.0,0.0,0.0,0.0,0.0,0.0,0.0,0.0,0.0,0.0,0.0,0.0,0.0,0.0,0.0,0.0,0.0,0.0,0.0,0.0,0.0,0.0,0.0,0.0,0.0,0.0,0.0,0.0,0.0,0.0,0.0,0.0,0.0,0.0,0.0,0.0,-3.9837,-4.3522,0.0,0.0,0.0,0.0,0.0,0.0,0.0,0.0,-4.4961,0.0,0.0,0.0,0.0,0.0,0.0,0.0,0.0,0.0,0.0,0.0,0.0,0.0,0.0,0.0,0.0,0.0,0.0,0.0,0.0,0.0,0.0,0.0,0.0,0.0,0.0,0.0,0.0,0.0,0.0,0.0,0.0,0.0,0.0,0.0,0.0,0.0,0.0,0.0,0.0,0.0,0.0,0.0,0.0,0.0,0.0,0.0,0.0,0.0,0.0,0.0,0.0,0.0,0.0,0.0,0.0,-4.2895,-4.2696,-4.3257,-4.4686,-4.5544,-4.559,-4.4778,-4.4828,-4.3321,-4.0095,0.0,0.0,0.0,0.0,0.0,0.0,0.0,0.0,0.0,0.0,0.0,0.0,0.0,0.0,0.0,0.0,0.0,0.0,0.0,0.0,0.0,0.0,0.0,0.0,0.0,0.0,0.0,0.0,0.0,0.0,0.0,0.0,0.0,0.0,0.0,0.0,0.0,0.0,0.0,-4.6998,-4.8569,0.0,0.0,0.0,0.0,0.0,0.0,0.0,0.0,-4.3651,0.0,0.0,0.0,0.0,0.0,0.0,0.0,0.0,0.0,0.0,0.0,0.0,0.0,0.0,0.0,0.0,0.0,0.0,0.0,0.0,0.0,0.0,0.0,0.0,0.0,0.0,0.0,0.0,0.0,0.0,0.0,0.0,0.0,0.0,0.0,0.0,0.0,0.0,0.0,0.0,0.0,0.0,0.0,0.0,0.0,0.0,0.0,0.0,0.0,0.0,0.0,0.0,0.0,0.0,0.0,-4.09,-4.2131,-4.303,-4.375,-4.4187,-4.416,-4.3662,-4.3034,-4.1553,0.0,0.0,0.0,0.0,0.0,0.0,0.0,0.0,0.0,0.0,0.0,0.0,0.0,0.0,0.0,0.0,0.0,0.0,0.0,0.0,0.0,0.0,0.0,0.0,0.0,0.0,0.0,0.0,0.0,0.0,0.0,0.0,0.0,0.0,0.0,0.0,0.0,0.0,0.0,0.0,-4.7504,-4.8922,-4.9418,0.0,0.0,0.0,0.0,0.0,0.0,-4.5307,-4.4214,0.0,0.0,0.0,0.0,0.0,0.0,0.0,0.0,0.0,0.0,0.0,0.0,0.0,0.0,0.0,0.0,0.0,0.0,0.0,0.0,0.0,0.0,0.0,0.0,0.0,0.0,0.0,0.0,0.0,0.0,0.0,0.0,0.0,0.0,0.0,0.0,0.0,0.0,0.0,0.0,0.0,0.0,0.0,0.0,0.0,0.0,0.0,0.0,0.0,0.0,0.0,0.0,0.0,0.0,0.0,-3.8658,-4.1235,-4.2625,-4.2738,-4.2902,-4.2885,-4.2648,-4.1678,-4.0207,0.0,0.0,0.0,0.0,0.0,0.0,0.0,0.0,0.0,0.0,0.0,0.0,0.0,0.0,0.0,0.0,0.0,0.0,0.0,0.0,0.0,0.0,0.0,0.0,0.0,0.0,0.0,0.0,0.0,0.0,0.0,0.0,0.0,0.0,0.0,0.0,0.0,0.0,0.0,0.0,0.0,-4.9421,-4.9872,-5.0042,0.0,0.0,0.0,0.0,-4.6342,-4.62,0.0,0.0,0.0,0.0,0.0,0.0,0.0,0.0,0.0,0.0,0.0,0.0,0.0,0.0,0.0,0.0,0.0,0.0,0.0,0.0,0.0,0.0,0.0,0.0,0.0,0.0,0.0,0.0,0.0,0.0,0.0,0.0,0.0,0.0,0.0,0.0,0.0,0.0,0.0,0.0,0.0,0.0,0.0,0.0,0.0,0.0,0.0,0.0,0.0,0.0,0.0,0.0,0.0,0.0,0.0,0.0,-3.7703,-3.9517,-4.0807,-4.1514,-4.2249,-4.2176,-4.1204,-4.1666,-4.039,0.0,0.0,0.0,0.0,0.0,0.0,0.0,0.0,0.0,0.0,0.0,0.0,0.0,0.0,0.0,0.0,0.0,0.0,0.0,0.0,0.0,0.0,0.0,0.0,0.0,0.0,0.0,0.0,0.0,0.0,0.0,0.0,0.0,0.0,0.0,0.0,0.0,0.0,0.0,0.0,0.0,-5.1385,-4.7997,-4.8752,-4.9045,0.0,0.0,0.0,-4.781,-4.8766,0.0,0.0,0.0,0.0,0.0,0.0,0.0,0.0,0.0,0.0,0.0,0.0,0.0,0.0,0.0,0.0,0.0,0.0,0.0,0.0,0.0,0.0,0.0,0.0,0.0,0.0,0.0,0.0,0.0,0.0,0.0,0.0,0.0,0.0,0.0,0.0,0.0,0.0,0.0,0.0,0.0,0.0,0.0,0.0,0.0,0.0,0.0,0.0,0.0,0.0,0.0,0.0,0.0,0.0,0.0,-3.431,-3.6384,-3.8212,-3.9317,-3.964,-4.003,-3.9759,-3.8825,-3.851,-3.7428,0.0,0.0,0.0,0.0,0.0,0.0,0.0,0.0,0.0,0.0,0.0,0.0,0.0,0.0,0.0,0.0,0.0,0.0,0.0,0.0,0.0,0.0,0.0,0.0,0.0,0.0,0.0,0.0,0.0,0.0,0.0,0.0,0.0,0.0,0.0,0.0,0.0,0.0,0.0,0.0,0.0,0.0,-4.8712,-4.9517,0.0,0.0,0.0,-4.7517,-4.8196,0.0,0.0,0.0,0.0,0.0,0.0,0.0,0.0,0.0,0.0,0.0,0.0,0.0,0.0,0.0,0.0,0.0,0.0,0.0,0.0,0.0,0.0,0.0,0.0,0.0,0.0,0.0,0.0,0.0,0.0,0.0,0.0,0.0,0.0,0.0,0.0,0.0,0.0,0.0,0.0,0.0,0.0,0.0,0.0,0.0,0.0,0.0,0.0,0.0,0.0,0.0,0.0,0.0,0.0,0.0,0.0,0.0,-3.5489,-3.7143,-3.8075,-3.8263,-3.8093,-3.7656,-3.6998,-3.6215,0.0,0.0,0.0,0.0,0.0,0.0,0.0,0.0,0.0,0.0,0.0,0.0,0.0,0.0,0.0,0.0,0.0,0.0,0.0,0.0,0.0,0.0,0.0,0.0,0.0,0.0,0.0,-2.8001,0.0,0.0,0.0,0.0,0.0,0.0,0.0,0.0,0.0,0.0,0.0,0.0,0.0,0.0,-4.9067,-4.9244,-5.0306,-5.1096,0.0,0.0,-4.8618,-4.8636,-4.8967,-4.8122,0.0,0.0,0.0,0.0,0.0,0.0,0.0,0.0,0.0,0.0,0.0,0.0,0.0,0.0,0.0,0.0,0.0,0.0,0.0,0.0,0.0,0.0,0.0,0.0,0.0,0.0,0.0,0.0,0.0,0.0,0.0,0.0,0.0,0.0,0.0,0.0,0.0,0.0,0.0,0.0,0.0,0.0,0.0,0.0,0.0,0.0,0.0,0.0,0.0,0.0,0.0,0.0,0.0,0.0,0.0,-3.5459,-3.6354,-3.7175,-3.7884,-3.7193,-3.6668,-3.638,-3.6517,-3.5361,0.0,0.0,0.0,0.0,0.0,0.0,0.0,0.0,0.0,0.0,0.0,0.0,0.0,0.0,0.0,0.0,0.0,0.0,0.0,0.0,0.0,0.0,0.0,0.0,0.0,0.0,0.0,0.0,0.0,0.0,0.0,0.0,0.0,0.0,0.0,0.0,0.0,0.0,0.0,0.0,0.0,-4.9263,-4.8489,-5.0417,-5.1924,0.0,0.0,-4.9519,-4.9519,-5.0767,-4.9884,-4.4452,0.0,0.0,0.0,0.0,0.0,0.0,0.0,0.0,0.0,0.0,0.0,0.0,0.0,0.0,0.0,0.0,0.0,0.0,0.0,0.0,0.0,0.0,0.0,0.0,0.0,0.0,0.0,0.0,0.0,0.0,0.0,0.0,0.0,0.0,0.0,0.0,0.0,0.0,0.0,0.0,0.0,0.0,0.0,0.0,0.0,0.0,0.0,0.0,0.0,0.0,0.0,0.0,0.0,-3.2229,-3.3715,-3.4995,-3.5794,-3.6085,-3.5813,-3.5611,-3.5514,-3.5118,-3.4192,0.0,0.0,0.0,0.0,0.0,0.0,0.0,0.0,0.0,0.0,0.0,0.0,0.0,0.0,0.0,0.0,0.0,0.0,0.0,0.0,0.0,0.0,0.0,0.0,0.0,0.0,0.0,0.0,-3.1444,-3.146,-3.1581,0.0,0.0,0.0,0.0,0.0,0.0,0.0,0.0,0.0,0.0,-4.8771,-4.7893,-4.9756,0.0,0.0,-4.9367,-4.9014,-4.9619,-4.9297,-4.8067,-4.5388,-4.4435,0.0,0.0,0.0,0.0,0.0,0.0,0.0,0.0,0.0,0.0,0.0,0.0,0.0,0.0,0.0,0.0,0.0,0.0,0.0,0.0,0.0,0.0,0.0,0.0,0.0,0.0,0.0,0.0,0.0,0.0,0.0,0.0,0.0,0.0,0.0,0.0,0.0,0.0,0.0,0.0,0.0,0.0,0.0,0.0,0.0,0.0,0.0,0.0,0.0,0.0,0.0,0.0,-3.1582,-3.3298,-3.4197,-3.4766,-3.5004,-3.4766,-3.4637,-3.4637,-3.41,-3.3421,0.0,0.0,0.0,0.0,0.0,0.0,0.0,0.0,0.0,0.0,0.0,0.0,0.0,0.0,0.0,0.0,0.0,0.0,0.0,0.0,0.0,0.0,0.0,0.0,0.0,0.0,0.0,0.0,-3.2107,-3.189,-3.1635,0.0,0.0,0.0,0.0,0.0,0.0,0.0,0.0,0.0,0.0,-4.8231,-4.7838,-4.8995,-4.9611,-4.8692,-4.8052,-4.7953,-4.8631,-4.7826,-4.6654,-4.5388,0.0,0.0,0.0,0.0,0.0,0.0,0.0,0.0,0.0,0.0,0.0,0.0,0.0,0.0,0.0,0.0,0.0,0.0,0.0,0.0,0.0,0.0,0.0,0.0,0.0,0.0,0.0,0.0,0.0,0.0,0.0,0.0,0.0,0.0,0.0,0.0,0.0,0.0,0.0,0.0,0.0,0.0,0.0,0.0,0.0,0.0,0.0,0.0,0.0,0.0,0.0,0.0,0.0,0.0,-3.4844,-3.4179,-3.4229,-3.4931,-3.4215,-3.3862,-3.388,-3.3825,-3.3408,-3.2588,0.0,0.0,0.0,0.0,0.0,0.0,0.0,0.0,0.0,0.0,0.0,0.0,0.0,0.0,0.0,0.0,0.0,0.0,0.0,0.0,0.0,0.0,0.0,0.0,0.0,0.0,-3.2317,-3.1647,-3.1244,0.0,0.0,0.0,0.0,0.0,0.0,0.0,0.0,0.0,0.0,-4.6288,-4.7677,-4.8355,-4.8136,-4.7844,-4.7755,-4.6954,-4.6347,-4.6395,-4.6767,-4.6287,0.0,0.0,0.0,0.0,0.0,0.0,0.0,0.0,0.0,0.0,0.0,0.0,0.0,0.0,0.0,0.0,0.0,0.0,0.0,0.0,0.0,0.0,0.0,0.0,0.0,0.0,0.0,-3.6609,-3.5813,0.0,0.0,0.0,0.0,0.0,0.0,0.0,0.0,0.0,0.0,0.0,-3.8377,-3.968,0.0,0.0,0.0,0.0,0.0,0.0,0.0,0.0,0.0,0.0,0.0,0.0,-3.1477,-3.2958,-3.3538,-3.3935,-3.4192,-3.3954,-3.4064,-3.4582,-3.4082,-3.2944,-3.1121,0.0,0.0,0.0,0.0,0.0,0.0,0.0,0.0,0.0,0.0,0.0,0.0,0.0,0.0,0.0,0.0,0.0,0.0,0.0,0.0,0.0,0.0,0.0,0.0,0.0,-3.2409,0.0,0.0,0.0,0.0,0.0,0.0,0.0,0.0,0.0,0.0,0.0,-4.1996,-4.3921,-4.5231,-4.5769,-4.5164,-4.5717,-4.5893,0.0,0.0,0.0,0.0,0.0,0.0,0.0,0.0,0.0,0.0,0.0,0.0,0.0,0.0,-4.7922,-4.4566,-4.2527,-4.1277,-4.0989,0.0,0.0,0.0,0.0,0.0,0.0,0.0,0.0,0.0,0.0,0.0,0.0,0.0,0.0,0.0,0.0,-3.7578,0.0,0.0,0.0,0.0,0.0,0.0,0.0,0.0,-3.9916,-4.0708,-4.0029,-4.1313,-4.1111,0.0,-3.9276,-3.7662,0.0,0.0,0.0,0.0,0.0,0.0,0.0,0.0,-3.1464,-3.1828,-3.2843,-3.3238,-3.2981,-3.2963,-3.322,-3.372,-3.3532,-3.2269,-2.9968,-2.9654,-2.8578,0.0,0.0,0.0,0.0,0.0,0.0,0.0,0.0,0.0,0.0,0.0,0.0,0.0,0.0,0.0,0.0,0.0,0.0,0.0,0.0,0.0,0.0,0.0,-3.236,0.0,0.0,0.0,0.0,0.0,0.0,0.0,0.0,0.0,-4.1071,-4.1443,-4.2145,-4.3745,-4.4343,-4.4278,-4.3433,0.0,0.0,0.0,0.0,0.0,0.0,0.0,-4.3558,-4.3272,-4.3626,-4.4105,-4.4619,-4.7102,-4.9011,-4.8803,0.0,0.0,-4.6212,-4.4316,-4.3028,-4.2777,-4.2258,-4.2085,-4.2931,-4.3124,-4.2844,0.0,0.0,0.0,0.0,0.0,0.0,0.0,0.0,-4.1542,-4.0897,0.0,-3.9766,0.0,0.0,0.0,0.0,0.0,0.0,0.0,0.0,-4.1901,-4.302,-4.2341,-4.3002,-4.258,-4.1205,-4.1754,-4.0469,-3.7459,-3.4714,0.0,0.0,0.0,0.0,0.0,0.0,-3.1833,-3.142,-3.2179,-3.2179,-3.147,-3.1421,-3.1433,-3.147,-3.2173,-3.147,-2.9289,-2.9813,-2.8937,-2.6134,-2.5486,0.0,0.0,0.0,0.0,0.0,0.0,0.0,0.0,0.0,0.0,0.0,0.0,0.0,0.0,0.0,0.0,0.0,0.0,0.0,0.0,-3.1918,0.0,0.0,0.0,0.0,0.0,0.0,0.0,0.0,0.0,0.0,-4.1537,-4.176,-4.2334,-4.3766,0.0,0.0,0.0,0.0,-4.1187,-4.1238,-4.0957,-4.083,-4.082,-4.1843,-4.2396,-4.1681,0.0,0.0,-4.3267,-4.5394,-4.6978,-4.6439,-4.7099,-4.8195,-4.9961,-4.7567,-4.5817,-4.6451,-4.524,-4.4624,-4.5306,-4.519,-4.4735,-4.6683,0.0,0.0,0.0,0.0,-4.3925,-4.4493,-4.5275,-4.4419,-4.3533,-4.2663,-4.1795,0.0,0.0,0.0,0.0,0.0,0.0,-3.9551,-4.0432,-4.137,-4.1974,-4.2286,-4.1956,-4.1535,-4.1077,-4.0159,-3.9258,-3.8282,-3.6007,-3.4179,-3.2793,0.0,0.0,0.0,0.0,-3.0821,-3.0989,-3.1477,-3.1623,-3.1403,-3.1403,-3.1403,-3.1403,-3.1623,-3.0924,-2.9171,-2.9302,-2.8383,-2.6118,-2.5503,0.0,0.0,0.0,0.0,0.0,0.0,0.0,0.0,0.0,0.0,0.0,0.0,0.0,0.0,0.0,0.0,0.0,0.0,0.0,-3.1254,-3.1457,-3.1537,0.0,0.0,0.0,0.0,0.0,0.0,0.0,0.0,0.0,-4.1106,-4.1739,-4.1975,0.0,0.0,-4.1622,-4.1094,-4.0679,-4.0595,-4.1136,0.0,0.0,0.0,-4.0144,-4.0133,-4.0475,-4.2362,-4.395,-4.4474,-4.5739,-4.6626,-4.6444,-4.6563,-4.6724,-4.6647,-4.6705,-4.6365,-4.6009,-4.5066,-4.4412,-4.4605,-4.4662,-4.4201,-4.8178,-4.6066,-4.5105,-4.4963,-4.536,-4.5002,-4.5413,-4.6327,-4.5601,-4.5016,-4.4538,-4.3812,-4.2237,-4.0119,-3.9326,0.0,0.0,0.0,-3.9783,-4.0634,-4.0948,-4.137,-4.1772,-4.102,-4.0451,-4.0102,-3.8954,-3.7996,-3.7202,-3.5718,-3.4326,-3.3049,0.0,0.0,-3.0254,-3.0524,-3.032,-2.9681,-3.0155,-3.0301,-3.0001,-3.0283,-3.0448,-3.0448,-3.0612,-3.0048,-2.8678,-2.8785,-2.7869,-2.5795,-2.5373,-2.4585,0.0,0.0,0.0,0.0,0.0,0.0,0.0,0.0,0.0,0.0,0.0,-2.4967,0.0,0.0,0.0,0.0,-2.9033,-3.0563,-3.1249,-3.1275,0.0,0.0,0.0,0.0,0.0,0.0,0.0,-3.7297,-3.7671,-3.8406,-4.0084,-4.0611,-4.0881,-4.0991,-4.0865,-4.0595,-4.0163,0.0,-4.0265,-4.0679,-4.0111,-3.9605,-3.9561,-3.8918,-3.869,-3.9478,-4.1112,-4.2537,-4.3209,-4.3962,-4.4467,-4.4519,-4.449,-4.4369,-4.4149,-4.445,-4.4737,-4.4607,-4.4201,-4.3855,-4.3816,-4.3737,-4.3149,-4.8714,-4.8628,-4.7553,-4.7043,-4.6907,-4.6078,-4.5708,-4.571,-4.571,-4.571,-4.571,-4.5633,-4.4536,-4.2632,-4.0648,0.0,-3.929,-4.0034,-4.0228,-4.0086,-4.068,-4.0924,-4.0887,-4.0026,-3.9184,-3.8377,-3.7845,-3.6609,-3.4848,-3.4198,-3.3364,-3.2333,-3.2523,-3.1793,-3.0222,-3.0705,-2.9928,-2.778,-2.8436,-2.8484,-2.7853,-2.8583,-2.8994,-2.8959,-2.931,-2.8981,-2.7922,-2.8148,-2.7369,-2.5349,-2.5163,-2.4399,-2.2793,0.0,0.0,0.0,0.0,0.0,0.0,0.0,0.0,0.0,0.0,0.0,0.0,0.0,0.0,0.0,-2.9378,0.0,-3.116,-3.1331,0.0,0.0,0.0,-3.3423,-3.3355,-3.5129,-3.6393,-3.6462,0.0,0.0,-3.8635,0.0,-3.9206,-4.0745,-4.0426,-4.0113,-4.0113,-4.0113,-4.0113,-4.0163,-3.9391,-3.8825,-3.8731,-3.7992,-3.7662,-3.8394,-3.9215,-3.9898,-4.0471,-4.0942,-4.1267,-4.1489,-4.1413,-4.155,-4.2129,-4.1604,-4.1409,-4.2422,-4.2673,-4.2739,-4.2654,-4.2315,-4.1491,-4.8845,-4.8765,-4.776,-4.6867,-4.6151,-4.6523,-4.6642,-4.6586,-4.6577,-4.6586,-4.6547,-4.5902,-4.4626,-4.2913,-4.0902,-4.0294,-4.0786,-4.0714,-4.0985,-4.1419,-4.0165,-3.9556,-3.9486,-3.7919,-3.6725,-3.5866,-3.5119,-3.4218,-3.3159,-3.2015,-3.0902,-2.9885,-2.9495,-2.931,-2.9237,-2.8264,-2.7475,-2.6895,-2.7079,-2.7383,-2.7816,-2.8583,-2.8851,-2.8552,-2.8626,-2.8308,-2.747,-2.7136,-2.6434,-2.5259,-2.4796,-2.4023,-2.2762,-2.2558,0.0,0.0,0.0,0.0,0.0,0.0,0.0,0.0,0.0,-2.6617,-2.5642,0.0,-2.9372,0.0,-2.8684,-2.9726,-3.0602,-3.1116,0.0,0.0,-3.2292,-3.2586,-3.2035,-3.2874,-3.3744,-3.4341,-3.5008,-3.5899,-3.714,-3.6835,-3.7081,-3.8478,-3.9495,-4.0113,-4.0113,-4.0113,-4.0113,-3.9978,-3.9309,-3.8686,-3.7998,-3.691,-3.6183,-3.6412,-3.7443,-3.8406,-3.906,-3.9423,-3.9642,-3.9698,-3.9738,-3.9589,-3.9108,-3.9078,-3.9036,-3.903,-3.9586,-4.0208,-4.02,-3.9478,-3.8594,-4.832,-4.8242,-4.7297,-4.6526,-4.5969,-4.6325,-4.645,-4.6402,-4.6341,-4.6317,-4.6259,-4.5393,-4.4085,-4.2462,-4.1355,-4.0816,-4.0719,-4.0045,-3.9881,-4.0089,-3.8566,-3.766,-3.722,-3.5851,-3.4743,-3.3903,-3.2877,-3.19,-3.0974,-2.9996,-2.8975,-2.7915,-2.7288,-2.7103,-2.7357,-2.6869,-2.6602,-2.6602,-2.6602,-2.6814,-2.7291,-2.84,-2.8887,-2.867,-2.8031,-2.749,-2.7067,-2.6455,-2.5679,-2.4772,-2.4736,-2.4148,-2.2785,-2.2709,-2.2272,0.0,0.0,0.0,0.0,0.0,0.0,0.0,0.0,0.0,0.0,0.0,-2.9081,0.0,-2.9053,-2.9668,-3.0866,-3.1016,-3.0899,-3.0598,-3.1214,-3.149,-3.1058,-3.1886,-3.278,-3.3523,-3.3673,-3.4247,-3.5657,-3.501,-3.5059,-3.671,-3.74,-3.7959,-3.8463,-3.8402,-3.8179,-3.8153,-3.7793,-3.7208,-3.6463,-3.5361,-3.4756,-3.517,-3.5785,-3.6477,-3.7055,-3.7166,-3.7111,-3.7008,-3.6901,-3.6729,-3.6354,-3.6113,-3.5972,-3.5904,-3.5944,-3.6589,-3.7742,-3.7389,-3.6596,-4.7422,-4.7363,-4.6621,-4.6245,-4.611,-4.592,-4.5821,-4.579,-4.5533,-4.5383,-4.5229,-4.4355,-4.3162,-4.1797,-4.1577,-4.0922,-3.99,-3.8845,-3.8101,-3.7611,-3.6572,-3.5607,-3.4738,-3.3907,-3.3018,-3.21,-3.0961,-2.9813,-2.8698,-2.812,-2.7369,-2.6439,-2.565,-2.5301,-2.5421,-2.5988,-2.63,-2.6308,-2.6492,-2.6602,-2.6631,-2.8161,-2.8915,-2.8675,-2.7461,-2.6698,-2.6496,-2.5767,-2.4979,-2.4177,-2.4659,-2.4321,-2.292,-2.283,-2.2552,0.0,-2.1946,0.0,0.0,0.0,0.0,0.0,0.0,0.0,0.0,-2.7016,-2.8084,-2.984,-2.941,-2.955,-3.0823,-3.0436,-2.9837,-2.9247,-2.9708,-3.0101,-3.019,-3.1235,-3.2258,-3.2931,-3.2482,-3.2671,-3.3857,-3.3063,-3.306,-3.4744,-3.4526,-3.4587,-3.5687,-3.5961,-3.6002,-3.5717,-3.5603,-3.5415,-3.4397,-3.3679,-3.3504,-3.4064,-3.4242,-3.4392,-3.4833,-3.4642,-3.427,-3.3994,-3.3691,-3.3486,-3.3734,-3.3214,-3.287,-3.3077,-3.2685,-3.3052,-3.5082,-3.5334,-3.4678,-4.6543,-4.6543,-4.6367,-4.6289,-4.6247,-4.6106,-4.5957,-4.5751,-4.4916,-4.4182,-4.3508,-4.2643,-4.2104,-4.1692,-4.0373,-3.952,-3.9098,-3.8399,-3.7459,-3.6314,-3.541,-3.4461,-3.3431,-3.2355,-3.1091,-2.9721,-2.9423,-2.854,-2.7042,-2.6281,-2.5831,-2.5613,-2.4824,-2.475,-2.5338,0.0,0.0,0.0,-2.5923,-2.6602,-2.6657,-2.8161,-2.8421,-2.7267,-2.6957,0.0,-2.4985,-2.4359,-2.4078,-2.409,-2.3814,0.0,0.0,0.0,0.0,0.0,0.0,0.0,0.0,0.0,0.0,0.0,-2.3611,-2.3936,-2.5557,-2.6267,-2.6774,-2.7153,-2.747,-2.7584,-2.7428,-2.7711,-2.7863,-2.7731,-2.7819,-2.8123,-2.8699,-2.9015,-2.946,-3.0227,-3.0235,-3.0449,-3.1226,-3.0662,-3.0749,-3.2085,-3.1363,-3.0982,-3.1693,-3.4001,-3.5439,-3.5096,-3.4742,-3.4157,-3.2489,-3.2392,-3.2291,-3.2265,-3.2512,-3.2752,-3.2808,-3.2626,-3.216,-3.1583,-3.117,-3.0972,-3.1053,-3.1165,-3.1062,-3.0808,-3.0799,-3.1324,-3.2675,-3.225,-3.1493,-4.6289,0.0,-4.6289,-4.6055,0.0,-4.5504,-4.5189,-4.469,-4.4499,-4.369,-4.2431,-4.1989,-4.1335,-4.0508,-3.9547,-3.8574,-3.7637,-3.6752,-3.5769,-3.4679,-3.3725,-3.2772,-3.1829,-3.0725,-2.9567,-2.8393,-2.7603,-2.6796,-2.5999,-2.5191,-2.4805,-2.4805,-2.4392,-2.441,-2.4768,-2.4392,-2.4199,-2.4199,-2.5383,-2.6007,-2.6043,-2.7031,-2.7212,-2.6478,0.0,0.0,0.0,0.0,0.0,0.0,0.0,0.0,0.0,0.0,0.0,-2.3573,-2.3334,-2.3178,-2.3201,-2.2922,-2.2869,-2.3161,-2.2604,-2.2773,-2.4027,-2.4708,-2.5078,-2.5064,-2.5647,-2.5897,-2.5605,-2.5841,-2.5868,-2.5515,-2.5508,-2.5674,-2.605,-2.6644,-2.7302,-2.7968,-2.8122,-2.8473,-2.9474,-2.8409,-2.8364,-2.9738,-2.8971,-2.8267,-2.8768,-3.0948,-3.2643,-3.2714,-3.2408,-3.1977,-3.1311,-3.066,-3.0544,-3.041,-3.0374,-3.0431,-3.0639,-3.0395,-3.0023,-2.9606,-2.9035,-2.8575,-2.8553,-2.8437,-2.8229,-2.816,-2.8249,-2.8576,-2.9311,-2.9398,-2.9367,-4.6289,-4.6289,-4.6152,-4.5664,-4.498,-4.4731,-4.4046,-4.319,0.0,0.0,0.0,-4.1447,-4.0604,-3.9288,-3.8691,-3.7583,-3.606,-3.5012,-3.3912,-3.2794,-3.189,-3.095,-3.0081,-2.9075,-2.8143,-2.7339,-2.6035,-2.5319,-2.5172,-2.4502,-2.4199,-2.4208,-2.4151,-2.4084,-2.4044,-2.4016,-2.4016,-2.4081,-2.487,-2.5283,-2.5231,-2.5722,-2.5925,-2.5721,-2.4606,-2.4191,-2.459,-2.4202,-2.3967,-2.3916,-2.4289,-2.421,-2.3501,-2.343,-2.3342,-2.3116,-2.2754,-2.2411,-2.2079,-2.1555,-2.14,-2.1722,-2.1279,-2.1335,-2.2082,-2.2692,-2.3016,-2.2994,-2.3493,-2.3885,-2.3982,-2.3885,-2.3593,-2.2988,-2.2988,-2.3038,-2.3219,-2.4295,-2.5325,-2.5973,-2.6317,-2.6811,-2.7809,-2.6692,-2.6153,-2.75,-2.719,-2.6422,-2.6632,-2.8081,-2.9425,-2.9787,-2.9681,-2.9452,-2.9454,-2.9221,-2.8615,-2.8898,-2.8673,-2.8446,-2.8464,-2.8306,-2.8026,-2.7663,-2.6944,-2.6525,-2.637,-2.6086,-2.5567,-2.5697,-2.5834,-2.5962,-2.6286,-2.6937,-2.7398,-4.6289,-4.623,-4.5488,-4.5117,-4.4941,-4.4179,-4.2901,-4.1454,-4.2063,-4.1789,-4.081,-3.9986,-3.9527,-3.9192,-3.7458,-3.6035,-3.4936,-3.4249,-3.2741,0.0,-3.0254,-2.941,-2.8176,-2.7331,-2.6521,-2.576,-2.5503,-2.5044,-2.442,-2.4245,-2.4199,-2.4142,-2.3935,-2.3639,-2.3369,-2.3328,-2.3346,-2.3375,-2.4413,-2.4838,-2.4545,-2.5287,-2.5219,-2.434,-2.4094,-2.3553,-2.2731,-2.2274,-2.2361,-2.3076,-2.2326,-2.2125,-2.2774,-2.2823,-2.2367,-2.142,-2.1729,-2.1323,-1.9764,-1.9516,-1.905,-1.8166,-1.7971,-1.8532,-1.9983,-2.0251,-2.0331,-2.0291,-2.0469,-2.0719,-2.1128,-2.0861,-2.0579,-2.0423,-2.0347,-2.0604,-2.1292,-2.2407,-2.3382,-2.4067,-2.5121,-2.5704,-2.5899,-2.5651,-2.5457,-2.5899,-2.5659,-2.5644,-2.5689,-2.6452,-2.6995,-2.7214,-2.76,-2.7395,-2.6922,-2.7579,-2.7781,-2.762,-2.8168,-2.807,-2.7164,-2.6961,-2.6518,-2.5346,-2.5062,-2.4904,-2.4885,-2.5052,-2.4809,-2.4458,-2.4651,-2.5023,-2.5131,-2.5087,-2.5111,-4.5952,-4.5566,-4.5176,-4.4453,-4.3496,-4.2187,-4.0897,-3.9753,-3.9925,-3.9757,-3.922,-3.8395,-3.7713,-3.7127,-3.5632,-3.3911,-3.2136,-3.1857,-3.0593,-2.8642,-2.8459,-2.8022,-2.7283,-2.6383,-2.576,-2.5374,-2.4952,-2.4566,-2.4217,-2.4016,-2.3927,-2.3907,-2.3588,-2.3455,-2.3448,-2.3282,-2.3105,-2.2965,-2.3632,-2.391,-2.3762,-2.3937,-2.3772,-2.3306,-2.3168,-2.3047,-2.2902,-2.245,-2.2476,-2.3034,-2.2321,-2.198,-2.2124,-2.1869,-2.1474,-2.0934,-2.0576,-2.0006,-1.9154,-1.8477,-1.776,-1.6875,-1.6496,-1.6464,-1.6885,-1.7552,-1.8078,-1.8356,-1.8432,-1.8697,-1.9284,-1.9095,-1.8932,-1.8932,-1.8932,-1.9067,-1.9529,-2.0492,-2.1296,-2.1733,-2.2739,-2.3625,-2.3969,-2.3714,-2.3655,-2.3879,-2.3759,-2.352,-2.3535,-2.3774,-2.4507,-2.5719,-2.6019,-2.5749,-2.5159,-2.5244,-2.5559,-2.5532,-2.5864,-2.5949,-2.5493,-2.5506,-2.5218,-2.4643,-2.4186,-2.3932,-2.3898,-2.3675,-2.3498,-2.3436,-2.344,-2.3749,-2.3885,-2.3927,-2.414,-4.5492,-4.5,-4.457,-4.3418,-4.1719,-4.0234,-3.9004,-3.8047,-3.7917,-3.7545,-3.6978,-3.6686,-3.6186,-3.5397,-3.3934,-3.2041,-3.0125,-2.9726,-2.8739,-2.7167,-2.6927,-2.6759,-2.647,-2.5565,-2.5136,-2.5052,-2.4416,-2.4094,-2.4036,-2.3735,-2.3526,-2.3466,-2.3212,-2.3177,-2.3393,-2.3123,-2.2865,-2.2652,-2.2865,-2.2989,-2.2977,-2.2738,-2.263,-2.2582,-2.2429,-2.2581,-2.3091,-2.27,-2.2573,-2.2815,-2.2261,-2.1784,-2.1475,-2.0982,-2.0534,-2.022,-1.9423,-1.8719,-1.8296,-1.7474,-1.6608,-1.5876,-1.5372,-1.4862,-1.437,-1.5063,-1.5993,-1.6713,-1.6943,-1.7241,-1.7886,-1.7903,-1.7827,-1.7827,-1.7827,-1.7815,-1.792,-1.8844,-1.9586,-1.9794,-2.0686,-2.1665,-2.2157,-2.1908,-2.1858,-2.2317,-2.2029,-2.171,-2.1695,-2.1695,-2.2652,-2.3879,-2.4261,-2.3962,-2.3931,-2.3564,-2.3472,-2.3774,-2.3938,-2.4149,-2.4267,-2.4288,-2.4135,-2.3932,-2.3526,-2.319,-2.3105,-2.275,-2.2538,-2.2636,-2.2803,-2.29,-2.323,-2.3439,-2.3753,-4.4925,-4.4746,-4.3301,-4.168,-4.0039,-3.9082,-3.7754,-3.6328,-3.6211,-3.5211,-3.401,-3.5117,-3.5568,-3.5147,-3.2684,-3.0863,-2.9672,-2.8917,-2.7837,-2.6658,-2.6079,-2.5726,-2.5499,-2.4705,-2.4309,-2.4271,-2.3933,-2.3735,-2.3742,-2.3403,-2.3093,-2.2818,-2.2759,-2.2652,-2.2484,-2.2415,-2.2377,-2.2335,-2.2346,-2.2377,-2.2391,-2.2363,-2.2352,-2.2335,-2.2324,-2.2313,-2.2448,-2.1954,-2.1839,-2.1982,-2.1114,-2.0579,-2.0707,-2.0284,-1.9521,-1.8488,-1.8347,-1.7687,-1.6136,-1.582,-1.528,-1.4178,-1.4047,-1.3754,-1.3193,-1.3208,-1.3955,-1.5289,-1.5741,-1.6289,-1.7257,-1.7036,-1.6789,-1.6814,-1.6776,-1.6663,-1.6851,-1.7709,-1.8623,-1.9128,-1.9754,-2.0613,-2.1315,-2.116,-2.1149,-2.1595,-2.156,-2.1455,-2.147,-2.147,-2.153,-2.1994,-2.1994,-2.2024,-2.2099,-2.2328,-2.2542,-2.303,-2.355,-2.3618,-2.3528,-2.346,-2.3342,-2.3004,-2.2617,-2.253,-2.2496,-2.233,-2.2327,-2.2371,-2.255,-2.2784,-2.3093,-2.3212,-2.3448,-4.3729,-4.3309,-4.2167,-4.0098,-3.7715,-3.7207,-3.6074,-3.4512,-3.4473,-3.3967,-3.3242,-3.337,-3.3074,-3.2385,-3.0733,-2.9186,-2.773,-2.7329,-2.6524,-2.5403,-2.5111,-2.4892,-2.464,-2.416,-2.3907,-2.3876,-2.3566,-2.3403,-2.3328,-2.3069,-2.2818,-2.2712,-2.255,-2.249,-2.2527,-2.2374,-2.2313,-2.2313,-2.2313,-2.218,-2.1959,-2.2166,-2.2313,-2.2313,-2.2313,-2.2313,-2.2268,-2.1838,-2.1546,-2.1391,-2.0707,-2.0076,-1.9658,-1.9107,-1.8468,-1.7686,-1.7021,-1.608,-1.4641,-1.4538,-1.4156,-1.331,-1.3262,-1.3152,-1.2954,-1.2915,-1.3498,-1.4723,-1.5063,-1.5572,-1.6647,-1.6647,-1.6513,-1.6513,-1.6513,-1.6513,-1.6534,-1.7221,-1.7822,-1.8043,-1.8543,-1.905,-1.9473,-1.9665,-1.9919,-2.0385,-2.0528,-2.0606,-2.0543,-2.0516,-2.0516,-2.0531,-2.0513,-2.0707,-2.1,-2.1088,-2.1387,-2.1804,-2.2248,-2.2475,-2.2771,-2.2753,-2.2632,-2.233,-2.2313,-2.2296,-2.2347,-2.2313,-2.2313,-2.2335,-2.2349,-2.2554,-2.2865,-2.291,-2.3117,-4.2393,-4.1761,-4.0407,-3.834,-3.5996,-3.5469,-3.4453,-3.3164,-3.3066,-3.2736,-3.2113,-3.1487,-3.0514,-2.9413,-2.8929,-2.7856,-2.6409,-2.6009,-2.5399,-2.4557,-2.4462,-2.4294,-2.4064,-2.3845,-2.3649,-2.3522,-2.3212,-2.2972,-2.2792,-2.2673,-2.2529,-2.2391,-2.2329,-2.2385,-2.255,-2.2388,-2.2313,-2.2313,-2.2313,-2.2061,-2.1703,-2.1928,-2.212,-2.2089,-2.2106,-2.218,-2.2265,-2.1972,-2.1538,-2.1023,-2.0682,-2.0006,-1.8954,-1.84,-1.7713,-1.687,-1.608,-1.5062,-1.3886,-1.3792,-1.3529,-1.3002,-1.2915,-1.2915,-1.2915,-1.2915,-1.3358,-1.4281,-1.4445,-1.4949,-1.6042,-1.6402,-1.6423,-1.6303,-1.638,-1.65,-1.6522,-1.6866,-1.7152,-1.7291,-1.7577,-1.7727,-1.7947,-1.8514,-1.9163,-1.9457,-1.9644,-1.9723,-1.9723,-1.9768,-1.9768,-1.9723,-1.9738,-1.9899,-2.0322,-2.0346,-2.0393,-2.0829,-2.131,-2.1514,-2.1943,-2.2092,-2.2123,-2.2005,-2.2149,-2.2296,-2.2296,-2.2313,-2.2313,-2.231,-2.2363,-2.2443,-2.2563,-2.2652,-2.2751,-4.0964,-4.057,-3.7575,-3.623,-3.5859,-3.4219,-3.3027,-3.2148,-3.2148,-3.1235,-2.9785,-2.958,-2.8519,-2.701,-2.7654,-2.7332,-2.6238,-2.5338,-2.4802,-2.4497,-2.4312,-2.4046,-2.3742,-2.3703,-2.3515,-2.3212,-2.2885,-2.2418,-2.1818,-2.2101,-2.2089,-2.1718,-2.203,-2.2251,-2.2248,-2.2223,-2.2282,-2.2194,-2.2211,-2.2017,-2.1643,-2.1598,-2.1598,-2.1613,-2.1643,-2.1853,-2.2209,-2.2282,-2.1886,-2.1023,-2.0926,-2.0316,-1.9029,-1.8341,-1.73,-1.5928,-1.561,-1.5039,-1.3956,-1.3755,-1.3505,-1.3017,-1.2915,-1.2915,-1.2915,-1.2915,-1.32,-1.3792,-1.3909,-1.4411,-1.5432,-1.6073,-1.6238,-1.5864,-1.6194,-1.6457,-1.6513,-1.6565,-1.6774,-1.7076,-1.693,-1.6972,-1.7353,-1.8249,-1.8746,-1.9043,-1.9387,-1.9672,-1.9723,-1.9723,-1.9723,-1.9723,-1.9723,-1.9738,-1.9768,-1.9858,-2.0202,-2.0599,-2.0748,-2.0716,-2.1228,-2.1628,-2.1643,-2.1749,-2.1988,-2.218,-2.2268,-2.2313,-2.2313,-2.2349,-2.2477,-2.2537,-2.2422,-2.2577,-2.2656,-3.8967,-3.8471,-3.6738,-3.5371,-3.418,-3.2519,-3.1309,-3.0488,-2.9941,-2.9302,-2.8656,-2.8563,-2.7829,-2.6615,-2.6797,-2.6327,-2.5344,-2.4958,-2.4623,-2.4339,-2.4219,-2.4016,-2.3721,-2.3482,-2.32,-2.2873,-2.2577,-2.2298,-2.2061,-2.1945,-2.1779,-2.1613,-2.1508,-2.1478,-2.1478,-2.1462,-2.1478,-2.1478,-2.1462,-2.126,-2.0846,-2.0765,-2.0765,-2.0797,-2.1306,-2.1673,-2.1855,-2.2135,-2.1917,-2.1039,-2.0684,-1.9858,-1.8468,-1.7177,-1.6068,-1.5141,-1.4664,-1.4097,-1.3372,-1.3214,-1.3118,-1.2929,-1.2915,-1.2915,-1.2915,-1.2929,-1.3152,-1.3637,-1.3802,-1.4063,-1.4469,-1.532,-1.5996,-1.6173,-1.6358,-1.65,-1.6513,-1.65,-1.6595,-1.671,-1.6595,-1.6723,-1.7167,-1.7646,-1.8145,-1.8765,-1.908,-1.9336,-1.9636,-1.9723,-1.9723,-1.9723,-1.9723,-1.9723,-1.9723,-1.9723,-1.9907,-2.0244,-2.0467,-2.0649,-2.1039,-2.1228,-2.1291,-2.1553,-2.1809,-2.2092,-2.2194,-2.2313,-2.2313,-2.2338,-2.2463,-2.25,-2.2307,-2.2473,-2.2467,-3.7294,-3.6362,-3.5527,-3.4336,-3.2871,-3.1211,-3.0156,-2.9512,-2.8672,-2.8072,-2.7746,-2.769,-2.7135,-2.6265,-2.5954,-2.5526,-2.4842,-2.4738,-2.4561,-2.4275,-2.4133,-2.3847,-2.3533,-2.3189,-2.2878,-2.256,-2.2243,-2.2017,-2.1871,-2.1553,-2.1337,-2.1165,-2.1039,-2.1007,-2.1007,-2.1007,-2.1007,-2.1007,-2.1007,-2.078,-2.0365,-2.0282,-2.0229,-2.0227,-2.0797,-2.1337,-2.1582,-2.1913,-2.1766,-2.1023,-2.0353,-1.9261,-1.7619,-1.6314,-1.5241,-1.4491,-1.4027,-1.3529,-1.3027,-1.2915,-1.2905,-1.2915,-1.2915,-1.2915,-1.2915,-1.2915,-1.3138,-1.342,-1.3515,-1.3563,-1.3933,-1.4732,-1.5466,-1.5898,-1.6272,-1.6573,-1.6731,-1.6595,-1.6522,-1.6522,-1.6522,-1.668,-1.6972,-1.7188,-1.7727,-1.8535,-1.8765,-1.9099,-1.9566,-1.9723,-1.9723,-1.9723,-1.9723,-1.9723,-1.9708,-1.9708,-1.9854,-2.0158,-2.0158,-2.0381,-2.0665,-2.0829,-2.1055,-2.1353,-2.1658,-2.1943,-2.2135,-2.2268,-2.2296,-2.231,-2.244,-2.2541,-2.2436,-2.2398,-2.2388,-3.6056,-3.4719,-3.375,-3.3047,-3.209,-3.0351,-2.957,-2.9355,-2.8516,-2.7543,-2.6848,-2.68,-2.6274,-2.5476,-2.5224,-2.4942,-2.4797,-2.4583,-2.4442,-2.4347,-2.3941,-2.3544,-2.3206,-2.288,-2.2573,-2.2262,-2.1838,-2.1446,-2.1134,-2.1023,-2.0781,-2.05,-2.0747,-2.0813,-2.0958,-2.0862,-2.0894,-2.0813,-2.0764,-2.0616,-2.0348,-2.0195,-2.0037,-1.9818,-2.0176,-2.0749,-2.1506,-2.1567,-2.1368,-2.0878,-2.0062,-1.8589,-1.6756,-1.585,-1.505,-1.4063,-1.3792,-1.3481,-1.3002,-1.2915,-1.2915,-1.2915,-1.2915,-1.2915,-1.2915,-1.2915,-1.2929,-1.2992,-1.3017,-1.3152,-1.3718,-1.4376,-1.4858,-1.488,-1.5898,-1.6752,-1.6972,-1.6795,-1.6513,-1.6513,-1.6513,-1.6513,-1.6616,-1.6909,-1.7442,-1.7973,-1.8438,-1.8912,-1.9406,-1.9493,-1.9617,-1.9654,-1.9566,-1.9493,-1.9584,-1.9711,-1.9912,-2.0072,-1.9912,-1.9945,-2.0278,-2.0515,-2.0845,-2.1149,-2.1823,-2.212,-2.2194,-2.2313,-2.2313,-2.2338,-2.2463,-2.2527,-2.2436,-2.2374,-2.2398,-3.5064,-3.4508,-3.3144,-3.2441,-3.1894,-2.9707,-2.8711,-2.8516,-2.7124,-2.6236,-2.5943,-2.587,-2.5615,-2.5307,-2.5006,-2.4842,-2.4775,-2.4452,-2.4191,-2.3951,-2.3777,-2.3392,-2.2923,-2.2746,-2.2378,-2.188,-2.1673,-2.1384,-2.1007,-2.0666,-2.04,-2.0314,-2.0158,-2.0104,-2.0154,-2.0102,-1.9949,-1.9582,-1.9564,-1.9474,-1.9346,-1.9346,-1.9449,-1.9729,-2.0089,-2.0451,-2.0699,-2.1023,-2.0797,-2.0095,-1.9396,-1.8074,-1.6203,-1.5286,-1.4618,-1.3886,-1.3396,-1.3128,-1.2954,-1.2915,-1.2915,-1.2915,-1.2915,-1.2915,-1.2915,-1.2915,-1.2915,-1.2915,-1.2905,-1.3017,-1.3286,-1.4107,-1.4824,-1.5276,-1.6352,-1.693,-1.6837,-1.6659,-1.6522,-1.6513,-1.6513,-1.6513,-1.6522,-1.6744,-1.7013,-1.7463,-1.7767,-1.8151,-1.8874,-1.893,-1.8803,-1.9024,-1.908,-1.9244,-1.9262,-1.9281,-1.9376,-1.9474,-1.9413,-1.9479,-1.9826,-2.0229,-2.055,-2.115,-2.1825,-2.2194,-2.2268,-2.2313,-2.2313,-2.2313,-2.2377,-2.2377,-2.2338,-2.2321,-2.236,-3.4256,-3.3609,-3.2617,-3.1797,-3.1074,-2.9082,-2.8086,-2.7637,-2.6258,-2.558,-2.5508,-2.5431,-2.5307,-2.5163,-2.491,-2.476,-2.4628,-2.4211,-2.3827,-2.3555,-2.3511,-2.32,-2.2721,-2.2586,-2.2217,-2.1655,-2.1445,-2.1149,-2.0732,-2.0297,-2.0072,-2.0017,-1.9818,-1.9726,-1.9723,-1.9708,-1.9497,-1.9207,-1.9024,-1.8893,-1.8855,-1.8708,-1.8765,-1.9099,-1.9365,-1.9462,-1.9516,-1.9768,-1.9821,-1.948,-1.8783,-1.7288,-1.5465,-1.488,-1.434,-1.3563,-1.3152,-1.2905,-1.2915,-1.2915,-1.2915,-1.2915,-1.2915,-1.2915,-1.2915,-1.2915,-1.2915,-1.2915,-1.2915,-1.2992,-1.3334,-1.4107,-1.5005,-1.5828,-1.6701,-1.7105,-1.6866,-1.6993,-1.6871,-1.6701,-1.6513,-1.6513,-1.6513,-1.6522,-1.6744,-1.7167,-1.7312,-1.7565,-1.8308,-1.8535,-1.865,-1.8874,-1.9188,-1.9188,-1.8949,-1.8893,-1.8836,-1.8841,-1.8822,-1.9024,-1.9321,-1.9778,-2.0164,-2.1149,-2.1913,-2.2194,-2.2313,-2.2313,-2.2313,-2.2313,-2.2313,-2.2313,-2.231,-2.2296,-2.2324,-3.3541,-3.21,-3.2087,-3.1152,-2.9707,-2.8691,-2.7832,-2.6953,-2.5997,-2.5547,-2.5473,-2.5408,-2.5244,-2.5028,-2.4869,-2.4674,-2.4417,-2.3991,-2.3544,-2.3259,-2.3153,-2.2977,-2.2652,-2.2354,-2.1972,-2.1521,-2.1134,-2.0731,-2.028,-1.9945,-1.9723,-1.9744,-1.9744,-1.9723,-1.9723,-1.9723,-1.9617,-1.935,-1.9006,-1.8798,-1.8688,-1.8288,-1.8125,-1.819,-1.8249,-1.8288,-1.8347,-1.8333,-1.8593,-1.9115,-1.8005,-1.6562,-1.5096,-1.4709,-1.4177,-1.3079,-1.2915,-1.2915,-1.2915,-1.2915,-1.2915,-1.2915,-1.2915,-1.2915,-1.2915,-1.2915,-1.2915,-1.2905,-1.2968,-1.3224,-1.3732,-1.4526,-1.5398,-1.6421,-1.7162,-1.736,-1.7394,-1.7706,-1.7374,-1.6723,-1.6513,-1.6513,-1.6513,-1.6513,-1.6744,-1.7034,-1.7188,-1.7442,-1.7894,-1.8243,-1.8684,-1.8893,-1.8987,-1.8912,-1.8612,-1.8322,-1.8263,-1.8204,-1.8249,-1.8574,-1.9103,-1.9639,-2.0352,-2.1306,-2.1899,-2.2166,-2.2313,-2.2313,-2.2313,-2.2313,-2.2313,-2.2313,-2.2352,-2.2388,-2.2402,-3.3103,-3.2107,-3.1504,-3.0605,-2.9531,-2.8627,-2.7743,-2.6856,-2.5865,-2.5459,-2.5411,-2.5359,-2.5196,-2.4998,-2.4836,-2.4559,-2.4137,-2.3824,-2.3357,-2.2898,-2.2818,-2.2678,-2.2381,-2.1969,-2.1568,-2.115,-2.0747,-2.0261,-1.9892,-1.978,-1.9723,-1.9723,-1.9723,-1.9723,-1.9723,-1.969,-1.9258,-1.8631,-1.8419,-1.8106,-1.7787,-1.7626,-1.7727,-1.8072,-1.8052,-1.8052,-1.8033,-1.7706,-1.7572,-1.78,-1.7175,-1.6105,-1.488,-1.4675,-1.4154,-1.3162,-1.2915,-1.2915,-1.2915,-1.2915,-1.2915,-1.2915,-1.2915,-1.2915,-1.2915,-1.2915,-1.2915,-1.2968,-1.3262,-1.3637,-1.4016,-1.5151,-1.6557,-1.7892,-1.8013,-1.7867,-1.7827,-1.7639,-1.7229,-1.6637,-1.6522,-1.6513,-1.6513,-1.6522,-1.6552,-1.6689,-1.6795,-1.6909,-1.7415,-1.7807,-1.8165,-1.8283,-1.838,-1.8361,-1.821,-1.7874,-1.7666,-1.7565,-1.7747,-1.8092,-1.8962,-1.9939,-2.0894,-2.1913,-2.2063,-2.2282,-2.2313,-2.2313,-2.2313,-2.2313,-2.2313,-2.2324,-2.2514,-2.2612,-2.2612,-3.2342,-3.1621,-3.1113,-3.0195,-2.9062,-2.8427,-2.7497,-2.639,-2.5704,-2.5394,-2.536,-2.5236,-2.509,-2.491,-2.4741,-2.4378,-2.3878,-2.3595,-2.3206,-2.2764,-2.2391,-2.215,-2.1926,-2.1553,-2.1118,-2.0715,-2.0433,-2.0104,-1.9797,-1.9723,-1.9723,-1.9723,-1.9723,-1.9723,-1.9672,-1.9442,-1.9099,-1.8477,-1.8033,-1.7585,-1.7312,-1.7076,-1.6904,-1.7162,-1.7244,-1.736,-1.7066,-1.6967,-1.7055,-1.7139,-1.6774,-1.5954,-1.4869,-1.4709,-1.4142,-1.3027,-1.2915,-1.2915,-1.2915,-1.2915,-1.2915,-1.2915,-1.2915,-1.2915,-1.2915,-1.2915,-1.2954,-1.33,-1.3613,-1.4133,-1.5016,-1.6426,-1.7773,-1.8579,-1.8612,-1.8361,-1.8112,-1.7626,-1.7097,-1.668,-1.6513,-1.6513,-1.6513,-1.6513,-1.6513,-1.6522,-1.6565,-1.6701,-1.6942,-1.7291,-1.7646,-1.7874,-1.8171,-1.8341,-1.8052,-1.7686,-1.7415,-1.7271,-1.7666,-1.7933,-1.891,-2.0076,-2.0927,-2.1721,-2.2049,-2.2313,-2.2313,-2.2313,-2.2313,-2.2313,-2.2313,-2.2415,-2.2616,-2.2772,-2.2784,-3.1572,-3.0879,-3.0801,-2.9805,-2.8437,-2.8092,-2.7098,-2.5795,-2.5463,-2.5387,-2.5328,-2.511,-2.4962,-2.479,-2.4623,-2.4238,-2.3714,-2.3403,-2.3044,-2.2573,-2.2079,-2.1642,-2.1506,-2.1118,-2.0732,-2.0399,-2.0265,-2.0019,-1.9764,-1.9723,-1.9723,-1.9723,-1.9723,-1.9723,-1.9654,-1.9281,-1.8983,-1.8593,-1.7933,-1.7415,-1.7084,-1.6655,-1.6256,-1.6005,-1.6092,-1.6083,-1.5918,-1.6061,-1.657,-1.7058,-1.671,-1.5942,-1.4971,-1.4789,-1.4177,-1.3272,-1.2978,-1.2915,-1.2915,-1.2915,-1.2915,-1.2915,-1.2915,-1.2915,-1.2915,-1.2915,-1.3104,-1.3637,-1.3886,-1.4937,-1.649,-1.8045,-1.8617,-1.8874,-1.8836,-1.8535,-1.8072,-1.7585,-1.7084,-1.6595,-1.6513,-1.6513,-1.6513,-1.6513,-1.6513,-1.6513,-1.6513,-1.6586,-1.6921,-1.7415,-1.7646,-1.7807,-1.8112,-1.8477,-1.8013,-1.7504,-1.7271,-1.7118,-1.7727,-1.823,-1.907,-2.0024,-2.0748,-2.1401,-2.202,-2.2313,-2.2313,-2.2313,-2.231,-2.2313,-2.2313,-2.2494,-2.2691,-2.2835,-2.2893,-3.1572,-3.084,-3.0176,-2.9258,-2.8262,-2.7426,-2.6511,-2.5539,-2.5376,-2.5345,-2.5279,-2.5105,-2.4917,-2.479,-2.4575,-2.4201,-2.3703,-2.3323,-2.2933,-2.2374,-2.1866,-2.1414,-2.1118,-2.0731,-2.0416,-2.0227,-1.9947,-1.98,-1.9708,-1.9723,-1.9723,-1.9723,-1.9723,-1.9708,-1.9639,-1.9424,-1.9043,-1.84,-1.7967,-1.7401,-1.671,-1.617,-1.5754,-1.5543,-1.5287,-1.5062,-1.5062,-1.5488,-1.583,-1.6005,-1.6269,-1.6129,-1.5377,-1.4949,-1.4352,-1.3695,-1.3152,-1.2929,-1.2915,-1.2929,-1.2915,-1.2915,-1.2915,-1.2915,-1.2915,-1.2929,-1.3214,-1.3839,-1.4642,-1.5972,-1.7839,-1.8598,-1.8874,-1.8822,-1.8496,-1.8052,-1.7605,-1.736,-1.7026,-1.6659,-1.6513,-1.6513,-1.6513,-1.6513,-1.6513,-1.6513,-1.6513,-1.6513,-1.6921,-1.7442,-1.7605,-1.7666,-1.7847,-1.8092,-1.7747,-1.7353,-1.725,-1.7242,-1.7807,-1.8564,-1.9401,-2.0108,-2.083,-2.1524,-2.2152,-2.2268,-2.2209,-2.2349,-2.236,-2.2335,-2.2363,-2.2647,-2.2865,-2.2972,-2.3159,-3.0903,-3.0209,-2.9785,-2.8847,-2.7668,-2.7016,-2.6279,-2.556,-2.5357,-2.5308,-2.5264,-2.5088,-2.4936,-2.479,-2.4575,-2.4211,-2.3685,-2.3177,-2.2802,-2.2402,-2.1922,-2.1491,-2.1213,-2.0712,-2.034,-2.0052,-1.9821,-1.9708,-1.9723,-1.9708,-1.9723,-1.9723,-1.9705,-1.953,-1.9295,-1.9114,-1.8477,-1.7827,-1.7476,-1.7034,-1.6509,-1.593,-1.541,-1.5107,-1.4652,-1.4376,-1.4721,-1.5276,-1.5565,-1.5742,-1.6139,-1.6073,-1.5421,-1.5141,-1.471,-1.3897,-1.3552,-1.3334,-1.331,-1.3065,-1.2915,-1.2915,-1.2915,-1.2915,-1.3002,-1.3138,-1.36,-1.4272,-1.5318,-1.6743,-1.8598,-1.8893,-1.8893,-1.8727,-1.8171,-1.7626,-1.7333,-1.7084,-1.6837,-1.6552,-1.6513,-1.6513,-1.6513,-1.6513,-1.6513,-1.6513,-1.6513,-1.6534,-1.6637,-1.7126,-1.736,-1.7483,-1.7585,-1.7585,-1.7353,-1.7201,-1.7229,-1.7442,-1.7947,-1.8831,-1.976,-2.0383,-2.0991,-2.1477,-2.1884,-2.2063,-2.2046,-2.2215,-2.2463,-2.2514,-2.263,-2.2878,-2.3063,-2.3129,-2.3437,-2.9983,-2.9312,-2.9236,-2.8297,-2.7007,-2.6671,-2.6121,-2.5464,-2.5326,-2.5308,-2.5253,-2.509,-2.4884,-2.4782,-2.4526,-2.4145,-2.3646,-2.3129,-2.2784,-2.2578,-2.2068,-2.1718,-2.1462,-2.1119,-2.0673,-1.996,-1.9922,-1.9884,-1.9762,-1.9764,-1.98,-1.9726,-1.9566,-1.9336,-1.8893,-1.8394,-1.7947,-1.7415,-1.7076,-1.6744,-1.6457,-1.5908,-1.532,-1.456,-1.4179,-1.4073,-1.456,-1.5141,-1.5598,-1.562,-1.616,-1.5832,-1.531,-1.5186,-1.5253,-1.4133,-1.3933,-1.3708,-1.3576,-1.3248,-1.2915,-1.2915,-1.2915,-1.3002,-1.3152,-1.3515,-1.4061,-1.496,-1.6012,-1.7307,-1.8688,-1.8893,-1.8784,-1.8496,-1.7767,-1.7353,-1.7118,-1.6752,-1.6573,-1.6522,-1.6513,-1.6513,-1.6513,-1.6513,-1.6513,-1.6513,-1.65,-1.6543,-1.6659,-1.6837,-1.7126,-1.725,-1.7333,-1.7229,-1.6993,-1.7242,-1.7229,-1.7666,-1.8145,-1.8943,-1.9882,-2.0331,-2.078,-2.1102,-2.143,-2.172,-2.207,-2.2347,-2.2546,-2.2673,-2.2759,-2.2873,-2.3057,-2.3277,-2.3577,-2.9085,-2.8358,-2.7694,-2.7204,-2.681,-2.6065,-2.5626,-2.5425,-2.5321,-2.5308,-2.5248,-2.4975,-2.4842,-2.4716,-2.441,-2.4037,-2.3685,-2.3259,-2.296,-2.2725,-2.2295,-2.2003,-2.1708,-2.1768,-2.1456,-2.0908,-2.0559,-2.0214,-1.9925,-2.0,-1.9927,-1.9675,-1.9317,-1.9024,-1.8765,-1.8361,-1.7807,-1.7271,-1.7055,-1.6837,-1.6432,-1.582,-1.5084,-1.4236,-1.3909,-1.398,-1.4249,-1.5039,-1.5598,-1.5654,-1.6182,-1.6051,-1.5666,-1.5588,-1.5465,-1.5084,-1.4411,-1.4027,-1.3849,-1.331,-1.2978,-1.2915,-1.2915,-1.32,-1.3505,-1.3839,-1.448,-1.564,-1.6852,-1.8078,-1.8784,-1.8822,-1.84,-1.7867,-1.7422,-1.7084,-1.6752,-1.6586,-1.6513,-1.6513,-1.6513,-1.65,-1.6479,-1.6436,-1.638,-1.6358,-1.6337,-1.6436,-1.6565,-1.6752,-1.6993,-1.7055,-1.7055,-1.6866,-1.668,-1.7097,-1.7381,-1.7907,-1.84,-1.8912,-1.9666,-2.0106,-2.0483,-2.0846,-2.1384,-2.1915,-2.2212,-2.2409,-2.2608,-2.2682,-2.2759,-2.2835,-2.3033,-2.3242,-2.3317,-2.8206,-2.7466,-2.7124,-2.6672,-2.6141,-2.5702,-2.5444,-2.5346,-2.5317,-2.5248,-2.5124,-2.4968,-2.4806,-2.4639,-2.4469,-2.4201,-2.3888,-2.3403,-2.3147,-2.289,-2.2504,-2.2209,-2.1947,-2.22,-2.1721,-2.1215,-2.094,-2.0607,-2.0067,-1.9962,-1.9927,-1.9729,-1.9406,-1.9062,-1.8574,-1.821,-1.7626,-1.7105,-1.6879,-1.6808,-1.6423,-1.5666,-1.4778,-1.4422,-1.4027,-1.4109,-1.479,-1.5152,-1.5754,-1.6064,-1.6358,-1.6315,-1.6151,-1.603,-1.592,-1.5565,-1.5028,-1.4526,-1.4226,-1.3695,-1.3262,-1.2929,-1.2915,-1.32,-1.3718,-1.419,-1.5073,-1.6557,-1.7321,-1.8322,-1.8841,-1.865,-1.8092,-1.7463,-1.7076,-1.6795,-1.6573,-1.6522,-1.6513,-1.6513,-1.6457,-1.6436,-1.6402,-1.6358,-1.6259,-1.6204,-1.616,-1.6303,-1.6457,-1.6637,-1.6858,-1.6816,-1.6816,-1.6744,-1.6637,-1.7034,-1.7483,-1.8027,-1.8568,-1.9076,-1.9536,-1.9984,-2.0297,-2.0601,-2.1228,-2.1886,-2.1984,-2.2031,-2.2361,-2.2695,-2.2733,-2.281,-2.3021,-2.3177,-2.3224,-2.7329,-2.6542,-2.6674,-2.6251,-2.5556,-2.5473,-2.5404,-2.5317,-2.5288,-2.5219,-2.5057,-2.5004,-2.4831,-2.4588,-2.4452,-2.4339,-2.4123,-2.3511,-2.3218,-2.3051,-2.2571,-2.2296,-2.2293,-2.2128,-2.1782,-2.1309,-2.0957,-2.084,-2.0204,-2.0,-1.9821,-1.9584,-1.9566,-1.9024,-1.8249,-1.7807,-1.7229,-1.6816,-1.6513,-1.6513,-1.6228,-1.55,-1.488,-1.488,-1.4422,-1.4653,-1.5365,-1.5732,-1.6017,-1.6315,-1.6479,-1.65,-1.6513,-1.6513,-1.6272,-1.5842,-1.5565,-1.5141,-1.4664,-1.3873,-1.3262,-1.292,-1.3041,-1.343,-1.4097,-1.496,-1.6055,-1.7659,-1.8125,-1.8224,-1.8516,-1.8243,-1.7727,-1.7209,-1.6765,-1.6513,-1.6522,-1.6513,-1.6513,-1.6479,-1.6402,-1.6281,-1.6173,-1.6073,-1.5952,-1.5952,-1.5908,-1.6182,-1.6358,-1.6479,-1.6629,-1.6586,-1.6565,-1.6565,-1.668,-1.7013,-1.7483,-1.8027,-1.8554,-1.908,-1.9518,-1.9929,-2.0177,-2.0433,-2.0959,-2.1507,-2.1565,-2.1842,-2.2374,-2.2695,-2.2695,-2.2759,-2.2898,-2.2952,-2.297,-2.6434,-2.568,-2.5762,-2.5662,-2.5508,-2.5441,-2.5379,-2.5298,-2.5308,-2.5303,-2.5208,-2.5071,-2.4878,-2.4666,-2.4366,-2.4247,-2.4006,-2.3577,-2.3224,-2.3123,-2.2638,-2.2307,-2.2209,-2.1842,-2.1619,-2.1228,-2.0747,-2.0241,-1.9962,-2.0037,-1.9949,-1.9588,-1.8874,-1.8171,-1.7973,-1.7381,-1.6671,-1.6522,-1.6513,-1.6513,-1.6392,-1.581,-1.5499,-1.5477,-1.5365,-1.5387,-1.571,-1.6051,-1.6402,-1.6457,-1.6513,-1.6513,-1.6513,-1.6513,-1.65,-1.6107,-1.5511,-1.4766,-1.4537,-1.3802,-1.3118,-1.3055,-1.3324,-1.3944,-1.471,-1.585,-1.6995,-1.7894,-1.8052,-1.8052,-1.8072,-1.7727,-1.7188,-1.6879,-1.6607,-1.6513,-1.6513,-1.6513,-1.6513,-1.6436,-1.6358,-1.6008,-1.5776,-1.5698,-1.5632,-1.5632,-1.572,-1.5986,-1.6259,-1.6436,-1.6513,-1.6513,-1.6543,-1.6565,-1.6879,-1.7188,-1.7666,-1.8131,-1.8669,-1.9169,-1.9482,-1.9856,-2.0017,-2.033,-2.0845,-2.1291,-2.1567,-2.196,-2.2499,-2.266,-2.2599,-2.2652,-2.2721,-2.2742,-2.2773,-2.5836,-2.5524,-2.5604,-2.5599,-2.5513,-2.5457,-2.5398,-2.5317,-2.5308,-2.5248,-2.5124,-2.4956,-2.4741,-2.4486,-2.4266,-2.4199,-2.4094,-2.3682,-2.3369,-2.3141,-2.2717,-2.2309,-2.1926,-2.1658,-2.146,-2.0894,-2.0484,-2.0172,-1.9909,-1.9803,-1.9749,-1.9266,-1.8765,-1.821,-1.7807,-1.7209,-1.6816,-1.6616,-1.6513,-1.6513,-1.6358,-1.6008,-1.5764,-1.6073,-1.5786,-1.582,-1.6107,-1.6315,-1.65,-1.6513,-1.6513,-1.6303,-1.6095,-1.5964,-1.5876,-1.5377,-1.4675,-1.4376,-1.4525,-1.3813,-1.331,-1.3104,-1.3505,-1.419,-1.5141,-1.6179,-1.7105,-1.7585,-1.7646,-1.7666,-1.7666,-1.7442,-1.7034,-1.6701,-1.6513,-1.6565,-1.6543,-1.6513,-1.6479,-1.638,-1.6238,-1.5908,-1.5499,-1.5096,-1.5197,-1.5588,-1.5588,-1.5688,-1.6086,-1.6457,-1.6513,-1.6513,-1.6565,-1.6616,-1.7076,-1.7483,-1.8013,-1.8516,-1.9024,-1.9424,-1.9566,-1.9815,-1.9962,-2.026,-2.0747,-2.1181,-2.1536,-2.1984,-2.245,-2.249,-2.2463,-2.25,-2.255,-2.2699,-2.2815,-2.551,-2.5505,-2.5641,-2.5628,-2.5511,-2.5481,-2.5415,-2.533,-2.5298,-2.5219,-2.5053,-2.4896,-2.4618,-2.433,-2.4247,-2.419,-2.417,-2.3774,-2.3477,-2.3159,-2.2776,-2.232,-2.1895,-2.1613,-2.1118,-2.0433,-2.0212,-1.998,-1.98,-1.9708,-1.9548,-1.9062,-1.8727,-1.8283,-1.7666,-1.7167,-1.6858,-1.6816,-1.693,-1.6993,-1.6875,-1.6407,-1.6407,-1.6398,-1.6235,-1.6017,-1.6414,-1.65,-1.6513,-1.6513,-1.6513,-1.6337,-1.6042,-1.5798,-1.5565,-1.5073,-1.4411,-1.405,-1.4131,-1.3789,-1.3372,-1.331,-1.3718,-1.4595,-1.5688,-1.6367,-1.6795,-1.7353,-1.736,-1.7353,-1.7271,-1.7188,-1.6845,-1.6637,-1.6513,-1.6586,-1.6637,-1.6616,-1.6659,-1.6667,-1.6429,-1.593,-1.541,-1.4641,-1.471,-1.5365,-1.5533,-1.5555,-1.603,-1.6616,-1.6637,-1.668,-1.6816,-1.6888,-1.7209,-1.7727,-1.8302,-1.8803,-1.9299,-1.9603,-1.9672,-1.9747,-1.9892,-2.0244,-2.0698,-2.1118,-2.1553,-2.1945,-2.2313,-2.2349,-2.2374,-2.2349,-2.2402,-2.255,-2.281,-2.551,-2.5505,-2.5586,-2.5604,-2.5572,-2.5449,-2.5397,-2.5376,-2.5317,-2.5293,-2.5187,-2.4955,-2.4678,-2.4461,-2.4266,-2.418,-2.4151,-2.3533,-2.3288,-2.3014,-2.2634,-2.2329,-2.1913,-2.1462,-2.0991,-2.0715,-2.0208,-1.9818,-1.9726,-1.9723,-1.9672,-1.9566,-1.8803,-1.8322,-1.7807,-1.7312,-1.7126,-1.7229,-1.7544,-1.7787,-1.7666,-1.7347,-1.7126,-1.7021,-1.6731,-1.6479,-1.6513,-1.6436,-1.6392,-1.6392,-1.6284,-1.6228,-1.591,-1.5533,-1.5208,-1.4937,-1.4167,-1.3802,-1.3695,-1.3539,-1.3128,-1.3262,-1.3967,-1.5107,-1.6173,-1.6833,-1.7209,-1.7188,-1.7146,-1.7188,-1.7097,-1.69,-1.6637,-1.6595,-1.6616,-1.6858,-1.6845,-1.6731,-1.6795,-1.6917,-1.6663,-1.6126,-1.5983,-1.5376,-1.4949,-1.5543,-1.608,-1.6123,-1.6566,-1.7034,-1.693,-1.6951,-1.7126,-1.7271,-1.7394,-1.7887,-1.8516,-1.8893,-1.9281,-1.9515,-1.9657,-1.9764,-1.9821,-2.0244,-2.0682,-2.1118,-2.1538,-2.1959,-2.2254,-2.2299,-2.2268,-2.2152,-2.222,-2.2392,-2.2699,-2.5513,-2.5567,-2.5625,-2.5635,-2.5598,-2.5491,-2.5441,-2.5398,-2.5326,-2.5219,-2.5118,-2.4877,-2.4693,-2.4505,-2.4294,-2.4074,-2.3886,-2.3671,-2.3288,-2.2947,-2.2639,-2.2292,-2.1866,-2.1369,-2.0845,-2.0549,-1.9997,-1.9723,-1.9708,-1.9744,-1.9723,-1.9457,-1.8935,-1.8458,-1.7993,-1.7727,-1.7666,-1.7727,-1.7973,-1.8092,-1.7973,-1.7605,-1.7312,-1.725,-1.6774,-1.6543,-1.6457,-1.6095,-1.6008,-1.5864,-1.5634,-1.5545,-1.5433,-1.4915,-1.4664,-1.4549,-1.3742,-1.3396,-1.342,-1.3443,-1.3755,-1.4526,-1.505,-1.5599,-1.6423,-1.6723,-1.6795,-1.6816,-1.6858,-1.6879,-1.6765,-1.665,-1.6543,-1.6573,-1.6752,-1.7055,-1.7209,-1.7126,-1.7042,-1.7258,-1.6866,-1.6324,-1.6333,-1.6321,-1.5962,-1.5774,-1.6296,-1.6786,-1.7196,-1.7504,-1.7476,-1.7435,-1.7605,-1.7907,-1.8046,-1.84,-1.8784,-1.9043,-1.9332,-1.9479,-1.9672,-1.969,-1.9836,-2.0277,-2.0682,-2.1118,-2.1554,-2.2005,-2.2152,-2.2049,-2.1959,-2.184,-2.1998,-2.2254,-2.256,-2.5545,-2.5604,-2.5662,-2.5662,-2.563,-2.5524,-2.5485,-2.5418,-2.5339,-2.5165,-2.493,-2.4835,-2.4647,-2.4436,-2.4266,-2.4034,-2.3774,-2.3544,-2.3177,-2.2848,-2.2542,-2.2261,-2.182,-2.1399,-2.1023,-2.05,-2.0104,-1.9892,-1.9723,-1.9818,-1.98,-1.966,-1.9431,-1.8999,-1.8477,-1.8341,-1.8341,-1.8347,-1.8516,-1.8438,-1.8361,-1.7867,-1.7401,-1.7216,-1.6578,-1.6182,-1.6008,-1.5666,-1.5365,-1.5231,-1.5028,-1.4789,-1.4525,-1.4224,-1.3873,-1.3589,-1.33,-1.2992,-1.3262,-1.36,-1.4365,-1.5174,-1.5443,-1.5886,-1.6315,-1.6513,-1.6586,-1.6565,-1.6543,-1.6513,-1.6513,-1.6513,-1.668,-1.6816,-1.7013,-1.7291,-1.7686,-1.7767,-1.7646,-1.7585,-1.7188,-1.698,-1.6909,-1.7029,-1.7066,-1.6894,-1.7369,-1.7679,-1.7693,-1.7967,-1.8125,-1.8106,-1.8165,-1.8477,-1.8803,-1.9024,-1.9207,-1.9314,-1.9548,-1.9599,-1.9708,-1.9744,-1.9889,-2.0244,-2.0682,-2.1118,-2.1554,-2.1959,-2.1899,-2.172,-2.1673,-2.1688,-2.2017,-2.2274,-2.2446,-2.5547,-2.5604,-2.5682,-2.5703,-2.5664,-2.5556,-2.5508,-2.546,-2.535,-2.5132,-2.4843,-2.4792,-2.4591,-2.4321,-2.4219,-2.3968,-2.3639,-2.3357,-2.3021,-2.2704,-2.2463,-2.2293,-2.2075,-2.1735,-2.1291,-2.0975,-2.0549,-2.0139,-1.978,-2.0035,-2.0017,-1.9821,-1.9684,-1.9546,-1.8916,-1.8893,-1.8874,-1.893,-1.9281,-1.908,-1.854,-1.7979,-1.7511,-1.6878,-1.6102,-1.5632,-1.5477,-1.5028,-1.4755,-1.4675,-1.4514,-1.4422,-1.4468,-1.3967,-1.3732,-1.3755,-1.3214,-1.3214,-1.3697,-1.3792,-1.4595,-1.5499,-1.5742,-1.5886,-1.6337,-1.6513,-1.6513,-1.6513,-1.6513,-1.6513,-1.6513,-1.6586,-1.6858,-1.7084,-1.7291,-1.7706,-1.8112,-1.8288,-1.8151,-1.8013,-1.7973,-1.7907,-1.7727,-1.7706,-1.7953,-1.8171,-1.8559,-1.8631,-1.8452,-1.853,-1.8722,-1.876,-1.8779,-1.8907,-1.9188,-1.9442,-1.9621,-1.9708,-1.9797,-1.9889,-1.996,-2.0048,-2.0191,-2.0365,-2.0666,-2.1086,-2.1507,-2.1928,-2.1749,-2.1583,-2.1628,-2.1703,-2.2032,-2.2279,-2.2412,-2.5604,-2.5662,-2.5703,-2.5703,-2.5684,-2.5558,-2.551,-2.5488,-2.5363,-2.5165,-2.4949,-2.4849,-2.467,-2.4426,-2.4182,-2.3917,-2.3426,-2.33,-2.2989,-2.2463,-2.2335,-2.2324,-2.218,-2.1899,-2.1568,-2.1338,-2.0959,-2.0516,-2.0139,-2.0314,-2.007,-1.9821,-1.9558,-1.9427,-1.9406,-1.9406,-1.9299,-1.8987,-1.8972,-1.8731,-1.7839,-1.7267,-1.6684,-1.6117,-1.5319,-1.4903,-1.4881,-1.4342,-1.4063,-1.4037,-1.3897,-1.3789,-1.3944,-1.3552,-1.3443,-1.3576,-1.3276,-1.343,-1.419,-1.4755,-1.5365,-1.582,-1.5908,-1.5952,-1.6402,-1.65,-1.6513,-1.6513,-1.6513,-1.6513,-1.6513,-1.6879,-1.7167,-1.7401,-1.7706,-1.8308,-1.8688,-1.8688,-1.8612,-1.8477,-1.8419,-1.8521,-1.8444,-1.84,-1.8612,-1.8746,-1.9024,-1.9207,-1.9095,-1.9221,-1.9384,-1.9387,-1.9387,-1.942,-1.9548,-1.9711,-1.9894,-2.0,-2.0156,-2.0328,-2.0362,-2.0379,-2.0531,-2.0715,-2.0878,-2.1055,-2.1385,-2.1613,-2.1568,-2.1491,-2.1643,-2.1703,-2.1899,-2.2152,-2.2338,-2.5636,-2.5703,-2.5703,-2.5703,-2.5684,-2.5558,-2.5488,-2.5418,-2.5335,-2.5171,-2.4949,-2.4828,-2.4631,-2.4409,-2.421,-2.3955,-2.338,-2.323,-2.2984,-2.245,-2.2338,-2.2388,-2.2284,-2.2056,-2.188,-2.1687,-2.1367,-2.0927,-2.0314,-2.0466,-2.0195,-1.9684,-1.9155,-1.9006,-1.9062,-1.8949,-1.8893,-1.8554,-1.8372,-1.7839,-1.698,-1.6222,-1.5459,-1.4801,-1.4184,-1.3716,-1.3784,-1.3582,-1.326,-1.3266,-1.3238,-1.3089,-1.3262,-1.3262,-1.3224,-1.3433,-1.4027,-1.4213,-1.4937,-1.5253,-1.5754,-1.6337,-1.6086,-1.6117,-1.6423,-1.65,-1.6513,-1.6513,-1.6543,-1.6565,-1.6659,-1.7084,-1.7463,-1.7686,-1.819,-1.8784,-1.9151,-1.9132,-1.914,-1.901,-1.9093,-1.9148,-1.9181,-1.9173,-1.9225,-1.9317,-1.9424,-1.9548,-1.9636,-1.9672,-1.9723,-1.969,-1.9672,-1.9636,-1.9693,-1.9877,-2.0054,-2.0263,-2.0483,-2.0715,-2.0731,-2.0747,-2.091,-2.1007,-2.0991,-2.1039,-2.1197,-2.1322,-2.1476,-2.1673,-2.1882,-2.1913,-2.1838,-2.2046,-2.2321,-2.5636,-2.5703,-2.5703,-2.5703,-2.5684,-2.5556,-2.5428,-2.5303,-2.5308,-2.5115,-2.4811,-2.4818,-2.461,-2.4266,-2.4199,-2.3996,-2.3682,-2.338,-2.3069,-2.2764,-2.2567,-2.2616,-2.2603,-2.2487,-2.2303,-2.2074,-2.177,-2.132,-2.0484,-2.0265,-2.0058,-1.9567,-1.8864,-1.8521,-1.8269,-1.8086,-1.8027,-1.78,-1.7342,-1.6751,-1.5944,-1.5024,-1.4267,-1.3546,-1.283,-1.2609,-1.2619,-1.2575,-1.2604,-1.2754,-1.2929,-1.2939,-1.2929,-1.2954,-1.331,-1.392,-1.4881,-1.5264,-1.5465,-1.5588,-1.6027,-1.6582,-1.6595,-1.6531,-1.6522,-1.6607,-1.6701,-1.6765,-1.6816,-1.6731,-1.6774,-1.7271,-1.7747,-1.8151,-1.8631,-1.9099,-1.9497,-1.9624,-1.9648,-1.9704,-1.9902,-1.9956,-1.9884,-1.9879,-1.953,-1.9548,-1.9566,-1.9617,-1.9672,-1.9672,-1.9723,-1.9723,-1.969,-1.9708,-1.9818,-1.9982,-2.0278,-2.05,-2.0862,-2.1086,-2.1086,-2.1118,-2.1166,-2.1166,-2.1007,-2.0975,-2.0943,-2.1244,-2.1613,-2.1823,-2.1986,-2.2215,-2.2184,-2.2226,-2.2412,-2.5703,-2.5703,-2.5703,-2.5703,-2.5684,-2.5556,-2.5421,-2.5303,-2.5303,-2.5109,-2.4804,-2.4804,-2.4586,-2.4237,-2.419,-2.3996,-2.3795,-2.3577,-2.3346,-2.3111,-2.2903,-2.2989,-2.2989,-2.2928,-2.2759,-2.2548,-2.2262,-2.1726,-2.0733,-2.0232,-1.9549,-1.9014,-1.8308,-1.7794,-1.7524,-1.7167,-1.7071,-1.6878,-1.6447,-1.5714,-1.4858,-1.3907,-1.3175,-1.2464,-1.2033,-1.192,-1.2027,-1.2408,-1.2632,-1.2871,-1.2929,-1.2905,-1.2915,-1.331,-1.3826,-1.441,-1.5118,-1.5576,-1.5676,-1.6017,-1.6484,-1.6938,-1.7063,-1.6829,-1.6765,-1.6845,-1.7055,-1.7126,-1.7291,-1.7333,-1.7463,-1.7867,-1.8171,-1.8535,-1.9006,-1.9409,-1.9782,-1.9929,-1.9984,-2.0265,-2.0467,-2.0382,-2.0364,-1.9962,-1.9636,-1.969,-1.9723,-1.9723,-1.9723,-1.9723,-1.9723,-1.9723,-1.9726,-1.9726,-1.9889,-2.0052,-2.0431,-2.078,-2.1166,-2.1507,-2.166,-2.166,-2.1507,-2.1228,-2.0878,-2.0666,-2.0551,-2.0975,-2.1568,-2.1794,-2.1955,-2.2281,-2.2531,-2.2541,-2.2616,-2.5703,-2.5703,-2.5703,-2.5703,-2.5637,-2.5551,-2.5438,-2.5357,-2.5313,-2.5115,-2.4825,-2.4804,-2.4567,-2.4247,-2.418,-2.4084,-2.3917,-2.3724,-2.3544,-2.3455,-2.33,-2.3311,-2.3323,-2.3265,-2.3057,-2.2885,-2.2478,-2.184,-2.0814,-1.9656,-1.8836,-1.8171,-1.7483,-1.7381,-1.7126,-1.6672,-1.6352,-1.6198,-1.5826,-1.5016,-1.4193,-1.3287,-1.2517,-1.1963,-1.1715,-1.1641,-1.1888,-1.2442,-1.272,-1.3142,-1.3262,-1.3396,-1.3695,-1.4354,-1.488,-1.5542,-1.625,-1.6655,-1.6836,-1.6975,-1.7278,-1.7504,-1.7626,-1.7497,-1.7415,-1.7483,-1.7565,-1.7666,-1.7874,-1.8092,-1.8288,-1.8516,-1.8688,-1.8893,-1.9303,-1.9714,-1.9947,-2.0158,-2.0416,-2.0716,-2.0749,-2.0665,-2.0413,-1.9995,-1.9723,-1.9723,-1.9723,-1.9723,-1.9723,-1.9723,-1.9723,-1.9723,-1.9744,-1.978,-1.9962,-2.026,-2.0698,-2.115,-2.1615,-2.1945,-2.2166,-2.1869,-2.1414,-2.1007,-2.0617,-2.0534,-2.0567,-2.1007,-2.1507,-2.1777,-2.2167,-2.2516,-2.273,-2.2686,-2.2822,-2.5586,-2.5586,-2.5664,-2.5662,-2.5603,-2.552,-2.5454,-2.5394,-2.533,-2.5109,-2.4847,-2.4804,-2.4575,-2.4247,-2.419,-2.419,-2.4064,-2.3907,-2.3816,-2.3732,-2.3544,-2.3522,-2.3511,-2.3392,-2.3129,-2.2893,-2.2403,-2.1661,-2.0685,-1.9567,-1.8438,-1.7401,-1.7456,-1.7476,-1.736,-1.6744,-1.6532,-1.6519,-1.6154,-1.5542,-1.455,-1.3538,-1.258,-1.2092,-1.1722,-1.1474,-1.1929,-1.2273,-1.2565,-1.345,-1.4016,-1.4249,-1.5084,-1.5694,-1.6216,-1.6663,-1.73,-1.7558,-1.7659,-1.7753,-1.7933,-1.8086,-1.8165,-1.8288,-1.8352,-1.8151,-1.8151,-1.823,-1.8438,-1.8612,-1.8803,-1.8949,-1.9099,-1.9225,-1.9479,-1.9841,-2.0106,-2.0466,-2.0959,-2.1197,-2.1181,-2.1055,-2.0715,-2.0328,-1.9962,-1.9836,-1.9818,-1.9836,-1.9889,-1.9907,-1.9797,-1.978,-1.9744,-1.9836,-2.0191,-2.0532,-2.1023,-2.1524,-2.1945,-2.2166,-2.224,-2.1811,-2.1228,-2.0749,-2.0314,-2.0633,-2.0813,-2.1275,-2.1729,-2.215,-2.252,-2.283,-2.2942,-2.2972,-2.3165,-2.4727,-2.4766,-2.543,-2.5683,-2.5661,-2.5552,-2.5484,-2.5474,-2.5342,-2.5115,-2.4847,-2.4775,-2.4567,-2.4228,-2.4199,-2.4199,-2.4161,-2.4094,-2.4084,-2.4006,-2.3858,-2.3621,-2.3692,-2.3511,-2.3112,-2.2513,-2.1964,-2.1269,-2.0116,-1.9218,-1.8631,-1.7973,-1.7933,-1.7979,-1.8005,-1.7437,-1.7321,-1.7259,-1.6949,-1.6216,-1.5139,-1.4205,-1.3328,-1.3223,-1.3022,-1.306,-1.3436,-1.3763,-1.4041,-1.4514,-1.4914,-1.5592,-1.6562,-1.6889,-1.7253,-1.7646,-1.8045,-1.8255,-1.8308,-1.8347,-1.8438,-1.8631,-1.8803,-1.9236,-1.9295,-1.8939,-1.8784,-1.8859,-1.8968,-1.9132,-1.9262,-1.9387,-1.946,-1.9548,-1.9621,-1.9947,-2.0263,-2.0862,-2.1445,-2.1583,-2.1598,-2.1337,-2.1007,-2.0649,-2.0296,-2.0158,-2.0176,-2.0227,-2.0379,-2.0396,-2.0017,-1.9945,-1.978,-1.9907,-2.0313,-2.0781,-2.126,-2.163,-2.2017,-2.2194,-2.2268,-2.1675,-2.1023,-2.0416,-2.0072,-2.0583,-2.1117,-2.1606,-2.2074,-2.252,-2.2857,-2.3153,-2.338,-2.3444,-2.366,-2.3848,-2.3965,-2.4766,-2.5352,-2.5644,-2.5558,-2.551,-2.5465,-2.5374,-2.5154,-2.4891,-2.4799,-2.4567,-2.4228,-2.4199,-2.4199,-2.4199,-2.419,-2.4036,-2.3996,-2.3903,-2.3703,-2.3599,-2.3406,-2.287,-2.2245,-2.1437,-2.0571,-1.9534,-1.9313,-1.8981,-1.8555,-1.8541,-1.8777,-1.8867,-1.8693,-1.8421,-1.8324,-1.807,-1.7356,-1.6248,-1.5566,-1.4778,-1.4642,-1.4699,-1.4801,-1.4947,-1.5282,-1.5632,-1.6189,-1.6911,-1.7404,-1.8131,-1.8465,-1.8734,-1.8931,-1.9104,-1.9078,-1.8981,-1.8902,-1.8912,-1.9114,-1.9244,-1.9609,-1.9627,-1.9317,-1.9452,-1.9507,-1.9391,-1.9497,-1.9512,-1.9599,-1.9617,-1.9654,-1.9747,-1.9947,-2.05,-2.1134,-2.166,-2.2005,-2.1869,-2.1521,-2.1134,-2.0649,-2.0399,-2.0549,-2.0533,-2.0516,-2.0698,-2.0747,-2.0414,-2.0227,-2.0122,-2.0208,-2.0649,-2.1071,-2.1492,-2.1825,-2.2092,-2.1901,-2.1751,-2.1338,-2.0829,-2.0431,-2.0382,-2.0911,-2.1442,-2.1898,-2.2398,-2.2848,-2.3183,-2.3477,-2.3649,-2.3774,-2.3927,-2.3301,-2.3613,-2.4316,-2.5,-2.5603,-2.5536,-2.5503,-2.5454,-2.535,-2.5198,-2.4992,-2.4871,-2.4599,-2.4367,-2.4199,-2.4199,-2.4199,-2.4199,-2.4016,-2.3599,-2.3521,-2.317,-2.2969,-2.2864,-2.241,-2.1857,-2.1117,-2.0254,-1.9353,-1.9567,-1.9662,-1.9221,-1.9412,-1.9819,-1.9917,-1.967,-1.9273,-1.9309,-1.9167,-1.8972,-1.8317,-1.7605,-1.677,-1.6389,-1.6397,-1.6677,-1.6698,-1.685,-1.729,-1.7843,-1.8656,-1.9122,-1.9418,-1.9657,-1.9778,-1.9928,-1.9781,-1.9864,-1.9882,-1.9627,-1.9621,-1.9672,-1.9723,-1.9726,-1.9744,-1.9785,-1.9897,-1.9932,-1.9803,-1.9708,-1.9708,-1.9723,-1.9723,-1.9744,-1.9854,-2.0052,-2.0699,-2.1322,-2.1781,-2.2225,-2.1988,-2.1627,-2.1228,-2.0716,-2.0649,-2.0781,-2.0845,-2.0862,-2.0862,-2.0829,-2.0665,-2.0649,-2.0682,-2.0845,-2.1071,-2.1307,-2.1675,-2.1901,-2.2063,-2.1645,-2.1338,-2.1228,-2.1055,-2.0699,-2.0814,-2.1258,-2.1709,-2.2166,-2.266,-2.3057,-2.3369,-2.3595,-2.3566,-2.3714,-2.3986,-2.3945,-2.5234,-2.541,-2.5525,-2.5606,-2.552,-2.546,-2.5404,-2.5344,-2.5198,-2.5034,-2.4949,-2.4762,-2.4445,-2.4266,-2.4199,-2.4199,-2.419,-2.3523,-2.2908,-2.312,-2.2609,-2.2259,-2.2394,-2.1924,-2.1512,-2.1118,-2.0553,-2.0047,-2.0385,-2.0486,-2.0039,-2.0505,-2.0766,-2.0765,-2.0536,-2.0388,-2.0322,-2.0158,-1.9976,-1.9749,-1.9227,-1.894,-1.8726,-1.8745,-1.8815,-1.8819,-1.8815,-1.8925,-1.9245,-1.9682,-2.0207,-2.0405,-2.042,-2.0369,-2.0285,-2.0193,-2.0017,-1.9927,-1.9818,-1.9726,-1.9723,-1.9744,-1.9836,-1.9836,-1.9782,-1.9912,-2.0054,-1.9945,-1.9744,-1.9723,-1.9723,-1.9723,-1.98,-1.9909,-2.033,-2.0878,-2.1306,-2.172,-2.1913,-2.1913,-2.1598,-2.1291,-2.0894,-2.0666,-2.0732,-2.0682,-2.0748,-2.1118,-2.1007,-2.0829,-2.0975,-2.1118,-2.1337,-2.1491,-2.1522,-2.1779,-2.1988,-2.202,-2.163,-2.1431,-2.1461,-2.1243,-2.0975,-2.1102,-2.149,-2.196,-2.2415,-2.2626,-2.2967,-2.3414,-2.3649,-2.3588,-2.3642,-2.3896]},{"header":{"parameterUnit":"m.s-1","parameterCategory":1,"la1":31.0,"la2":29.5877,"lo1":-88.7671,"lo2":-86.6584,"dy":0.0162,"dx":0.0185,"nx":115,"ny":88,"refTime":"2023-10-18T12:00:00:Z","depth":0,"parameterNumber":3,"parameterNumberName":"V-component_of_WINDS"},"data":[0.0,0.0,0.0,0.0,0.0,0.0,0.0,0.0,0.0,0.0,0.0,0.0,0.0,0.0,0.0,0.0,0.0,0.0,0.0,0.0,0.0,0.0,0.0,0.0,0.0,0.0,0.0,0.0,0.0,0.0,0.0,0.0,0.0,0.0,0.0,0.0,0.0,0.0,0.0,0.0,0.0,0.0,0.0,0.0,0.0,0.0,0.0,0.0,0.0,0.0,0.0,0.0,0.0,0.0,0.0,0.0,0.0,0.0,0.0,0.0,0.0,0.0,0.0,0.0,0.0,0.0,0.0,0.0,0.0,0.0,0.0,0.0,0.0,0.0,0.0,0.0,0.0,0.0,0.0,0.0,0.0,0.0,0.0,0.0,0.0,0.0,0.0,0.0,0.0,0.0,0.0,0.0,0.0,0.0,0.0,0.0,0.0,0.0,0.0,0.0,0.0,0.0,0.0,0.0,0.0,0.0,0.0,0.0,0.0,0.0,0.0,0.0,0.0,0.0,0.0,0.0,0.0,0.0,0.0,0.0,0.0,0.0,0.0,0.0,0.0,0.0,0.0,0.0,0.0,0.0,0.0,0.0,0.0,0.0,0.0,0.0,0.0,0.0,0.0,0.0,0.0,0.0,0.0,0.0,0.0,0.0,0.0,0.0,0.0,0.0,0.0,0.0,0.0,0.0,0.0,0.0,0.0,0.0,0.0,0.0,0.0,0.0,0.0,0.0,0.0,0.0,0.0,0.0,0.0,0.0,0.0,0.0,0.0,0.0,0.0,0.0,0.0,0.0,0.0,0.0,0.0,0.0,0.0,0.0,0.0,0.0,0.0,0.0,0.0,0.0,0.0,0.0,0.0,0.0,0.0,0.0,0.0,0.0,0.0,0.0,0.0,0.0,0.0,0.0,0.0,0.0,0.0,0.0,0.0,0.0,0.0,0.0,0.0,0.0,0.0,0.0,0.0,0.0,0.0,0.0,0.0,0.0,0.0,0.0,0.0,0.0,0.0,0.0,0.0,0.0,0.0,0.0,0.0,0.0,0.0,0.0,0.0,0.0,0.0,0.0,0.0,0.0,0.0,0.0,0.0,0.0,0.0,0.0,0.0,0.0,0.0,0.0,0.0,0.0,0.0,0.0,0.0,0.0,0.0,0.0,0.0,0.0,0.0,0.0,0.0,0.0,0.0,0.0,0.0,0.0,0.0,0.0,0.0,0.0,0.0,0.0,0.0,0.0,0.0,0.0,0.0,0.0,0.0,0.0,0.0,0.0,0.0,0.0,0.0,0.0,0.0,0.0,0.0,0.0,0.0,0.0,0.0,0.0,0.0,0.0,0.0,0.0,0.0,0.0,0.0,0.0,0.0,0.0,0.0,0.0,0.0,0.0,0.0,0.0,0.0,0.0,0.0,0.0,0.0,0.0,0.0,0.0,0.0,0.0,0.0,0.0,0.0,0.0,0.0,0.0,0.0,0.0,0.0,0.0,0.0,0.0,0.0,0.0,0.0,0.0,0.0,0.0,0.0,0.0,0.0,0.0,0.0,0.0,0.0,0.0,0.0,0.0,0.0,0.0,0.0,0.0,0.0,0.0,0.0,0.0,0.0,0.0,0.0,0.0,0.0,0.0,0.0,0.0,0.0,0.0,0.0,0.0,0.0,0.0,0.0,0.0,0.0,0.0,0.0,0.0,0.0,0.0,0.0,0.0,0.0,0.0,0.0,0.0,0.0,0.0,0.0,0.0,0.0,0.0,0.0,0.0,0.0,0.0,0.0,0.0,0.0,0.0,0.0,0.0,0.0,0.0,0.0,0.0,0.0,0.0,0.0,0.0,0.0,0.0,0.0,0.0,0.0,0.0,0.0,0.0,0.0,0.0,0.0,0.0,0.0,0.0,0.0,0.0,0.0,0.0,0.0,0.0,0.0,0.0,0.0,0.0,0.0,0.0,0.0,0.0,0.0,0.0,0.0,0.0,0.0,0.0,0.0,0.0,0.0,0.0,0.0,0.0,0.0,0.0,0.0,0.0,0.0,0.0,0.0,0.0,0.0,0.0,0.0,0.0,0.0,0.0,0.0,0.0,0.0,0.0,0.0,0.0,0.0,0.0,0.0,0.0,0.0,0.0,0.0,0.0,0.0,0.0,0.0,0.0,0.0,0.0,0.0,0.0,0.0,0.0,0.0,0.0,0.0,0.0,0.0,0.0,0.0,0.0,0.0,0.0,0.0,0.0,0.0,0.0,0.0,0.0,0.0,0.0,0.0,0.0,0.0,0.0,0.0,0.0,0.0,0.0,0.0,0.0,0.0,0.0,0.0,0.0,0.0,0.0,0.0,0.0,0.0,0.0,0.0,0.0,0.0,0.0,0.0,0.0,0.0,0.0,0.0,0.0,0.0,0.0,0.0,0.0,0.0,0.0,0.0,0.0,0.0,0.0,0.0,0.0,0.0,0.0,0.0,0.0,0.0,0.0,0.0,0.0,0.0,0.0,0.0,0.0,0.0,0.0,0.0,0.0,0.0,0.0,0.0,0.0,0.0,0.0,0.0,0.0,0.0,0.0,0.0,0.0,0.0,0.0,0.0,0.0,0.0,0.0,0.0,0.0,0.0,0.0,0.0,0.0,0.0,0.0,0.0,0.0,0.0,0.0,0.0,0.0,0.0,0.0,0.0,0.0,0.0,0.0,0.0,0.0,0.0,0.0,0.0,0.0,0.0,0.0,0.0,0.0,0.0,0.0,0.0,0.0,0.0,0.0,0.0,0.0,0.0,0.0,0.0,0.0,0.0,0.0,0.0,0.0,0.0,0.0,0.0,0.0,0.0,0.0,0.0,0.0,0.0,0.0,0.0,0.0,0.0,0.0,0.0,0.0,0.0,0.0,0.0,0.0,0.0,0.0,0.0,0.0,0.0,0.0,0.0,0.0,0.0,0.0,0.0,0.0,0.0,0.0,0.0,0.0,0.0,0.0,0.0,0.0,0.0,0.0,0.0,0.0,0.0,0.0,0.0,0.0,0.0,0.0,0.0,0.0,0.0,0.0,0.0,0.0,0.0,0.0,0.0,0.0,0.0,0.0,0.0,0.0,0.0,0.0,0.0,0.0,0.0,0.0,0.0,0.0,0.0,0.0,0.0,0.0,0.0,0.0,0.0,0.0,0.0,0.0,0.0,0.0,0.0,0.0,0.0,0.0,0.0,0.0,0.0,0.0,0.0,0.0,0.0,0.0,0.0,0.0,0.0,0.0,0.0,0.0,0.0,0.0,0.0,0.0,0.0,0.0,0.0,0.0,0.0,0.0,0.0,0.0,0.0,0.0,0.0,0.0,0.0,0.0,0.0,0.0,0.0,0.0,0.0,0.0,0.0,0.0,0.0,0.0,0.0,0.0,0.0,0.0,0.0,0.0,0.0,0.0,0.0,0.0,0.0,0.0,0.0,0.0,0.0,0.0,0.0,0.0,0.0,0.0,0.0,0.0,0.0,0.0,0.0,0.0,0.0,0.0,0.0,0.0,0.0,0.0,0.0,0.0,0.0,0.0,0.0,0.0,0.0,0.0,0.0,0.0,0.0,0.0,0.0,0.0,0.0,0.0,0.0,0.0,0.0,0.0,0.0,0.0,0.0,0.0,0.0,0.0,0.0,0.0,0.0,0.0,0.0,0.0,0.0,0.0,0.0,0.0,0.0,0.0,0.0,0.0,0.0,0.0,0.0,0.0,0.0,0.0,0.0,0.0,0.0,0.0,0.0,0.0,0.0,0.0,0.0,0.0,0.0,0.0,0.0,0.0,0.0,0.0,0.0,0.0,0.0,0.0,0.0,0.0,0.0,0.0,0.0,0.0,0.0,0.0,0.0,0.0,0.0,0.0,0.0,0.0,0.0,0.0,0.0,0.0,0.0,0.0,0.0,0.0,0.0,0.0,0.0,0.0,0.0,0.0,0.0,0.0,0.0,0.0,0.0,0.0,0.0,0.0,0.0,0.0,0.0,0.0,0.0,0.0,0.0,0.0,0.0,0.0,0.0,0.0,0.0,0.0,0.0,0.0,0.0,0.0,0.0,0.0,0.0,0.0,0.0,0.0,0.0,0.0,0.0,0.0,0.0,0.0,0.0,0.0,0.0,0.0,0.0,0.0,0.0,0.0,0.0,0.0,0.0,0.0,0.0,0.0,0.0,0.0,0.0,0.0,0.0,0.0,0.0,0.0,0.0,0.0,0.0,0.0,0.0,0.0,0.0,0.0,0.0,0.0,0.0,0.0,0.0,0.0,0.0,0.0,0.0,0.0,0.0,0.0,-1.2991,0.0,0.0,0.0,0.0,0.0,0.0,0.0,0.0,0.0,0.0,0.0,0.0,0.0,0.0,0.0,0.0,0.0,0.0,0.0,0.0,0.0,0.0,0.0,0.0,0.0,0.0,0.0,0.0,0.0,0.0,0.0,0.0,0.0,0.0,0.0,0.0,0.0,0.0,0.0,0.0,0.0,0.0,0.0,0.0,0.0,0.0,0.0,0.0,0.0,0.0,0.0,0.0,0.0,0.0,0.0,0.0,0.0,0.0,0.0,0.0,0.0,0.0,0.0,0.0,0.0,0.0,0.0,0.0,0.0,0.0,0.0,0.0,0.0,0.0,0.0,0.0,0.0,0.0,0.0,0.0,0.0,0.0,0.0,0.0,0.0,0.0,0.0,0.0,0.0,0.0,0.0,0.0,0.0,0.0,0.0,0.0,0.0,0.0,0.0,0.0,0.0,0.0,0.0,0.0,0.0,0.0,0.0,0.0,0.0,0.0,-0.8641,-0.8458,-1.1224,-1.2522,-1.2068,0.0,0.0,0.0,0.0,0.0,0.0,0.0,0.0,0.0,0.0,0.0,0.0,0.0,0.0,0.0,0.0,0.0,0.0,0.0,0.0,0.0,0.0,0.0,0.0,0.0,0.0,0.0,0.0,0.0,0.0,0.0,0.0,0.0,0.0,0.0,0.0,0.0,0.0,0.0,0.0,0.0,0.0,0.0,0.0,0.0,0.0,0.0,0.0,0.0,0.0,0.0,0.0,0.0,0.0,0.0,0.0,0.0,0.0,0.0,0.0,0.0,0.0,0.0,0.0,0.0,0.0,0.0,0.0,0.0,0.0,0.0,0.0,0.0,0.0,0.0,0.0,0.0,0.0,0.0,0.0,0.0,0.0,0.0,0.0,0.0,0.0,0.0,0.0,0.0,0.0,0.0,0.0,0.0,0.0,0.0,0.0,0.0,0.0,0.0,0.0,0.0,0.0,0.0,0.0,0.0,0.0,0.0,0.0,0.0,0.0,0.0,0.0,-0.9484,-1.1295,-1.1578,0.0,0.0,0.0,0.0,0.0,0.0,0.0,0.0,0.0,0.0,0.0,0.0,0.0,0.0,0.0,0.0,0.0,0.0,0.0,0.0,0.0,0.0,0.0,0.0,0.0,0.0,0.0,0.0,0.0,0.0,0.0,0.0,0.0,0.0,0.0,0.0,0.0,0.0,0.0,0.0,0.0,0.0,0.0,0.0,0.0,0.0,0.0,0.0,0.0,0.0,0.0,0.0,0.0,0.0,0.0,0.0,0.0,0.0,0.0,0.0,0.0,0.0,0.0,0.0,0.0,0.0,0.0,0.0,0.0,0.0,0.0,0.0,0.0,0.0,0.0,0.0,0.0,0.0,0.0,0.0,0.0,0.0,0.0,0.0,0.0,0.0,0.0,0.0,0.0,0.0,0.0,0.0,0.0,0.0,0.0,0.0,0.0,0.0,0.0,0.0,0.0,0.0,0.0,0.0,0.0,0.0,0.0,0.0,0.0,0.0,-0.4464,-0.6179,-0.7223,0.0,-1.1766,0.0,0.0,0.0,0.0,0.0,0.0,0.0,0.0,0.0,0.0,0.0,0.0,0.0,0.0,0.0,0.0,0.0,0.0,0.0,0.0,0.0,0.0,0.0,0.0,0.0,0.0,0.0,0.0,0.0,0.0,0.0,0.0,0.0,0.0,0.0,0.0,0.0,0.0,0.0,0.0,0.0,0.0,0.0,0.0,0.0,0.0,0.0,0.0,0.0,0.0,0.0,0.0,0.0,0.0,0.0,0.0,0.0,0.0,0.0,0.0,0.0,0.0,0.0,0.0,0.0,0.0,0.0,0.0,0.0,0.0,0.0,0.0,0.0,0.0,0.0,0.0,0.0,0.0,0.0,0.0,0.0,0.0,0.0,0.0,0.0,0.0,0.0,0.0,0.0,0.0,0.0,0.0,0.0,0.0,0.0,0.0,0.0,0.0,0.0,0.0,0.0,0.0,0.0,0.0,0.0,0.0,0.0,0.0,0.0,0.0,-0.3312,-0.5132,-0.7682,-0.9662,0.0,0.0,0.0,0.0,0.0,0.0,0.0,0.0,0.0,0.0,0.0,0.0,0.0,0.0,0.0,0.0,0.0,0.0,0.0,0.0,0.0,0.0,0.0,0.0,0.0,0.0,0.0,0.0,0.0,0.0,0.0,0.0,0.0,0.0,0.0,0.0,0.0,0.0,0.0,0.0,0.0,0.0,0.0,0.0,0.0,0.0,0.0,0.0,0.0,0.0,0.0,0.0,0.0,0.0,0.0,0.0,0.0,0.0,0.0,0.0,0.0,0.0,0.0,0.0,0.0,0.0,0.0,0.0,0.0,0.0,0.0,0.0,0.0,0.0,0.0,0.0,0.0,0.0,0.0,0.0,0.0,0.0,0.0,0.0,0.0,0.0,0.0,0.0,0.0,0.0,0.0,0.0,0.0,0.0,0.0,0.0,0.0,0.0,0.0,0.0,0.0,0.0,0.0,0.0,0.0,0.0,0.0,0.0,0.0,0.0,-0.0869,-0.2258,-0.4359,-0.7664,-0.9648,-1.0088,0.0,0.0,0.0,0.0,0.0,0.0,0.0,0.0,0.0,0.0,0.0,0.0,0.0,0.0,0.0,0.0,0.0,0.0,0.0,0.0,0.0,0.0,0.0,0.0,0.0,0.0,0.0,0.0,0.0,0.0,0.0,0.0,0.0,0.0,0.0,0.0,0.0,0.0,0.0,0.0,0.0,0.0,0.0,0.0,0.0,0.0,0.0,0.0,0.0,0.0,0.0,0.0,0.0,0.0,0.0,0.0,0.0,0.0,0.0,0.0,0.0,0.0,0.0,0.0,0.0,0.0,0.0,0.0,0.0,0.0,0.0,0.0,0.0,0.0,0.0,0.0,0.0,0.0,0.0,0.0,0.0,0.0,0.0,0.0,0.0,0.0,0.0,0.0,0.0,0.0,0.0,0.0,0.0,0.0,0.0,0.0,0.0,0.0,0.0,0.0,0.0,0.0,0.0,0.0,0.0,0.0,0.0,0.0,-0.0101,-0.0094,-0.1396,-0.3988,-0.6368,-0.815,0.0,0.0,0.0,0.0,0.0,0.0,0.0,0.0,0.0,0.0,0.0,0.0,0.0,0.0,0.0,0.0,0.0,0.0,0.0,0.0,0.0,0.0,0.0,0.0,0.0,0.0,0.0,0.0,0.0,0.0,0.0,0.0,0.0,0.0,0.0,0.0,0.0,0.0,0.0,0.0,0.0,0.0,0.0,0.0,0.0,0.0,0.0,0.0,0.0,0.0,0.0,0.0,0.0,0.0,0.0,0.0,0.0,0.0,0.0,0.0,0.0,0.0,0.0,0.0,0.0,0.0,0.0,0.0,0.0,0.0,0.0,0.0,0.0,0.0,0.0,0.0,0.0,0.0,0.0,0.0,0.0,0.0,0.0,0.0,0.0,0.0,0.0,0.0,0.0,0.0,0.0,0.0,0.0,0.0,0.0,0.0,0.0,0.0,0.0,0.0,0.0,0.0,0.0,0.0,0.0,0.0,0.0,0.0,0.0,-0.0178,-0.1857,-0.3303,-0.4378,-0.7037,-0.8849,0.0,0.0,0.0,0.0,0.0,0.0,0.0,0.0,0.0,0.0,0.0,0.0,0.0,0.0,0.0,0.0,0.0,0.0,0.0,0.0,0.0,0.0,0.0,0.0,0.0,0.0,0.0,0.0,0.0,0.0,0.0,0.0,0.0,0.0,0.0,0.0,0.0,0.0,0.0,0.0,0.0,0.0,0.0,0.0,0.0,0.0,0.0,0.0,0.0,0.0,0.0,0.0,0.0,0.0,0.0,0.0,0.0,0.0,0.0,0.0,0.0,0.0,0.0,0.0,0.0,0.0,0.0,0.0,0.0,0.0,0.0,0.0,0.0,0.0,0.0,0.0,0.0,0.0,0.0,0.0,0.0,0.0,0.0,0.0,0.0,0.0,0.0,0.0,0.0,0.0,0.0,0.0,0.0,0.0,0.0,0.0,0.0,0.0,0.0,0.0,0.0,0.0,0.0,0.0,0.0,0.0,0.0,0.0,0.0,-0.0174,0.0,-0.3864,-0.4187,-0.6662,-0.844,0.0,0.0,0.0,0.0,0.0,0.0,0.0,0.0,0.0,0.0,0.0,0.0,0.0,0.0,0.0,0.0,0.0,0.0,0.0,0.0,0.0,0.0,0.0,0.0,0.0,0.0,0.0,0.0,0.0,0.0,0.0,0.0,0.0,0.0,0.0,0.0,0.0,0.0,0.0,0.0,0.0,0.0,0.0,0.0,0.0,0.0,0.0,0.0,0.0,0.0,0.0,0.0,0.0,0.0,0.0,0.0,0.0,0.0,0.0,0.0,0.0,0.0,0.0,0.0,0.0,0.0,0.0,0.0,0.0,0.0,0.0,0.0,0.0,0.0,0.0,0.0,0.0,0.0,0.0,0.0,0.0,0.0,0.0,0.0,0.0,0.0,0.0,0.0,0.0,0.0,0.0,0.0,0.0,0.0,0.0,0.0,0.0,0.0,0.0,0.0,0.0,0.0,0.0,0.0,0.0,0.0,0.0,0.0,-0.0871,-0.0146,-0.1518,-0.2752,-0.3377,-0.5078,-0.6768,0.0,0.0,0.0,0.0,0.0,0.0,0.0,0.0,0.0,0.0,0.0,0.0,0.0,0.0,0.0,0.0,0.0,0.0,0.0,0.0,0.0,0.0,0.0,0.0,0.0,0.0,0.0,0.0,0.0,0.0,0.0,0.0,0.0,0.0,0.0,0.0,0.0,0.0,0.0,0.0,0.0,0.0,0.0,0.0,0.0,0.0,0.0,0.0,0.0,0.0,0.0,0.0,0.0,0.0,0.0,0.0,0.0,0.0,0.0,0.0,0.0,0.0,0.0,0.0,0.0,0.0,0.0,0.0,0.0,0.0,0.0,0.0,0.0,0.0,0.0,0.0,0.0,0.0,0.0,0.0,0.0,0.0,0.0,0.0,0.0,0.0,0.0,0.0,0.0,0.0,0.0,0.0,0.0,0.0,0.0,0.0,0.0,0.0,0.0,0.0,0.0,0.0,0.0,0.0,0.0,0.0,0.0,0.0,0.0,-0.1399,-0.2631,-0.4114,-0.5707,-0.6278,-0.7548,0.0,0.0,0.0,0.0,0.0,0.0,0.0,0.0,0.0,0.0,0.0,0.0,0.0,0.0,0.0,0.0,0.0,0.0,0.0,0.0,0.0,0.0,0.0,0.0,0.0,0.0,0.0,0.0,0.0,0.0,0.0,0.0,0.0,0.0,0.0,0.0,0.0,0.0,0.0,0.0,0.0,0.0,0.0,0.0,0.0,0.0,0.0,0.0,0.0,0.0,0.0,0.0,0.0,0.0,0.0,0.0,0.0,0.0,0.0,0.0,0.0,0.0,0.0,0.0,0.0,0.0,0.0,0.0,0.0,0.0,0.0,0.0,0.0,0.0,0.0,0.0,0.0,0.0,0.0,0.0,0.0,0.0,0.0,0.0,0.0,0.0,0.0,0.0,0.0,0.0,0.0,0.0,0.0,0.0,0.0,0.0,0.0,0.0,0.0,0.0,0.0,0.0,0.0,0.0,0.0,0.0,0.0,0.0,0.0,-0.1961,-0.3335,-0.4604,-0.5711,-0.665,-0.8037,-0.987,0.0,0.0,0.0,0.0,0.0,0.0,0.0,0.0,0.0,0.0,0.0,0.0,0.0,0.0,0.0,0.0,0.0,0.0,0.0,0.0,0.0,0.0,0.0,0.0,0.0,0.0,0.0,0.0,0.0,0.0,0.0,0.0,0.0,0.0,0.0,0.0,0.0,0.0,0.0,0.0,0.0,0.0,0.0,0.0,0.0,0.0,0.0,0.0,0.0,0.0,0.0,0.0,0.0,0.0,0.0,0.0,0.0,0.0,0.0,0.0,0.0,0.0,0.0,0.0,0.0,0.0,0.0,0.0,0.0,0.0,0.0,0.0,0.0,0.0,0.0,0.0,0.0,0.0,0.0,0.0,0.0,0.0,0.0,0.0,0.0,0.0,0.0,0.0,0.0,0.0,0.0,0.0,0.0,0.0,0.0,0.0,0.0,0.0,0.0,0.0,0.0,0.0,0.0,0.0,0.0,0.0,0.0,0.0,-0.1861,-0.3575,-0.4348,-0.4065,-0.6336,-0.823,0.0,0.0,0.0,0.0,0.0,0.0,0.0,0.0,0.0,0.0,0.0,0.0,0.0,0.0,0.0,0.0,0.0,0.0,0.0,0.0,0.0,0.0,0.0,0.0,0.0,0.0,0.0,0.0,0.0,0.0,0.0,0.0,0.0,0.0,0.0,0.0,0.0,0.0,0.0,0.0,0.0,0.0,0.0,0.0,0.0,0.0,0.0,0.0,0.0,0.0,0.0,0.0,0.0,0.0,0.0,0.0,0.0,0.0,0.0,0.0,0.0,0.0,0.0,0.0,0.0,0.0,0.0,0.0,0.0,0.0,0.0,0.0,0.0,0.0,0.0,0.0,0.0,0.0,0.0,0.0,0.0,0.0,0.0,0.0,0.0,0.0,0.0,0.0,0.0,0.0,0.0,0.0,0.0,0.0,0.0,0.0,0.0,0.0,0.0,0.0,0.0,0.0,0.0,0.0,0.0,0.0,0.0,0.0,0.0,-0.0601,-0.3123,-0.4937,-0.5943,-0.7089,-0.8511,0.0,0.0,0.0,0.0,0.0,0.0,0.0,0.0,0.0,0.0,0.0,0.0,0.0,0.0,0.0,0.0,0.0,0.0,0.0,0.0,0.0,0.0,0.0,0.0,0.0,0.0,0.0,0.0,0.0,0.0,0.0,0.0,0.0,0.0,0.0,0.0,0.0,0.0,0.0,0.0,0.0,0.0,0.0,0.0,0.0,0.0,0.0,0.0,0.0,0.0,0.0,0.0,0.0,0.0,0.0,0.0,0.0,0.0,0.0,0.0,0.0,0.0,0.0,0.0,0.0,0.0,0.0,0.0,0.0,0.0,0.0,0.0,0.0,0.0,0.0,0.0,0.0,0.0,0.0,0.0,0.0,0.0,0.0,0.0,0.0,0.0,0.0,0.0,0.0,0.0,0.0,0.0,0.0,0.0,0.0,0.0,0.0,0.0,0.0,0.0,0.0,0.0,0.0,0.0,0.0,0.0,0.0,0.0,-0.0289,-0.0866,-0.3271,-0.5218,-0.6618,-0.7586,-0.8818,0.0,0.0,0.0,0.0,0.0,0.0,0.0,0.0,0.0,0.0,0.0,0.0,0.0,0.0,0.0,0.0,0.0,0.0,0.0,0.0,0.0,0.0,0.0,0.0,0.0,0.0,0.0,0.0,0.0,0.0,0.0,0.0,0.0,0.0,0.0,0.0,0.0,0.0,0.0,0.0,0.0,0.0,0.0,0.0,0.0,0.0,0.0,0.0,0.0,0.0,0.0,0.0,0.0,0.0,0.0,0.0,0.0,0.0,0.0,0.0,0.0,0.0,0.0,0.0,0.0,0.0,0.0,0.0,0.0,0.0,0.0,0.0,0.0,0.0,0.0,0.0,0.0,0.0,0.0,0.0,0.0,0.0,0.0,0.0,0.0,0.0,0.0,0.0,0.0,0.0,0.0,0.0,0.0,0.0,0.0,0.0,0.0,0.0,0.0,0.0,0.0,0.0,0.0,0.0,0.0,0.0,0.0,0.0,-0.0636,-0.1959,-0.3736,-0.5271,-0.6436,-0.7814,-0.913,0.0,0.0,0.0,0.0,0.0,0.0,0.0,0.0,0.0,0.0,0.0,0.0,0.0,0.0,0.0,0.0,0.0,0.0,0.0,0.0,0.0,0.0,0.0,0.0,0.0,0.0,0.0,0.0,0.0,0.0,0.0,0.0,0.0,0.0,0.0,0.0,0.0,0.0,0.0,0.0,0.0,0.0,0.0,0.0,0.0,0.0,0.0,0.0,0.0,0.0,0.0,0.0,0.0,0.0,0.0,0.0,0.0,0.0,0.0,0.0,0.0,0.0,0.0,0.0,0.0,0.0,0.0,0.0,0.0,0.0,0.0,0.0,0.0,0.0,0.0,0.0,0.0,0.0,0.0,0.0,0.0,0.0,0.0,0.0,0.0,0.0,0.0,0.0,0.0,0.0,0.0,0.0,0.0,0.0,0.0,0.0,0.0,0.0,0.0,0.0,0.0,0.0,0.0,0.0,0.0,0.0,0.0,0.0,-0.0632,-0.1973,-0.3523,-0.4933,-0.6323,-0.7768,-0.9136,0.0,0.0,0.0,0.0,0.0,0.0,0.0,0.0,0.0,0.0,0.0,0.0,0.0,0.0,0.0,0.0,0.0,0.0,0.0,0.0,0.0,0.0,0.0,0.0,0.0,0.0,0.0,0.0,0.0,0.0,0.0,0.0,0.0,0.0,0.0,0.0,0.0,0.0,0.0,0.0,0.0,0.0,0.0,0.0,0.0,0.0,0.0,0.0,-1.5445,0.0,0.0,0.0,0.0,0.0,0.0,0.0,0.0,0.0,0.0,0.0,0.0,0.0,0.0,0.0,0.0,0.0,0.0,0.0,0.0,0.0,0.0,0.0,0.0,0.0,0.0,0.0,0.0,0.0,0.0,0.0,0.0,0.0,0.0,0.0,0.0,0.0,0.0,0.0,0.0,0.0,0.0,0.0,0.0,0.0,0.0,0.0,0.0,0.0,0.0,0.0,0.0,0.0,0.0,0.0,0.0,0.0,0.0,0.0,-0.1907,-0.3819,-0.4749,-0.5863,-0.7174,-0.8567,-0.9673,0.0,0.0,0.0,0.0,0.0,0.0,0.0,0.0,0.0,0.0,0.0,0.0,0.0,0.0,0.0,0.0,0.0,0.0,0.0,0.0,0.0,0.0,0.0,0.0,0.0,0.0,0.0,0.0,0.0,0.0,0.0,0.0,0.0,0.0,0.0,0.0,0.0,0.0,0.0,0.0,0.0,0.0,0.0,0.0,0.0,0.0,0.0,0.0,0.0,0.0,0.0,0.0,0.0,0.0,0.0,0.0,0.0,0.0,0.0,0.0,0.0,0.0,0.0,0.0,0.0,0.0,0.0,0.0,0.0,0.0,0.0,0.0,0.0,0.0,0.0,0.0,0.0,0.0,0.0,0.0,0.0,0.0,0.0,0.0,0.0,0.0,0.0,0.0,0.0,0.0,0.0,0.0,0.0,0.0,0.0,0.0,0.0,0.0,0.0,0.0,0.0,0.0,0.0,0.0,0.0,0.0,0.0,-0.2697,-0.3427,-0.5849,-0.6159,-0.6879,-0.8201,-0.9664,-1.0453,-1.0448,0.0,0.0,0.0,0.0,0.0,0.0,0.0,0.0,0.0,0.0,0.0,0.0,0.0,0.0,0.0,0.0,0.0,0.0,0.0,0.0,0.0,0.0,0.0,0.0,0.0,0.0,0.0,0.0,0.0,0.0,0.0,0.0,0.0,0.0,0.0,0.0,0.0,0.0,-0.9426,-0.9052,0.0,0.0,0.0,0.0,0.0,0.0,0.0,0.0,-1.7541,0.0,0.0,0.0,0.0,0.0,0.0,0.0,0.0,0.0,0.0,0.0,0.0,0.0,0.0,0.0,0.0,0.0,0.0,0.0,0.0,0.0,0.0,0.0,0.0,0.0,0.0,0.0,0.0,0.0,0.0,0.0,0.0,0.0,0.0,0.0,0.0,0.0,0.0,0.0,0.0,0.0,0.0,0.0,0.0,0.0,0.0,0.0,0.0,0.0,0.0,0.0,0.0,0.0,0.0,0.0,0.0,-0.3611,-0.3407,-0.4165,-0.5784,-0.5996,-0.6661,-0.7896,-1.0298,-1.1204,-1.0416,0.0,0.0,0.0,0.0,0.0,0.0,0.0,0.0,0.0,0.0,0.0,0.0,0.0,0.0,0.0,0.0,0.0,0.0,0.0,0.0,0.0,0.0,0.0,0.0,0.0,0.0,0.0,0.0,0.0,0.0,0.0,0.0,0.0,0.0,0.0,0.0,0.0,0.0,0.0,-1.2428,-1.2674,0.0,0.0,0.0,0.0,0.0,0.0,0.0,0.0,-1.8025,0.0,0.0,0.0,0.0,0.0,0.0,0.0,0.0,0.0,0.0,0.0,0.0,0.0,0.0,0.0,0.0,0.0,0.0,0.0,0.0,0.0,0.0,0.0,0.0,0.0,0.0,0.0,0.0,0.0,0.0,0.0,0.0,0.0,0.0,0.0,0.0,0.0,0.0,0.0,0.0,0.0,0.0,0.0,0.0,0.0,0.0,0.0,0.0,0.0,0.0,0.0,0.0,0.0,0.0,0.0,-0.6067,-0.5126,-0.5331,-0.6685,-0.6801,-0.7093,-0.7699,-1.0084,-1.094,0.0,0.0,0.0,0.0,0.0,0.0,0.0,0.0,0.0,0.0,0.0,0.0,0.0,0.0,0.0,0.0,0.0,0.0,0.0,0.0,0.0,0.0,0.0,0.0,0.0,0.0,0.0,0.0,0.0,0.0,0.0,0.0,0.0,0.0,0.0,0.0,0.0,0.0,0.0,0.0,-1.2951,-1.3395,-1.3357,0.0,0.0,0.0,0.0,0.0,0.0,-1.7676,-1.8145,0.0,0.0,0.0,0.0,0.0,0.0,0.0,0.0,0.0,0.0,0.0,0.0,0.0,0.0,0.0,0.0,0.0,0.0,0.0,0.0,0.0,0.0,0.0,0.0,0.0,0.0,0.0,0.0,0.0,0.0,0.0,0.0,0.0,0.0,0.0,0.0,0.0,0.0,0.0,0.0,0.0,0.0,0.0,0.0,0.0,0.0,0.0,0.0,0.0,0.0,0.0,0.0,0.0,0.0,0.0,-0.8261,-0.6947,-0.6799,-0.7873,-0.7951,-0.8045,-0.8242,-0.9958,-1.068,0.0,0.0,0.0,0.0,0.0,0.0,0.0,0.0,0.0,0.0,0.0,0.0,0.0,0.0,0.0,0.0,0.0,0.0,0.0,0.0,0.0,0.0,0.0,0.0,0.0,0.0,0.0,0.0,0.0,0.0,0.0,0.0,0.0,0.0,0.0,0.0,0.0,0.0,0.0,0.0,0.0,-1.4288,-1.4418,-1.5419,0.0,0.0,0.0,0.0,-1.6867,-1.7966,0.0,0.0,0.0,0.0,0.0,0.0,0.0,0.0,0.0,0.0,0.0,0.0,0.0,0.0,0.0,0.0,0.0,0.0,0.0,0.0,0.0,0.0,0.0,0.0,0.0,0.0,0.0,0.0,0.0,0.0,0.0,0.0,0.0,0.0,0.0,0.0,0.0,0.0,0.0,0.0,0.0,0.0,0.0,0.0,0.0,0.0,0.0,0.0,0.0,0.0,0.0,0.0,0.0,0.0,0.0,0.0,-0.8057,-0.8355,-0.8674,-0.8919,-0.9029,-0.9543,-1.0417,-1.097,-1.1201,0.0,0.0,0.0,0.0,0.0,0.0,0.0,0.0,0.0,0.0,0.0,0.0,0.0,0.0,0.0,0.0,0.0,0.0,0.0,0.0,0.0,0.0,0.0,0.0,0.0,0.0,0.0,0.0,0.0,0.0,0.0,0.0,0.0,0.0,0.0,0.0,0.0,0.0,0.0,0.0,0.0,-1.8196,-1.6938,-1.7324,-1.7548,0.0,0.0,0.0,-1.7402,-1.8964,0.0,0.0,0.0,0.0,0.0,0.0,0.0,0.0,0.0,0.0,0.0,0.0,0.0,0.0,0.0,0.0,0.0,0.0,0.0,0.0,0.0,0.0,0.0,0.0,0.0,0.0,0.0,0.0,0.0,0.0,0.0,0.0,0.0,0.0,0.0,0.0,0.0,0.0,0.0,0.0,0.0,0.0,0.0,0.0,0.0,0.0,0.0,0.0,0.0,0.0,0.0,0.0,0.0,0.0,0.0,-0.9515,-0.9706,-0.966,-0.9666,-0.9746,-0.9795,-0.9913,-1.0177,-1.0816,-1.1042,0.0,0.0,0.0,0.0,0.0,0.0,0.0,0.0,0.0,0.0,0.0,0.0,0.0,0.0,0.0,0.0,0.0,0.0,0.0,0.0,0.0,0.0,0.0,0.0,0.0,0.0,0.0,0.0,0.0,0.0,0.0,0.0,0.0,0.0,0.0,0.0,0.0,0.0,0.0,0.0,0.0,0.0,-1.7609,-1.8023,0.0,0.0,0.0,-1.7295,-1.7542,0.0,0.0,0.0,0.0,0.0,0.0,0.0,0.0,0.0,0.0,0.0,0.0,0.0,0.0,0.0,0.0,0.0,0.0,0.0,0.0,0.0,0.0,0.0,0.0,0.0,0.0,0.0,0.0,0.0,0.0,0.0,0.0,0.0,0.0,0.0,0.0,0.0,0.0,0.0,0.0,0.0,0.0,0.0,0.0,0.0,0.0,0.0,0.0,0.0,0.0,0.0,0.0,0.0,0.0,0.0,0.0,0.0,-1.0977,-1.0695,-1.0559,-1.0611,-1.0564,-1.0532,-1.0565,-1.0943,0.0,0.0,0.0,0.0,0.0,0.0,0.0,0.0,0.0,0.0,0.0,0.0,0.0,0.0,0.0,0.0,0.0,0.0,0.0,0.0,0.0,0.0,0.0,0.0,0.0,0.0,0.0,-1.8666,0.0,0.0,0.0,0.0,0.0,0.0,0.0,0.0,0.0,0.0,0.0,0.0,0.0,0.0,-1.6775,-1.7802,-1.831,-1.8597,0.0,0.0,-1.7695,-1.7702,-1.7822,-1.7515,0.0,0.0,0.0,0.0,0.0,0.0,0.0,0.0,0.0,0.0,0.0,0.0,0.0,0.0,0.0,0.0,0.0,0.0,0.0,0.0,0.0,0.0,0.0,0.0,0.0,0.0,0.0,0.0,0.0,0.0,0.0,0.0,0.0,0.0,0.0,0.0,0.0,0.0,0.0,0.0,0.0,0.0,0.0,0.0,0.0,0.0,0.0,0.0,0.0,0.0,0.0,0.0,0.0,0.0,0.0,-1.101,-1.1288,-1.1543,-1.1763,-1.1549,-1.1914,-1.2883,-1.1997,-1.1575,0.0,0.0,0.0,0.0,0.0,0.0,0.0,0.0,0.0,0.0,0.0,0.0,0.0,0.0,0.0,0.0,0.0,0.0,0.0,0.0,0.0,0.0,0.0,0.0,0.0,0.0,0.0,0.0,0.0,0.0,0.0,0.0,0.0,0.0,0.0,0.0,0.0,0.0,0.0,0.0,0.0,-1.7809,-1.7649,-1.835,-1.8835,0.0,0.0,-1.7962,-1.7962,-1.8415,-1.8156,-1.6179,0.0,0.0,0.0,0.0,0.0,0.0,0.0,0.0,0.0,0.0,0.0,0.0,0.0,0.0,0.0,0.0,0.0,0.0,0.0,0.0,0.0,0.0,0.0,0.0,0.0,0.0,0.0,0.0,0.0,0.0,0.0,0.0,0.0,0.0,0.0,0.0,0.0,0.0,0.0,0.0,0.0,0.0,0.0,0.0,0.0,0.0,0.0,0.0,0.0,0.0,0.0,0.0,0.0,-1.201,-1.1568,-1.205,-1.2369,-1.2425,-1.2375,-1.2479,-1.2926,-1.235,-1.1982,0.0,0.0,0.0,0.0,0.0,0.0,0.0,0.0,0.0,0.0,0.0,0.0,0.0,0.0,0.0,0.0,0.0,0.0,0.0,0.0,0.0,0.0,0.0,0.0,0.0,0.0,0.0,0.0,-1.8154,-1.789,-1.7192,0.0,0.0,0.0,0.0,0.0,0.0,0.0,0.0,0.0,0.0,-1.7211,-1.8624,-1.8727,0.0,0.0,-1.9198,-1.8204,-1.9358,-1.8616,-1.7495,-1.652,-1.5409,0.0,0.0,0.0,0.0,0.0,0.0,0.0,0.0,0.0,0.0,0.0,0.0,0.0,0.0,0.0,0.0,0.0,0.0,0.0,0.0,0.0,0.0,0.0,0.0,0.0,0.0,0.0,0.0,0.0,0.0,0.0,0.0,0.0,0.0,0.0,0.0,0.0,0.0,0.0,0.0,0.0,0.0,0.0,0.0,0.0,0.0,0.0,0.0,0.0,0.0,0.0,0.0,-1.276,-1.2161,-1.2489,-1.2697,-1.2784,-1.2697,-1.265,-1.265,-1.2412,-1.2164,0.0,0.0,0.0,0.0,0.0,0.0,0.0,0.0,0.0,0.0,0.0,0.0,0.0,0.0,0.0,0.0,0.0,0.0,0.0,0.0,0.0,0.0,0.0,0.0,0.0,0.0,0.0,0.0,-1.849,-1.8043,-1.7132,0.0,0.0,0.0,0.0,0.0,0.0,0.0,0.0,0.0,0.0,-1.7674,-1.9449,-1.9609,-2.017,-2.2062,-1.9904,-1.8468,-1.9833,-1.8418,-1.7038,-1.652,0.0,0.0,0.0,0.0,0.0,0.0,0.0,0.0,0.0,0.0,0.0,0.0,0.0,0.0,0.0,0.0,0.0,0.0,0.0,0.0,0.0,0.0,0.0,0.0,0.0,0.0,0.0,0.0,0.0,0.0,0.0,0.0,0.0,0.0,0.0,0.0,0.0,0.0,0.0,0.0,0.0,0.0,0.0,0.0,0.0,0.0,0.0,0.0,0.0,0.0,0.0,0.0,0.0,0.0,-1.2768,-1.2482,-1.2458,-1.2757,-1.2496,-1.2325,-1.2331,-1.2311,-1.2201,-1.1942,0.0,0.0,0.0,0.0,0.0,0.0,0.0,0.0,0.0,0.0,0.0,0.0,0.0,0.0,0.0,0.0,0.0,0.0,0.0,0.0,0.0,0.0,0.0,0.0,0.0,0.0,-1.8752,-1.8271,-1.7993,0.0,0.0,0.0,0.0,0.0,0.0,0.0,0.0,0.0,0.0,-1.8117,-1.9688,-2.0091,-2.1055,-2.1804,-2.1952,-2.0295,-1.902,-1.9158,-1.8069,-1.6904,0.0,0.0,0.0,0.0,0.0,0.0,0.0,0.0,0.0,0.0,0.0,0.0,0.0,0.0,0.0,0.0,0.0,0.0,0.0,0.0,0.0,0.0,0.0,0.0,0.0,0.0,0.0,-1.1587,-1.1636,0.0,0.0,0.0,0.0,0.0,0.0,0.0,0.0,0.0,0.0,0.0,-1.3968,-1.4442,0.0,0.0,0.0,0.0,0.0,0.0,0.0,0.0,0.0,0.0,0.0,0.0,-1.3119,-1.3107,-1.2581,-1.2351,-1.2445,-1.2358,-1.2398,-1.263,-1.2405,-1.2605,-1.321,0.0,0.0,0.0,0.0,0.0,0.0,0.0,0.0,0.0,0.0,0.0,0.0,0.0,0.0,0.0,0.0,0.0,0.0,0.0,0.0,0.0,0.0,0.0,0.0,0.0,-2.0153,0.0,0.0,0.0,0.0,0.0,0.0,0.0,0.0,0.0,0.0,0.0,-1.6808,-1.7412,-1.9258,-2.0798,-2.1542,-2.1379,-2.1829,0.0,0.0,0.0,0.0,0.0,0.0,0.0,0.0,0.0,0.0,0.0,0.0,0.0,0.0,-0.8396,-0.7858,-0.7499,-0.7278,-0.7227,0.0,0.0,0.0,0.0,0.0,0.0,0.0,0.0,0.0,0.0,0.0,0.0,0.0,0.0,0.0,0.0,-1.1758,0.0,0.0,0.0,0.0,0.0,0.0,0.0,0.0,-1.4479,-1.4816,-1.4569,-1.5037,-1.4963,0.0,-1.4295,-1.3988,0.0,0.0,0.0,0.0,0.0,0.0,0.0,0.0,-1.2792,-1.2618,-1.232,-1.2098,-1.2004,-1.1997,-1.2091,-1.2315,-1.2204,-1.2671,-1.3696,-1.3631,-1.4249,0.0,0.0,0.0,0.0,0.0,0.0,0.0,0.0,0.0,0.0,0.0,0.0,0.0,0.0,0.0,0.0,0.0,0.0,0.0,0.0,0.0,0.0,0.0,-1.9636,0.0,0.0,0.0,0.0,0.0,0.0,0.0,0.0,0.0,-1.675,-1.7485,-1.8325,-1.8907,-2.0442,-2.1715,-2.231,0.0,0.0,0.0,0.0,0.0,0.0,0.0,-2.1186,-2.1105,-1.9082,-1.7262,-1.6516,-1.3729,-1.1371,-1.0875,0.0,0.0,-0.82,-0.7814,-0.7587,-0.7543,-0.7451,-0.7421,-0.757,-0.7604,-0.7941,0.0,0.0,0.0,0.0,0.0,0.0,0.0,0.0,-0.8972,-0.9442,0.0,-1.0284,0.0,0.0,0.0,0.0,0.0,0.0,0.0,0.0,-1.5251,-1.5658,-1.5411,-1.5651,-1.5498,-1.5048,-1.5197,-1.473,-1.3634,-1.3499,0.0,0.0,0.0,0.0,0.0,0.0,-1.2499,-1.1553,-1.1752,-1.1752,-1.1415,-1.1436,-1.1402,-1.1415,-1.171,-1.2357,-1.3348,-1.3705,-1.4665,-1.641,-1.7191,0.0,0.0,0.0,0.0,0.0,0.0,0.0,0.0,0.0,0.0,0.0,0.0,0.0,0.0,0.0,0.0,0.0,0.0,0.0,0.0,-1.9083,0.0,0.0,0.0,0.0,0.0,0.0,0.0,0.0,0.0,0.0,-1.9756,-1.9695,-1.9853,-2.0525,0.0,0.0,0.0,0.0,-2.3779,-2.3809,-2.3826,-2.3811,-2.3866,-2.3134,-2.2483,-2.2162,0.0,0.0,-1.6285,-1.3987,-1.204,-1.0615,-1.0441,-1.008,-0.9091,-0.8387,-0.8079,-0.8191,-0.7977,-0.7868,-0.7938,-0.7917,-0.8241,-0.4444,0.0,0.0,0.0,0.0,-0.7893,-0.8046,-0.8545,-0.934,-0.9651,-0.9605,-1.0469,0.0,0.0,0.0,0.0,0.0,0.0,-1.4396,-1.4716,-1.5109,-1.5277,-1.5391,-1.5271,-1.5169,-1.5001,-1.4666,-1.4289,-1.3886,-1.253,-1.2482,-1.3667,0.0,0.0,0.0,0.0,-1.187,-1.2403,-1.1847,-1.151,-1.143,-1.143,-1.143,-1.143,-1.151,-1.2142,-1.3371,-1.3508,-1.4462,-1.64,-1.7202,0.0,0.0,0.0,0.0,0.0,0.0,0.0,0.0,0.0,0.0,0.0,0.0,0.0,0.0,0.0,0.0,0.0,0.0,0.0,-2.0007,-1.8901,-1.8996,0.0,0.0,0.0,0.0,0.0,0.0,0.0,0.0,0.0,-2.261,-2.1844,-2.1214,0.0,0.0,-2.325,-2.2955,-2.3133,-2.3437,-2.375,0.0,0.0,0.0,-2.539,-2.5445,-2.4561,-2.217,-1.9798,-1.8025,-1.5582,-1.3756,-1.3263,-1.1609,-1.0145,-0.9756,-0.8867,-0.8228,-0.8113,-0.7946,-0.7831,-0.7865,-0.7875,-0.8442,-0.2841,-0.4334,-0.6189,-0.7021,-0.7134,-0.7632,-0.8007,-0.8221,-0.8916,-0.9056,-0.8859,-0.9563,-0.98,-0.9678,-1.0033,0.0,0.0,0.0,-1.4039,-1.479,-1.4955,-1.5109,-1.5204,-1.493,-1.4723,-1.4596,-1.3747,-1.3409,-1.354,-1.1864,-1.1652,-1.2769,0.0,0.0,-1.2803,-1.1717,-1.1374,-1.1729,-1.1312,-1.1029,-1.0883,-1.1022,-1.1082,-1.1082,-1.1484,-1.2178,-1.3183,-1.3691,-1.4857,-1.6832,-1.7357,-1.8359,0.0,0.0,0.0,0.0,0.0,0.0,0.0,0.0,0.0,0.0,0.0,-2.475,0.0,0.0,0.0,0.0,-1.9721,-1.9565,-2.0052,-1.9829,0.0,0.0,0.0,0.0,0.0,0.0,0.0,-2.4686,-2.4934,-2.4882,-2.4264,-2.3565,-2.2895,-2.2372,-2.3003,-2.3437,-2.313,0.0,-2.3188,-2.3486,-2.5003,-2.6152,-2.6185,-2.7062,-2.7217,-2.5454,-2.3201,-2.0919,-1.9012,-1.693,-1.5257,-1.4037,-1.2495,-1.096,-0.9939,-0.9094,-0.8443,-0.7966,-0.7794,-0.7733,-0.7726,-0.8057,-0.8926,-0.1861,-0.207,-0.4579,-0.5828,-0.6123,-0.735,-0.7905,-0.8008,-0.8008,-0.8008,-0.8008,-0.7995,-0.8355,-0.9013,-0.9899,0.0,-1.2106,-1.2479,-1.3217,-1.4294,-1.4606,-1.4794,-1.4781,-1.4519,-1.4262,-1.3968,-1.2709,-1.2338,-1.2641,-1.136,-1.1082,-1.1728,-1.0764,-1.0484,-1.0962,-1.1176,-1.0856,-1.0077,-1.0385,-1.0367,-1.0103,-1.0439,-1.0624,-1.0719,-1.1656,-1.2451,-1.3094,-1.4149,-1.5642,-1.7462,-1.766,-1.8638,-2.0658,0.0,0.0,0.0,0.0,0.0,0.0,0.0,0.0,0.0,0.0,0.0,0.0,0.0,0.0,0.0,-1.9769,0.0,-2.0332,-2.1483,0.0,0.0,0.0,-2.3841,-2.3902,-2.5115,-2.5899,-2.5769,0.0,0.0,-2.4851,0.0,-2.4498,-2.3762,-2.334,-2.3101,-2.3101,-2.3101,-2.3101,-2.313,-2.5337,-2.7059,-2.7057,-2.7921,-2.7678,-2.5292,-2.3738,-2.1889,-1.963,-1.7908,-1.61,-1.3882,-1.3107,-1.2258,-0.992,-0.9414,-0.8849,-0.7862,-0.7572,-0.7536,-0.7569,-0.8321,-0.9293,-0.048,-0.0638,-0.2242,-0.4152,-0.6025,-0.6487,-0.7283,-0.8214,-0.8265,-0.8214,-0.8208,-0.8042,-0.7969,-0.8002,-0.8881,-0.9534,-1.0075,-1.1052,-1.1752,-1.222,-1.2712,-1.2948,-1.2973,-1.3335,-1.3367,-1.3099,-1.2523,-1.2201,-1.2028,-1.0557,-1.019,-1.0803,-0.9655,-0.9594,-1.0641,-1.0287,-1.0,-0.9822,-0.9889,-0.9967,-1.009,-1.0439,-1.0895,-1.15,-1.1784,-1.253,-1.3846,-1.4695,-1.5923,-1.7523,-1.814,-1.9151,-2.0721,-2.0944,0.0,0.0,0.0,0.0,0.0,0.0,0.0,0.0,0.0,-2.3913,-2.2094,0.0,-2.2487,0.0,-2.0697,-2.1154,-2.2541,-2.24,0.0,0.0,-2.5003,-2.5004,-2.5769,-2.6502,-2.6602,-2.5761,-2.6142,-2.5784,-2.3889,-2.4323,-2.4196,-2.2609,-2.2803,-2.3101,-2.3101,-2.3101,-2.3101,-2.3256,-2.4444,-2.5666,-2.6606,-2.725,-2.7081,-2.526,-2.3227,-2.1398,-2.0009,-1.7862,-1.6117,-1.5338,-1.3634,-1.2198,-1.1353,-1.0517,-0.9417,-0.8296,-0.7516,-0.7045,-0.7088,-0.7763,-0.8645,0.0,0.0,-0.0826,-0.2286,-0.4325,-0.5585,-0.658,-0.7298,-0.7911,-0.8167,-0.8157,-0.8004,-0.7773,-0.7535,-0.8039,-0.8536,-0.9167,-1.0217,-1.106,-1.1685,-1.2391,-1.2646,-1.2544,-1.2739,-1.2645,-1.2382,-1.1481,-1.114,-1.1235,-0.9819,-0.9485,-1.016,-0.9296,-0.9233,-0.9923,-0.978,-0.9715,-0.9715,-0.9715,-0.976,-0.9933,-1.0372,-1.08,-1.1257,-1.179,-1.2492,-1.3385,-1.4476,-1.5774,-1.7265,-1.789,-1.8994,-2.0696,-2.0809,-2.0906,0.0,0.0,0.0,0.0,0.0,0.0,0.0,0.0,0.0,0.0,0.0,-2.2064,0.0,-2.1548,-2.2356,-2.3685,-2.3746,-2.4468,-2.6365,-2.5788,-2.5728,-2.6879,-2.7173,-2.7142,-2.6785,-2.6785,-2.6338,-2.4909,-2.4743,-2.4435,-2.333,-2.337,-2.3433,-2.3283,-2.3533,-2.3857,-2.3898,-2.4426,-2.5275,-2.6371,-2.6647,-2.625,-2.4856,-2.3073,-2.1273,-1.9547,-1.7578,-1.604,-1.5282,-1.3568,-1.1978,-1.1419,-1.074,-0.9807,-0.8661,-0.7969,-0.7569,-0.7379,-0.8033,-0.8955,0.0,0.0,0.0,-0.0656,-0.1963,-0.4422,-0.5677,-0.6079,-0.7415,-0.7951,-0.7924,-0.7821,-0.7611,-0.737,-0.7378,-0.7908,-0.8891,-0.946,-1.0388,-1.1588,-1.2326,-1.2609,-1.2429,-1.2257,-1.2017,-1.1683,-1.0322,-0.9939,-1.041,-0.9273,-0.8992,-0.959,-0.9304,-0.9178,-0.919,-0.9459,-0.9573,-0.9608,-0.9675,-0.9715,-0.9693,-1.0285,-1.0667,-1.0864,-1.1834,-1.2485,-1.2638,-1.4063,-1.5495,-1.689,-1.7427,-1.8578,-2.0547,-2.0646,-2.0892,0.0,-2.1472,0.0,0.0,0.0,0.0,0.0,0.0,0.0,0.0,-2.1975,-2.1696,-2.183,-2.2823,-2.3717,-2.4408,-2.5257,-2.6051,-2.6624,-2.6168,-2.6224,-2.7242,-2.7212,-2.7248,-2.7632,-2.7256,-2.6753,-2.5979,-2.5313,-2.48,-2.4272,-2.4175,-2.3882,-2.3509,-2.4085,-2.4686,-2.472,-2.4987,-2.5554,-2.5979,-2.6018,-2.5477,-2.4186,-2.2826,-2.1179,-1.8815,-1.7319,-1.598,-1.4737,-1.3484,-1.2271,-1.1206,-1.0912,-1.0324,-0.9212,-0.872,-0.8394,-0.8059,-0.8687,-0.9576,0.0,0.0,0.0,-0.0151,-0.0504,-0.2063,-0.4021,-0.6074,-0.7315,-0.779,-0.7672,-0.7519,-0.7424,-0.7398,-0.7119,-0.7548,-0.8444,-0.7682,-0.8262,-0.9815,-0.9862,-1.0126,-1.0621,-1.1259,-1.1316,-1.0854,-1.0528,-1.0212,-0.9876,-0.9339,-0.9147,-0.9291,-0.9004,-0.8978,-0.9191,0.0,0.0,0.0,-0.9467,-0.9715,-0.9735,-1.0285,-1.1088,-1.2033,-1.2249,0.0,-1.3743,-1.4636,-1.5711,-1.6946,-1.7662,0.0,0.0,0.0,0.0,0.0,0.0,0.0,0.0,0.0,0.0,0.0,-2.2701,-2.2615,-2.3163,-2.4441,-2.5242,-2.5266,-2.5842,-2.6119,-2.5858,-2.6354,-2.6789,-2.6897,-2.6806,-2.663,-2.6298,-2.6183,-2.6007,-2.5476,-2.5314,-2.4934,-2.4178,-2.439,-2.4186,-2.2992,-2.3741,-2.4206,-2.3398,-2.4141,-2.4642,-2.4347,-2.5184,-2.5681,-2.4649,-2.4968,-2.4555,-2.2908,-2.1724,-2.0416,-1.8799,-1.7393,-1.6386,-1.5575,-1.4493,-1.3507,-1.3221,-1.275,-1.173,-1.0533,-0.9748,-0.9093,-0.845,-0.8906,-0.9553,0.0,0.0,0.0,0.0,0.0,-0.144,-0.2764,-0.4156,-0.6007,-0.7066,-0.7482,-0.7404,-0.7288,-0.7143,-0.7508,-0.7804,-0.8086,-0.8022,-0.8381,-0.9049,-0.9432,-0.9708,-0.9921,-1.0654,-1.0762,-1.0334,-1.0047,-0.9753,-0.9431,-0.9138,-0.8998,-0.8998,-0.8878,-0.8884,-0.8984,-0.8878,-0.8778,-0.8778,-0.9239,-0.9466,-0.9479,-1.0241,-1.096,-1.1547,0.0,0.0,0.0,0.0,0.0,0.0,0.0,0.0,0.0,0.0,0.0,-1.9824,-2.0105,-2.0551,-2.1167,-2.1469,-2.2036,-2.291,-2.3052,-2.3023,-2.3001,-2.4122,-2.4806,-2.4847,-2.5313,-2.5505,-2.5272,-2.545,-2.5756,-2.6078,-2.5619,-2.5285,-2.5488,-2.501,-2.4583,-2.442,-2.3912,-2.3524,-2.3655,-2.3263,-2.3226,-2.2973,-2.3252,-2.3405,-2.3037,-2.3963,-2.4542,-2.3823,-2.4755,-2.5152,-2.3971,-2.3473,-2.3174,-2.1641,-2.0247,-1.8969,-1.7868,-1.6632,-1.5671,-1.533,-1.4161,-1.3173,-1.3126,-1.2624,-1.1874,-1.0951,-1.0386,-0.9875,-0.9206,-0.9058,-0.9224,0.0,0.0,0.0,0.0,-0.0098,-0.1171,-0.1779,-0.2122,0.0,0.0,0.0,-0.7215,-0.716,-0.6972,-0.7916,-0.8246,-0.8077,-0.8689,-0.9047,-0.921,-0.9522,-0.9722,-0.981,-1.0225,-1.0278,-0.9917,-0.9444,-0.9184,-0.9131,-0.8918,-0.8778,-0.8811,-0.891,-0.9035,-0.914,-0.9159,-0.9159,-0.9153,-0.9329,-0.9453,-0.9591,-1.0425,-1.0905,-1.0984,-1.1836,-1.2493,-1.2869,-1.3623,-1.494,-1.6785,-1.7206,-1.8078,-1.9545,-1.966,-1.9674,-1.9699,-2.0264,-2.0671,-2.077,-2.1229,-2.1825,-2.2493,-2.3019,-2.3233,-2.3068,-2.3294,-2.3523,-2.3708,-2.3958,-2.4147,-2.4245,-2.4147,-2.4325,-2.4923,-2.4066,-2.3856,-2.4575,-2.3875,-2.3359,-2.3489,-2.2777,-2.2498,-2.3283,-2.2397,-2.1945,-2.3075,-2.2714,-2.2171,-2.2347,-2.3354,-2.3934,-2.3324,-2.3928,-2.4117,-2.3115,-2.217,-2.1319,-2.0565,-1.8889,-1.7389,-1.6558,-1.565,-1.5019,-1.4786,-1.3544,-1.2937,-1.2719,-1.2408,-1.1719,-1.114,-1.0767,-1.0456,-0.9893,-0.9177,-0.8968,0.0,0.0,0.0,0.0,-0.0049,-0.0193,-0.0889,-0.2036,-0.4514,-0.5641,-0.5735,-0.6602,-0.697,-0.6955,-0.7706,-0.8361,-0.8832,-0.8104,-0.8811,0.0,-0.8854,-0.8747,-1.0012,-0.988,-0.9653,-0.9344,-0.9251,-0.9084,-0.8858,-0.8824,-0.8778,-0.8877,-0.9368,-0.9943,-1.0466,-1.0509,-1.0517,-1.0499,-1.0268,-1.0415,-1.0993,-1.1391,-1.1727,-1.2069,-1.2211,-1.249,-1.2893,-1.3516,-1.466,-1.6384,-1.652,-1.7364,-1.8983,-1.9108,-1.9103,-1.9118,-1.9651,-2.0147,-2.0691,-2.0791,-2.1297,-2.2233,-2.2441,-2.3143,-2.4733,-2.4081,-2.3963,-2.4835,-2.4179,-2.3939,-2.4412,-2.3997,-2.3673,-2.3807,-2.3666,-2.3443,-2.3034,-2.2752,-2.2432,-2.1957,-2.1741,-2.1568,-2.1732,-2.1571,-2.1408,-2.1732,-2.1531,-2.1518,-2.1556,-2.2196,-2.2552,-2.2533,-2.2955,-2.2835,-2.1996,-2.0877,-2.0045,-1.943,-1.7945,-1.6535,-1.5723,-1.5371,-1.4965,-1.434,-1.3928,-1.3769,-1.3723,-1.325,-1.2572,-1.2095,-1.1234,-1.0429,-1.0217,-0.9473,-0.8954,0.0652,0.0,0.0,0.0,0.0,0.0,-0.0312,-0.0998,-0.2748,-0.4222,-0.5251,-0.5653,-0.61,-0.663,-0.7371,-0.7751,-0.7789,-0.7355,-0.7841,-0.8859,-0.7959,-0.8068,-0.9129,-0.9343,-0.9344,-0.9204,-0.9051,-0.8911,-0.8844,-0.9159,-0.9335,-0.9387,-1.0012,-1.032,-1.0287,-1.061,-1.099,-1.1325,-1.0832,-1.0739,-1.1017,-1.1514,-1.1852,-1.2036,-1.2383,-1.2808,-1.3223,-1.3791,-1.4806,-1.6241,-1.6592,-1.7327,-1.8482,-1.8843,-1.8999,-1.9015,-1.9827,-2.0402,-2.0675,-2.1256,-2.1883,-2.2598,-2.2344,-2.2609,-2.3726,-2.3505,-2.3401,-2.3654,-2.3172,-2.2935,-2.3032,-2.2757,-2.2562,-2.2562,-2.2562,-2.2423,-2.2074,-2.1453,-2.1019,-2.0624,-2.0074,-1.9823,-2.0112,-1.9899,-1.9849,-2.0037,-1.9936,-1.9736,-1.9748,-1.9949,-2.0564,-2.1581,-2.1832,-2.1606,-2.1064,-1.9812,-1.8783,-1.8086,-1.6797,-1.5669,-1.4867,-1.4689,-1.4523,-1.4192,-1.3929,-1.3782,-1.3763,-1.3326,-1.2758,-1.2167,-1.1687,-1.1043,-1.0603,-0.9911,-0.9327,0.1191,0.0,0.0,0.0,0.0,0.0,0.0,0.0,-0.0993,-0.2625,-0.4458,-0.4748,-0.5368,-0.6321,-0.7097,-0.725,-0.6955,-0.7034,-0.7366,-0.779,-0.7562,-0.7863,-0.8537,-0.8959,-0.9118,-0.9118,-0.9038,-0.9008,-0.9106,-0.971,-1.0108,-1.0295,-1.0762,-1.0838,-1.0507,-1.0998,-1.1525,-1.1981,-1.1525,-1.1275,-1.13,-1.1774,-1.2064,-1.207,-1.2593,-1.3037,-1.3365,-1.3944,-1.48,-1.5975,-1.651,-1.7134,-1.798,-1.8523,-1.8816,-1.8897,-1.9852,-2.0518,-2.0635,-2.1386,-2.209,-2.2621,-2.2211,-2.2086,-2.2502,-2.2704,-2.2682,-2.228,-2.2031,-2.1724,-2.1553,-2.1335,-2.1246,-2.1246,-2.1246,-2.1231,-2.1168,-2.043,-1.9801,-1.9622,-1.8997,-1.875,-1.8716,-1.8587,-1.8586,-1.8768,-1.8444,-1.8216,-1.8204,-1.8204,-1.9007,-2.0037,-2.0402,-2.0151,-2.0036,-1.8912,-1.7727,-1.6919,-1.5957,-1.5017,-1.4294,-1.3987,-1.3899,-1.3782,-1.3549,-1.3389,-1.334,-1.3135,-1.2719,-1.2258,-1.1902,-1.1543,-1.0863,-1.0405,-0.9718,0.1225,0.0,0.0,0.0,0.0,0.0,0.0,0.0,0.0,-0.1268,-0.32,-0.4234,-0.5276,-0.6276,-0.6873,-0.7232,-0.7501,-0.7613,-0.8213,-0.9147,-0.8348,-0.8297,-0.903,-0.8931,-0.8818,-0.8924,-0.9427,-0.971,-0.9744,-1.0389,-1.1015,-1.1532,-1.169,-1.1981,-1.2495,-1.2618,-1.2725,-1.2798,-1.274,-1.2725,-1.27,-1.2749,-1.2808,-1.2798,-1.2856,-1.2915,-1.2993,-1.3553,-1.4387,-1.5428,-1.5695,-1.6296,-1.7375,-1.7985,-1.8243,-1.8248,-1.9208,-1.9948,-2.0332,-2.0431,-2.0935,-2.1626,-2.1735,-2.1852,-2.2286,-2.2368,-2.2279,-2.1936,-2.108,-2.0709,-2.0704,-2.0303,-2.0052,-2.0082,-2.0037,-1.9902,-1.9949,-1.9798,-1.9539,-1.9045,-1.9244,-1.9306,-1.8528,-1.8557,-1.8629,-1.8201,-1.8091,-1.8003,-1.8016,-1.8016,-1.8066,-1.8455,-1.8455,-1.848,-1.842,-1.78,-1.6948,-1.6314,-1.5624,-1.4687,-1.3894,-1.3545,-1.3477,-1.3281,-1.3091,-1.3008,-1.2988,-1.2925,-1.2891,-1.2657,-1.2212,-1.1641,-1.1015,-1.0762,-1.0287,0.2292,0.0992,0.0322,0.0,0.0,0.0,0.0,0.0,0.0,-0.1075,-0.2799,-0.3323,-0.4354,-0.5747,-0.587,-0.6137,-0.6562,-0.6561,-0.7262,-0.8407,-0.7978,-0.8208,-0.8938,-0.9274,-0.9387,-0.9465,-1.0064,-1.0389,-1.0509,-1.1065,-1.1532,-1.1823,-1.2212,-1.2403,-1.2295,-1.2691,-1.2915,-1.2915,-1.2915,-1.3065,-1.3358,-1.3089,-1.2915,-1.2915,-1.2915,-1.2915,-1.2954,-1.3481,-1.4193,-1.4978,-1.5392,-1.6113,-1.7278,-1.7857,-1.8268,-1.8597,-1.9494,-2.0352,-2.1007,-2.1054,-2.1337,-2.1988,-2.2017,-2.2106,-2.2268,-2.2313,-2.208,-2.1472,-2.0971,-2.0571,-2.0195,-1.9839,-1.9723,-1.9723,-1.9723,-1.9723,-1.9705,-1.9422,-1.9112,-1.8931,-1.8828,-1.8679,-1.8238,-1.8059,-1.7778,-1.7333,-1.7225,-1.7252,-1.7237,-1.7177,-1.7177,-1.719,-1.7212,-1.7375,-1.7543,-1.6849,-1.608,-1.5409,-1.4761,-1.401,-1.3447,-1.3169,-1.3066,-1.2925,-1.2915,-1.2905,-1.2935,-1.2915,-1.2915,-1.2798,-1.2774,-1.2246,-1.1525,-1.1391,-1.0965,0.3011,0.1732,0.0485,0.0,0.0,0.0,0.0,0.0,0.0,-0.1072,-0.2704,-0.2686,-0.3578,-0.5054,-0.5101,-0.532,-0.5764,-0.5945,-0.6628,-0.7655,-0.7889,-0.8395,-0.9087,-0.9543,-0.9917,-1.0167,-1.0762,-1.1266,-1.1582,-1.1898,-1.2169,-1.238,-1.273,-1.2632,-1.2212,-1.2666,-1.2915,-1.2915,-1.2915,-1.319,-1.3661,-1.3372,-1.3128,-1.3142,-1.3152,-1.3065,-1.292,-1.33,-1.392,-1.4652,-1.513,-1.5949,-1.7216,-1.7807,-1.8463,-1.9236,-1.9902,-2.0683,-2.1536,-2.1597,-2.1809,-2.224,-2.2313,-2.2313,-2.2313,-2.2313,-2.1959,-2.1323,-2.1166,-2.0813,-2.0032,-1.9764,-1.9747,-1.9821,-1.9782,-1.9708,-1.969,-1.9317,-1.9091,-1.8912,-1.8807,-1.8477,-1.8263,-1.7801,-1.7217,-1.6914,-1.6667,-1.6513,-1.6513,-1.655,-1.655,-1.6513,-1.6525,-1.6697,-1.7014,-1.6586,-1.5613,-1.4926,-1.4441,-1.4206,-1.3348,-1.3176,-1.3162,-1.332,-1.3079,-1.2905,-1.2905,-1.2915,-1.2915,-1.2881,-1.2749,-1.2569,-1.2187,-1.1981,-1.1749,0.2999,0.1683,0.0492,0.0,0.0,0.0,0.0,0.0,0.0,-0.0954,-0.241,-0.2523,-0.3312,-0.4732,-0.4907,-0.5251,-0.5817,-0.6317,-0.6966,-0.7783,-0.8401,-0.908,-0.9744,-0.9788,-1.0133,-1.0762,-1.1441,-1.2331,-1.3403,-1.3084,-1.3142,-1.3637,-1.3204,-1.2944,-1.291,-1.2992,-1.2929,-1.3041,-1.3051,-1.3262,-1.3755,-1.3826,-1.3826,-1.3802,-1.3755,-1.3457,-1.3017,-1.2929,-1.3478,-1.4652,-1.4789,-1.5554,-1.7133,-1.7867,-1.8797,-2.0024,-2.0297,-2.0699,-2.1491,-2.1643,-2.1823,-2.2209,-2.2313,-2.2313,-2.2313,-2.2313,-2.2077,-2.1597,-2.1521,-2.1165,-2.0433,-1.9982,-1.9874,-2.0124,-1.9909,-1.9744,-1.9723,-1.9654,-1.9424,-1.9132,-1.9262,-1.9225,-1.8855,-1.7933,-1.7442,-1.7146,-1.6816,-1.6543,-1.6513,-1.6513,-1.6513,-1.6513,-1.6513,-1.6525,-1.655,-1.6442,-1.5891,-1.5242,-1.5005,-1.5016,-1.4318,-1.3779,-1.3755,-1.3624,-1.331,-1.3065,-1.2954,-1.2915,-1.2915,-1.2774,-1.2427,-1.2236,-1.2525,-1.2163,-1.2015,0.2426,0.063,0.02,0.0,0.0,0.0,0.0,0.0,0.0,-0.0927,-0.2318,-0.2499,-0.3325,-0.4723,-0.5239,-0.5776,-0.629,-0.6542,-0.7235,-0.8321,-0.8666,-0.9159,-0.9795,-1.021,-1.0788,-1.1466,-1.2163,-1.2745,-1.319,-1.3382,-1.3576,-1.3802,-1.4001,-1.4048,-1.4048,-1.4071,-1.4048,-1.4048,-1.4071,-1.434,-1.4869,-1.4949,-1.4949,-1.4903,-1.4202,-1.3708,-1.3491,-1.3104,-1.3464,-1.4663,-1.5028,-1.6009,-1.7679,-1.891,-1.9886,-2.0649,-2.0991,-2.1399,-2.1928,-2.2046,-2.2104,-2.2282,-2.2313,-2.2313,-2.2313,-2.2282,-2.2106,-2.1718,-2.1613,-2.1398,-2.1102,-2.0516,-2.0019,-1.9927,-1.98,-1.9708,-1.9723,-1.9708,-1.9603,-1.9479,-1.9603,-1.9493,-1.9024,-1.8554,-1.8066,-1.7422,-1.7105,-1.6845,-1.6586,-1.6513,-1.6513,-1.6513,-1.6513,-1.6513,-1.6513,-1.6513,-1.6228,-1.571,-1.5353,-1.5141,-1.4629,-1.4352,-1.4294,-1.3897,-1.3529,-1.3176,-1.3041,-1.2915,-1.2915,-1.2832,-1.2452,-1.2344,-1.2847,-1.2393,-1.2486,0.2281,0.0595,0.0155,0.0,0.0,0.0,0.0,0.0,0.0,-0.0888,-0.2184,-0.2392,-0.3212,-0.4572,-0.5369,-0.604,-0.6598,-0.6831,-0.7509,-0.8448,-0.8903,-0.9484,-1.0141,-1.0813,-1.15,-1.2153,-1.2842,-1.3262,-1.3501,-1.3897,-1.419,-1.4411,-1.4629,-1.4709,-1.4709,-1.4709,-1.4709,-1.4709,-1.4709,-1.4994,-1.5521,-1.5598,-1.5698,-1.5732,-1.4903,-1.4156,-1.3815,-1.3396,-1.3634,-1.4618,-1.5407,-1.6633,-1.8445,-1.9659,-2.0551,-2.1134,-2.1445,-2.1809,-2.2225,-2.2313,-2.2296,-2.2313,-2.2313,-2.2313,-2.2313,-2.2313,-2.2137,-2.1899,-2.184,-2.1811,-2.1506,-2.0943,-2.0431,-2.0122,-1.9871,-1.9621,-1.946,-1.9603,-1.969,-1.969,-1.969,-1.953,-1.9225,-1.9006,-1.8477,-1.7666,-1.7422,-1.7084,-1.6637,-1.6513,-1.6513,-1.6513,-1.6513,-1.6513,-1.65,-1.65,-1.6293,-1.582,-1.582,-1.5533,-1.5152,-1.4926,-1.4606,-1.4167,-1.3732,-1.3348,-1.3104,-1.2954,-1.2905,-1.2881,-1.2535,-1.227,-1.2501,-1.2608,-1.2666,0.264,0.1364,0.0,0.0,0.0,0.0,0.0,0.0,0.0,-0.0932,-0.2142,-0.2256,-0.3168,-0.4435,-0.5333,-0.5959,-0.6615,-0.7369,-0.7824,-0.8117,-0.919,-1.0115,-1.0821,-1.1408,-1.2129,-1.2886,-1.3481,-1.4061,-1.4525,-1.4652,-1.496,-1.5343,-1.5039,-1.4949,-1.4778,-1.488,-1.4835,-1.4915,-1.4983,-1.5186,-1.5543,-1.5742,-1.5974,-1.6337,-1.5798,-1.4971,-1.3933,-1.3839,-1.4143,-1.4824,-1.5816,-1.741,-1.9233,-2.006,-2.0715,-2.1398,-2.1597,-2.1838,-2.224,-2.2313,-2.2313,-2.2313,-2.2313,-2.2313,-2.2313,-2.2313,-2.2282,-2.2223,-2.2209,-2.2106,-2.169,-2.1213,-2.0878,-2.0862,-2.0122,-1.9442,-1.9225,-1.9406,-1.9723,-1.9723,-1.9723,-1.9723,-1.9584,-1.9281,-1.8746,-1.821,-1.7767,-1.7291,-1.6795,-1.6723,-1.6607,-1.6565,-1.6637,-1.6723,-1.6616,-1.6466,-1.616,-1.593,-1.616,-1.6151,-1.5666,-1.5354,-1.4903,-1.4434,-1.3505,-1.3128,-1.3041,-1.2915,-1.2915,-1.2832,-1.2452,-1.2295,-1.2501,-1.2691,-1.2608,0.1531,0.0527,0.0145,0.0,0.0,0.0,0.0,0.0,-0.0503,-0.1318,-0.2184,-0.2748,-0.3543,-0.4605,-0.5687,-0.6367,-0.6696,-0.7857,-0.8685,-0.9164,-0.9607,-1.0415,-1.1366,-1.1715,-1.2404,-1.3375,-1.3708,-1.412,-1.4675,-1.5118,-1.5443,-1.5588,-1.582,-1.592,-1.5888,-1.5954,-1.6083,-1.6468,-1.6489,-1.6595,-1.6744,-1.6744,-1.6685,-1.6445,-1.5908,-1.5376,-1.5039,-1.4652,-1.4903,-1.5806,-1.6566,-1.7917,-1.97,-2.0517,-2.1023,-2.1536,-2.1913,-2.212,-2.2268,-2.2313,-2.2313,-2.2313,-2.2313,-2.2313,-2.2313,-2.2313,-2.2313,-2.2313,-2.2296,-2.2209,-2.2003,-2.1415,-2.0878,-2.055,-1.9704,-1.9262,-1.9369,-1.9548,-1.969,-1.9723,-1.9723,-1.9723,-1.969,-1.9475,-1.9188,-1.8727,-1.8438,-1.8033,-1.7333,-1.7271,-1.7381,-1.7167,-1.7105,-1.6951,-1.693,-1.6909,-1.6769,-1.6595,-1.6727,-1.671,-1.6235,-1.5698,-1.5276,-1.4468,-1.3539,-1.3041,-1.2954,-1.2915,-1.2915,-1.2915,-1.2725,-1.2725,-1.2832,-1.2822,-1.2715,0.1196,0.055,0.0142,0.0,0.0,0.0,0.0,0.0,-0.0774,-0.1509,-0.2232,-0.2982,-0.3895,-0.4948,-0.6095,-0.675,-0.7149,-0.8514,-0.9536,-1.009,-1.0192,-1.0788,-1.1765,-1.2104,-1.273,-1.3663,-1.4027,-1.4434,-1.5028,-1.561,-1.593,-1.603,-1.6337,-1.6479,-1.6513,-1.65,-1.6689,-1.6993,-1.7167,-1.7312,-1.7353,-1.7483,-1.7422,-1.7084,-1.6723,-1.6549,-1.6485,-1.6151,-1.6086,-1.6528,-1.7287,-1.8702,-2.0383,-2.0862,-2.126,-2.1811,-2.2106,-2.2296,-2.2313,-2.2313,-2.2313,-2.2313,-2.2313,-2.2313,-2.2313,-2.2313,-2.2313,-2.2313,-2.2313,-2.2223,-2.1974,-2.1415,-2.0748,-2.0078,-1.9383,-1.908,-1.9317,-1.9207,-1.9365,-1.9512,-1.9723,-1.9723,-1.9723,-1.969,-1.9475,-1.9024,-1.8893,-1.8631,-1.7874,-1.7666,-1.7544,-1.7333,-1.7013,-1.7013,-1.725,-1.7312,-1.7374,-1.734,-1.736,-1.7167,-1.6833,-1.6232,-1.5718,-1.4434,-1.3396,-1.3041,-1.2915,-1.2915,-1.2915,-1.2915,-1.2915,-1.2915,-1.2881,-1.2905,-1.2856,0.1501,0.1366,0.042,0.0,0.0,0.0,0.0,0.0,-0.0993,-0.173,-0.2397,-0.3176,-0.4168,-0.5406,-0.6258,-0.6988,-0.7904,-0.9059,-1.0115,-1.0661,-1.0889,-1.13,-1.1981,-1.2647,-1.33,-1.3909,-1.4491,-1.5062,-1.5632,-1.6151,-1.6513,-1.6457,-1.6457,-1.6513,-1.6513,-1.6513,-1.6607,-1.6858,-1.7188,-1.7415,-1.7504,-1.7894,-1.8086,-1.7993,-1.7933,-1.7894,-1.7834,-1.782,-1.7491,-1.6949,-1.8123,-1.9477,-2.0682,-2.1007,-2.1369,-2.2149,-2.2313,-2.2313,-2.2313,-2.2313,-2.2313,-2.2313,-2.2313,-2.2313,-2.2313,-2.2313,-2.2313,-2.2296,-2.2237,-2.2063,-2.1658,-2.1086,-2.0434,-1.957,-1.8977,-1.8822,-1.8817,-1.8496,-1.8836,-1.9493,-1.9723,-1.9723,-1.9723,-1.9723,-1.9475,-1.9169,-1.9006,-1.8746,-1.8288,-1.7967,-1.7537,-1.7312,-1.7209,-1.7291,-1.7585,-1.7887,-1.7947,-1.8007,-1.7933,-1.7626,-1.705,-1.637,-1.5441,-1.4202,-1.342,-1.3089,-1.2915,-1.2915,-1.2915,-1.2915,-1.2915,-1.2915,-1.2808,-1.2666,-1.2642,0.0433,0.0385,0.0103,0.0,0.0,-0.0562,-0.0787,-0.0997,-0.2178,-0.2732,-0.3148,-0.3818,-0.467,-0.5542,-0.6308,-0.7246,-0.8429,-0.9384,-1.0491,-1.1416,-1.1532,-1.1931,-1.2598,-1.3266,-1.3873,-1.4468,-1.5039,-1.5688,-1.6216,-1.6414,-1.6513,-1.6513,-1.6513,-1.6513,-1.6513,-1.6522,-1.6964,-1.7565,-1.7787,-1.8106,-1.8419,-1.8574,-1.8477,-1.8112,-1.8131,-1.8131,-1.8151,-1.8496,-1.8598,-1.8352,-1.8991,-1.9932,-2.0862,-2.1007,-2.1385,-2.2123,-2.2313,-2.2313,-2.2313,-2.2313,-2.2313,-2.2313,-2.2313,-2.2313,-2.2313,-2.2313,-2.2313,-2.2237,-2.2017,-2.1718,-2.1429,-2.0569,-1.9429,-1.8207,-1.8171,-1.8341,-1.838,-1.8588,-1.8968,-1.9566,-1.969,-1.9723,-1.9723,-1.969,-1.9639,-1.9497,-1.9406,-1.9281,-1.8798,-1.84,-1.8046,-1.7927,-1.7827,-1.7847,-1.7973,-1.8308,-1.8535,-1.8631,-1.8458,-1.8092,-1.7149,-1.6003,-1.4767,-1.3396,-1.3224,-1.2929,-1.2915,-1.2915,-1.2915,-1.2915,-1.2915,-1.2856,-1.232,-1.2055,-1.2055,0.0353,0.0,0.0,0.0,0.0,-0.0775,-0.111,-0.1383,-0.2645,-0.3287,-0.3536,-0.445,-0.5304,-0.6009,-0.6745,-0.7833,-0.9136,-0.9894,-1.0821,-1.1724,-1.238,-1.2885,-1.3338,-1.3897,-1.4514,-1.505,-1.5432,-1.592,-1.6392,-1.6513,-1.6513,-1.6513,-1.6513,-1.6513,-1.6543,-1.6752,-1.7084,-1.7727,-1.8151,-1.8612,-1.8893,-1.9132,-1.9233,-1.8977,-1.8902,-1.8822,-1.9037,-1.9177,-1.9151,-1.9076,-1.9424,-2.0102,-2.0894,-2.1007,-2.1416,-2.2225,-2.2313,-2.2313,-2.2313,-2.2313,-2.2313,-2.2313,-2.2313,-2.2313,-2.2313,-2.2313,-2.2268,-2.1972,-2.1733,-2.1352,-2.062,-1.9489,-1.8324,-1.7592,-1.7585,-1.7847,-1.8072,-1.8574,-1.9114,-1.953,-1.9723,-1.9723,-1.9723,-1.9723,-1.9723,-1.969,-1.9654,-1.9512,-1.9277,-1.8912,-1.8554,-1.8308,-1.8013,-1.7867,-1.8131,-1.8516,-1.8798,-1.893,-1.8535,-1.8249,-1.7177,-1.5862,-1.4755,-1.3705,-1.3248,-1.2915,-1.2915,-1.2915,-1.2915,-1.2915,-1.2915,-1.2618,-1.2089,-1.1665,-1.1641,0.0792,0.0,0.0,0.0,0.0,-0.0858,-0.1302,-0.1521,-0.2873,-0.3483,-0.3757,-0.4909,-0.5792,-0.6642,-0.7235,-0.8435,-0.9762,-1.0389,-1.1208,-1.2129,-1.3006,-1.3721,-1.3933,-1.4514,-1.5028,-1.5477,-1.562,-1.5996,-1.6402,-1.6513,-1.6513,-1.6513,-1.6513,-1.6513,-1.6565,-1.6909,-1.7242,-1.7605,-1.8249,-1.8798,-1.9099,-1.95,-1.9808,-1.9987,-1.9917,-1.9949,-2.0056,-1.9967,-1.9573,-1.907,-1.9479,-2.0087,-2.0797,-2.0926,-2.1369,-2.2034,-2.2254,-2.2313,-2.2313,-2.2313,-2.2313,-2.2313,-2.2313,-2.2313,-2.2313,-2.2313,-2.2135,-2.1718,-2.1536,-2.0701,-1.9435,-1.8084,-1.7551,-1.7333,-1.7374,-1.7666,-1.8112,-1.8612,-1.9099,-1.9603,-1.9723,-1.9723,-1.9723,-1.9723,-1.9723,-1.9723,-1.9723,-1.9636,-1.9295,-1.8798,-1.8554,-1.84,-1.8072,-1.7727,-1.8171,-1.8688,-1.893,-1.9095,-1.8477,-1.7953,-1.7058,-1.5928,-1.5005,-1.4165,-1.3296,-1.2915,-1.2915,-1.2915,-1.2881,-1.2915,-1.2915,-1.2437,-1.1907,-1.1541,-1.1383,0.0792,0.0,0.0,0.0,0.0,-0.1377,-0.1941,-0.2094,-0.3566,-0.4156,-0.4429,-0.5136,-0.5896,-0.6642,-0.7396,-0.8481,-0.9788,-1.0568,-1.1434,-1.2691,-1.3399,-1.4073,-1.4514,-1.5062,-1.5454,-1.5732,-1.6117,-1.6358,-1.65,-1.6513,-1.6513,-1.6513,-1.6513,-1.65,-1.6552,-1.6774,-1.7146,-1.7807,-1.8243,-1.8784,-1.9479,-1.9879,-2.021,-2.0348,-2.0565,-2.0731,-2.0731,-2.0414,-2.0126,-1.9987,-1.9823,-1.9962,-2.0499,-2.0813,-2.1228,-2.1705,-2.2106,-2.2282,-2.2313,-2.2282,-2.2313,-2.2313,-2.2313,-2.2313,-2.2313,-2.2282,-2.2046,-2.1567,-2.0911,-1.9813,-1.8232,-1.7572,-1.7333,-1.736,-1.7706,-1.8131,-1.8593,-1.8822,-1.9203,-1.9548,-1.9723,-1.9723,-1.9723,-1.9723,-1.9723,-1.9723,-1.9723,-1.9723,-1.9295,-1.8746,-1.8593,-1.8535,-1.8361,-1.8092,-1.8458,-1.8855,-1.8949,-1.8983,-1.84,-1.7578,-1.668,-1.5852,-1.4892,-1.3978,-1.3113,-1.2954,-1.3017,-1.2774,-1.2715,-1.2798,-1.2749,-1.2073,-1.1525,-1.1266,-1.083,0.1451,0.0593,0.0162,-0.0189,-0.0664,-0.1712,-0.2386,-0.2884,-0.3959,-0.4491,-0.4625,-0.5218,-0.59,-0.6642,-0.7396,-0.8455,-0.978,-1.0838,-1.1649,-1.2482,-1.327,-1.3956,-1.441,-1.5187,-1.5714,-1.5986,-1.6303,-1.65,-1.6513,-1.65,-1.6513,-1.6513,-1.6534,-1.668,-1.6921,-1.7097,-1.7727,-1.838,-1.8741,-1.9169,-1.9675,-2.0072,-2.0449,-2.065,-2.1023,-2.1213,-2.0975,-2.055,-2.0331,-2.0195,-1.9929,-1.9982,-2.0465,-2.0649,-2.0959,-2.1553,-2.1794,-2.1974,-2.1988,-2.218,-2.2313,-2.2313,-2.2313,-2.2313,-2.224,-2.2137,-2.1764,-2.1259,-2.042,-1.9218,-1.7572,-1.7312,-1.7312,-1.7463,-1.8013,-1.8574,-1.8874,-1.9099,-1.9369,-1.9639,-1.9723,-1.9723,-1.9723,-1.9723,-1.9723,-1.9723,-1.9723,-1.9705,-1.9566,-1.9062,-1.8822,-1.8708,-1.8612,-1.8612,-1.8855,-1.902,-1.8968,-1.8746,-1.8263,-1.7293,-1.6253,-1.5465,-1.4698,-1.4014,-1.3443,-1.3224,-1.3214,-1.289,-1.2452,-1.232,-1.2064,-1.15,-1.1124,-1.0939,-1.0312,0.2129,0.1184,0.0351,-0.0432,-0.115,-0.1894,-0.2601,-0.3352,-0.4153,-0.4491,-0.468,-0.5304,-0.6118,-0.6669,-0.7557,-0.8639,-0.9825,-1.0939,-1.1641,-1.2036,-1.3064,-1.3637,-1.4071,-1.4753,-1.5437,-1.6163,-1.6241,-1.6318,-1.6436,-1.6402,-1.6358,-1.6479,-1.6637,-1.6845,-1.7312,-1.7841,-1.8263,-1.8798,-1.9132,-1.9475,-1.9744,-2.0089,-2.0516,-2.1086,-2.1321,-2.1414,-2.1086,-2.0649,-2.0282,-2.0265,-1.9912,-2.0174,-2.0549,-2.0616,-2.0566,-2.1352,-2.1506,-2.1673,-2.1779,-2.2049,-2.2313,-2.2313,-2.2313,-2.224,-2.2106,-2.184,-2.1446,-2.0733,-1.9906,-1.8764,-1.7504,-1.7312,-1.7401,-1.7706,-1.8438,-1.8855,-1.9095,-1.9442,-1.9621,-1.969,-1.9723,-1.9723,-1.9723,-1.9723,-1.9723,-1.9723,-1.9708,-1.9672,-1.9548,-1.9369,-1.9062,-1.8949,-1.8874,-1.8968,-1.9207,-1.8983,-1.8968,-1.8535,-1.8066,-1.7169,-1.6136,-1.5565,-1.4994,-1.4503,-1.405,-1.3671,-1.3098,-1.2579,-1.2178,-1.1898,-1.169,-1.1466,-1.1091,-1.0669,-1.0038,0.2098,0.1083,0.0302,-0.0415,-0.1171,-0.188,-0.2637,-0.3347,-0.4181,-0.4491,-0.4708,-0.5823,-0.6367,-0.6912,-0.8049,-0.9047,-0.978,-1.0661,-1.1291,-1.1798,-1.2711,-1.3286,-1.3763,-1.4103,-1.4574,-1.5017,-1.5492,-1.5971,-1.6207,-1.6051,-1.6173,-1.6509,-1.6866,-1.7167,-1.7422,-1.7847,-1.84,-1.893,-1.9151,-1.9369,-1.9714,-2.0158,-2.0667,-2.1306,-2.1521,-2.1476,-2.1275,-2.0699,-2.0282,-2.0263,-1.9894,-2.0,-2.0278,-2.0314,-2.0383,-2.0667,-2.1165,-2.1445,-2.1583,-2.1988,-2.2254,-2.2313,-2.2313,-2.2077,-2.1823,-2.1567,-2.1118,-2.02,-1.9174,-1.8078,-1.7401,-1.736,-1.7807,-1.8341,-1.8765,-1.9099,-1.9442,-1.9636,-1.9723,-1.9723,-1.9723,-1.9708,-1.9726,-1.9762,-1.9782,-1.98,-1.9818,-1.9762,-1.9654,-1.9442,-1.9207,-1.9151,-1.9151,-1.9317,-1.953,-1.9114,-1.8803,-1.8302,-1.7807,-1.7291,-1.6429,-1.5886,-1.5365,-1.4869,-1.412,-1.343,-1.2856,-1.2389,-1.2021,-1.1839,-1.169,-1.1541,-1.1141,-1.0745,-1.0534,0.2313,0.171,0.0533,-0.064,-0.1627,-0.2023,-0.2871,-0.3901,-0.4322,-0.4708,-0.514,-0.5764,-0.6502,-0.7182,-0.7803,-0.86,-0.938,-1.0389,-1.0948,-1.1475,-1.2378,-1.3017,-1.3416,-1.3638,-1.414,-1.4615,-1.504,-1.5493,-1.5998,-1.6129,-1.6173,-1.6445,-1.6795,-1.7126,-1.7626,-1.7973,-1.8574,-1.908,-1.9332,-1.942,-1.9747,-2.0278,-2.091,-2.1181,-2.1445,-2.1367,-2.0878,-2.0617,-2.021,-2.0015,-1.98,-1.9836,-1.9945,-2.0017,-2.0104,-2.0331,-2.0732,-2.1086,-2.129,-2.1705,-2.2017,-2.2282,-2.2313,-2.2077,-2.169,-2.1337,-2.0651,-1.9429,-1.8779,-1.7887,-1.734,-1.7544,-1.8092,-1.8727,-1.9132,-1.9406,-1.9621,-1.969,-1.9723,-1.9723,-1.9744,-1.9762,-1.9764,-1.98,-1.9856,-1.9877,-1.9912,-1.9821,-1.9744,-1.9566,-1.935,-1.9387,-1.9387,-1.9475,-1.9566,-1.9169,-1.8708,-1.8185,-1.7659,-1.7139,-1.6612,-1.6039,-1.561,-1.5174,-1.4352,-1.3478,-1.3242,-1.301,-1.2395,-1.1814,-1.174,-1.1591,-1.1166,-1.0838,-1.0737,0.2481,0.2293,0.0524,-0.0974,-0.2124,-0.2397,-0.3204,-0.4322,-0.4487,-0.4759,-0.5269,-0.5515,-0.6249,-0.7283,-0.7857,-0.8321,-0.8929,-1.0192,-1.0796,-1.1149,-1.2255,-1.2905,-1.3066,-1.3494,-1.401,-1.4373,-1.4949,-1.5211,-1.5856,-1.6051,-1.6303,-1.6616,-1.6637,-1.7167,-1.7933,-1.84,-1.8968,-1.9387,-1.9723,-1.9723,-1.9907,-2.043,-2.0862,-2.0862,-2.1181,-2.0975,-2.0483,-2.0227,-2.0002,-1.9836,-1.9726,-1.9708,-1.9723,-1.9723,-1.9871,-2.0141,-2.0331,-2.0649,-2.0991,-2.1568,-2.2017,-2.2265,-2.2194,-2.1915,-2.1399,-2.0733,-1.9871,-1.8487,-1.8086,-1.7987,-1.7686,-1.7967,-1.8477,-1.8987,-1.9457,-1.9723,-1.969,-1.9723,-1.9723,-1.9726,-1.9764,-1.9839,-1.9927,-1.9982,-2.0054,-2.0054,-2.0089,-1.9894,-1.98,-1.9726,-1.9599,-1.9636,-1.9654,-1.9654,-1.953,-1.9188,-1.8708,-1.8185,-1.7646,-1.7105,-1.6633,-1.6139,-1.5764,-1.5432,-1.471,-1.3967,-1.3805,-1.3287,-1.237,-1.1814,-1.1814,-1.169,-1.1416,-1.135,-1.1359,0.24,0.2049,-0.0084,-0.1457,-0.2232,-0.2899,-0.368,-0.4432,-0.4491,-0.4519,-0.4814,-0.53,-0.6059,-0.7015,-0.8182,-0.8646,-0.9185,-1.0038,-1.0737,-1.0998,-1.2132,-1.2847,-1.3017,-1.3549,-1.3939,-1.4352,-1.5073,-1.5778,-1.6129,-1.5974,-1.6083,-1.6582,-1.7333,-1.8013,-1.821,-1.8803,-1.9563,-1.969,-1.9723,-1.9723,-1.9797,-2.0191,-2.0382,-2.0399,-2.0483,-2.0466,-2.0244,-2.0,-1.9764,-1.9744,-1.9723,-1.9723,-1.9723,-1.9723,-1.9708,-1.998,-2.0398,-2.0943,-2.1102,-2.1613,-2.2104,-2.2163,-2.1957,-2.1522,-2.0959,-2.006,-1.9126,-1.8288,-1.8131,-1.8131,-1.8112,-1.8477,-1.9006,-1.9332,-1.9617,-1.9723,-1.9723,-1.9723,-1.9723,-1.9762,-1.98,-2.0035,-2.0193,-2.0229,-2.028,-2.028,-2.0212,-2.0052,-1.9856,-1.9762,-1.9723,-1.9723,-1.9672,-1.9654,-1.9332,-1.9006,-1.8535,-1.8052,-1.7524,-1.7034,-1.6676,-1.6259,-1.603,-1.5599,-1.4903,-1.426,-1.3839,-1.313,-1.2184,-1.1922,-1.208,-1.1981,-1.1765,-1.1807,-1.1792,0.2289,0.2037,0.0279,-0.1146,-0.2176,-0.2563,-0.34,-0.4322,-0.4491,-0.4708,-0.514,-0.5819,-0.6745,-0.775,-0.8593,-0.8778,-0.9008,-0.984,-1.0466,-1.0914,-1.1857,-1.2686,-1.3338,-1.3732,-1.4003,-1.4767,-1.5331,-1.5866,-1.6194,-1.6324,-1.6389,-1.6896,-1.7422,-1.7973,-1.84,-1.8987,-1.9387,-1.9584,-1.9723,-1.9723,-1.98,-2.0035,-2.0177,-1.9982,-2.016,-2.0158,-1.998,-1.9836,-1.9708,-1.9723,-1.9723,-1.9821,-1.9965,-2.007,-2.0139,-2.0499,-2.1007,-2.1213,-2.1134,-2.163,-2.1988,-2.2135,-2.1823,-2.1337,-2.0649,-1.9846,-1.908,-1.8612,-1.8554,-1.8535,-1.8535,-1.8746,-1.9169,-1.9512,-1.9723,-1.9654,-1.9672,-1.9723,-1.9726,-1.9782,-1.9874,-2.0089,-2.0382,-2.0682,-2.0584,-2.0314,-2.0314,-2.0261,-1.9997,-1.9744,-1.9723,-1.9723,-1.9654,-1.9584,-1.9132,-1.8708,-1.8171,-1.7686,-1.7167,-1.6774,-1.6637,-1.6371,-1.6129,-1.5722,-1.5039,-1.4422,-1.3886,-1.3242,-1.2476,-1.2403,-1.2452,-1.2344,-1.2212,-1.1848,-1.1625,0.2204,0.2035,0.042,-0.0923,-0.1952,-0.2313,-0.3121,-0.4125,-0.4432,-0.4759,-0.5382,-0.615,-0.7321,-0.8348,-0.8646,-0.8804,-0.8857,-0.9666,-1.0269,-1.0922,-1.1699,-1.2628,-1.3351,-1.3802,-1.4514,-1.5432,-1.572,-1.6107,-1.6358,-1.65,-1.6659,-1.7126,-1.7463,-1.7927,-1.8535,-1.9024,-1.935,-1.9387,-1.9262,-1.9207,-1.9284,-1.9684,-1.9684,-1.9717,-1.9826,-2.0002,-1.978,-1.9708,-1.9723,-1.9723,-1.9723,-1.9818,-2.0032,-2.0176,-2.0331,-2.0699,-2.1165,-2.143,-2.14,-2.1645,-2.1928,-2.1988,-2.169,-2.1039,-2.0261,-1.9767,-1.9406,-1.8855,-1.8822,-1.8855,-1.893,-1.9006,-1.9336,-1.9566,-1.9723,-1.9636,-1.9566,-1.9584,-1.9548,-1.9515,-1.9666,-2.0072,-2.0449,-2.1007,-2.0959,-2.0483,-2.0381,-2.0364,-2.0017,-1.9584,-1.9566,-1.953,-1.9387,-1.9299,-1.8987,-1.8477,-1.7907,-1.7381,-1.6888,-1.6595,-1.6543,-1.6423,-1.6216,-1.571,-1.5107,-1.4514,-1.3897,-1.3382,-1.2915,-1.2774,-1.2691,-1.2774,-1.2642,-1.2212,-1.1591,0.2204,0.2035,-0.0084,-0.1034,-0.1312,-0.2647,-0.3259,-0.3566,-0.4208,-0.4574,-0.4924,-0.5991,-0.7047,-0.783,-0.8533,-0.8831,-0.891,-1.0141,-1.0644,-1.1225,-1.2098,-1.273,-1.3396,-1.4071,-1.4698,-1.5085,-1.5788,-1.6337,-1.6479,-1.6513,-1.6543,-1.6637,-1.7381,-1.7887,-1.84,-1.8893,-1.9062,-1.8968,-1.865,-1.8419,-1.8535,-1.8807,-1.9062,-1.9155,-1.946,-1.9726,-1.9723,-1.9762,-1.9797,-1.9797,-1.9887,-1.9907,-2.0137,-2.0381,-2.06,-2.0797,-2.1353,-2.1613,-2.1705,-2.1825,-2.212,-2.2017,-2.1507,-2.0698,-1.9927,-1.9321,-1.8987,-1.9006,-1.9043,-1.9006,-1.9114,-1.9314,-1.9566,-1.9603,-1.9584,-1.935,-1.9336,-1.946,-1.9406,-1.9247,-1.9467,-1.9914,-2.0004,-2.0451,-2.0765,-2.0348,-1.9902,-1.9866,-1.9525,-1.9169,-1.9262,-1.9244,-1.9062,-1.893,-1.8817,-1.8322,-1.7686,-1.7312,-1.6909,-1.6667,-1.6531,-1.6402,-1.6303,-1.571,-1.5096,-1.4514,-1.392,-1.3358,-1.2978,-1.2939,-1.2954,-1.3113,-1.2958,-1.254,-1.1848,0.1924,0.1396,0.0112,-0.0699,-0.1174,-0.2202,-0.2899,-0.34,-0.4153,-0.4759,-0.5167,-0.6145,-0.6993,-0.7756,-0.8454,-0.9061,-0.9439,-0.9865,-1.0644,-1.1316,-1.2005,-1.2677,-1.3399,-1.4177,-1.4903,-1.531,-1.6086,-1.6513,-1.65,-1.6457,-1.6513,-1.6765,-1.7237,-1.7747,-1.819,-1.8477,-1.8535,-1.8477,-1.821,-1.8092,-1.821,-1.8593,-1.8893,-1.8949,-1.9424,-1.9672,-1.9744,-1.9965,-2.0035,-2.0124,-2.0328,-2.0396,-2.0481,-2.0813,-2.0991,-2.107,-2.1675,-2.1913,-2.1899,-2.1884,-2.1643,-2.1086,-2.0715,-2.033,-1.9747,-1.9493,-1.9406,-1.9387,-1.935,-1.9332,-1.9457,-1.9581,-1.9672,-1.9621,-1.9442,-1.9151,-1.8987,-1.9062,-1.9136,-1.8916,-1.9317,-1.9803,-1.977,-1.9755,-2.0022,-2.0145,-1.9725,-1.931,-1.8972,-1.8688,-1.8741,-1.8779,-1.8593,-1.8302,-1.8165,-1.7807,-1.7401,-1.7146,-1.6879,-1.671,-1.6543,-1.6522,-1.6315,-1.57,-1.5096,-1.4514,-1.3931,-1.332,-1.3113,-1.3248,-1.3358,-1.3515,-1.3218,-1.2783,-1.2153,0.1758,0.1034,0.0308,-0.0308,-0.0867,-0.1785,-0.2482,-0.3093,-0.407,-0.5034,-0.5842,-0.6394,-0.7155,-0.7969,-0.8533,-0.9166,-0.9666,-1.0115,-1.0838,-1.1516,-1.2144,-1.2691,-1.3437,-1.4097,-1.4618,-1.5343,-1.592,-1.6216,-1.6513,-1.6337,-1.6358,-1.6497,-1.6706,-1.7107,-1.7727,-1.7867,-1.7867,-1.7834,-1.7686,-1.7767,-1.7847,-1.8341,-1.8784,-1.8954,-1.954,-1.9894,-2.0035,-2.0278,-2.0483,-2.0583,-2.0732,-2.0926,-2.1134,-2.1338,-2.1568,-2.1748,-2.1972,-2.2223,-2.2017,-2.1764,-2.1197,-2.0601,-2.04,-2.0106,-1.9836,-1.9723,-1.9636,-1.9654,-1.9672,-1.9723,-1.9723,-1.9723,-1.953,-1.9387,-1.9188,-1.8912,-1.8516,-1.8438,-1.8554,-1.8612,-1.9006,-1.9192,-1.9281,-1.9122,-1.9037,-1.9137,-1.8707,-1.8468,-1.8482,-1.8243,-1.8086,-1.8106,-1.8046,-1.7727,-1.7381,-1.7167,-1.6993,-1.69,-1.6659,-1.6629,-1.65,-1.6457,-1.625,-1.571,-1.5096,-1.4514,-1.3931,-1.3358,-1.342,-1.3671,-1.3708,-1.3684,-1.3262,-1.2827,-1.2442,0.173,0.1034,0.0308,0.0,0.0,-0.1591,-0.2232,-0.2536,-0.3873,-0.5199,-0.6281,-0.6556,-0.7343,-0.8374,-0.8666,-0.923,-0.9943,-1.0491,-1.1166,-1.1882,-1.2452,-1.2871,-1.3166,-1.3647,-1.426,-1.4755,-1.531,-1.5876,-1.6414,-1.6008,-1.603,-1.6303,-1.6407,-1.651,-1.7258,-1.7312,-1.7333,-1.7271,-1.6909,-1.7105,-1.7632,-1.8176,-1.8655,-1.9203,-1.9884,-2.028,-2.0399,-2.0732,-2.0927,-2.1007,-2.1118,-2.1181,-2.115,-2.1507,-2.1658,-2.1643,-2.2046,-2.2046,-2.1657,-2.1597,-2.1039,-2.0382,-2.0195,-2.0106,-1.9818,-1.9723,-1.9723,-1.9723,-1.9723,-1.9723,-1.9723,-1.9636,-1.935,-1.9099,-1.8912,-1.8496,-1.8072,-1.7894,-1.8033,-1.8171,-1.821,-1.8302,-1.8477,-1.8496,-1.823,-1.8013,-1.7612,-1.7565,-1.778,-1.77,-1.7497,-1.7456,-1.7435,-1.7325,-1.7013,-1.6752,-1.6573,-1.65,-1.6392,-1.625,-1.6163,-1.6054,-1.581,-1.5521,-1.5118,-1.456,-1.3967,-1.3372,-1.3624,-1.3849,-1.3779,-1.3661,-1.3238,-1.2895,-1.2584,0.1034,0.0336,0.0112,0.0,0.0,-0.1563,-0.2204,-0.2454,-0.379,-0.5034,-0.5846,-0.634,-0.7074,-0.7937,-0.8712,-0.9361,-1.0338,-1.0618,-1.1275,-1.2452,-1.2798,-1.2856,-1.3065,-1.342,-1.3873,-1.4224,-1.471,-1.532,-1.5876,-1.5588,-1.5964,-1.6303,-1.6557,-1.674,-1.6795,-1.6795,-1.6888,-1.7209,-1.7196,-1.7429,-1.8232,-1.8802,-1.932,-1.9771,-2.0468,-2.0797,-2.0814,-2.1212,-2.1398,-2.1461,-2.1553,-2.1645,-2.1522,-2.1794,-2.1884,-2.1779,-2.1986,-2.1915,-2.1337,-2.0927,-2.0483,-2.0158,-2.0089,-2.0054,-1.9764,-1.9708,-1.9723,-1.9723,-1.9723,-1.9723,-1.9723,-1.9332,-1.9024,-1.8784,-1.8496,-1.7874,-1.7504,-1.7504,-1.7585,-1.7727,-1.7787,-1.7653,-1.7733,-1.7807,-1.7585,-1.7442,-1.7167,-1.6993,-1.7118,-1.7005,-1.685,-1.6816,-1.6816,-1.6808,-1.6659,-1.6466,-1.6182,-1.6051,-1.5854,-1.5634,-1.5589,-1.5567,-1.5366,-1.5085,-1.4858,-1.4606,-1.4154,-1.3802,-1.3873,-1.3956,-1.3755,-1.3661,-1.342,-1.3113,-1.2832,0.0671,0.0,0.0,0.0,0.0,-0.1563,-0.2454,-0.3093,-0.4098,-0.5007,-0.5846,-0.6421,-0.7208,-0.799,-0.8633,-0.9316,-1.044,-1.0771,-1.1241,-1.2476,-1.2832,-1.2666,-1.2769,-1.3122,-1.3375,-1.365,-1.4109,-1.4755,-1.5588,-1.5387,-1.5742,-1.6407,-1.7021,-1.7188,-1.7126,-1.725,-1.7312,-1.7646,-1.778,-1.8232,-1.8983,-1.9635,-2.0192,-2.0702,-2.1177,-2.1529,-2.1532,-2.1683,-2.1905,-2.1969,-2.2032,-2.2166,-2.2017,-2.2017,-2.2063,-2.1868,-2.1445,-2.1322,-2.0797,-2.0566,-2.021,-1.9818,-1.9997,-1.9947,-1.9747,-1.9708,-1.9723,-1.9723,-1.9672,-1.9654,-1.9548,-1.9099,-1.8727,-1.8516,-1.7993,-1.7401,-1.7055,-1.7076,-1.7008,-1.7154,-1.7003,-1.6941,-1.6933,-1.7001,-1.6972,-1.6866,-1.6774,-1.6659,-1.6586,-1.6543,-1.6513,-1.6522,-1.6543,-1.6586,-1.6488,-1.6204,-1.5952,-1.5654,-1.5365,-1.5085,-1.5062,-1.5073,-1.4846,-1.4709,-1.4698,-1.4629,-1.4399,-1.4213,-1.398,-1.3708,-1.3409,-1.3396,-1.3481,-1.3214,-1.2822,0.0643,0.0,0.0,0.0,0.0,-0.1591,-0.301,-0.4405,-0.4491,-0.5281,-0.6561,-0.6534,-0.7348,-0.8533,-0.8778,-0.9211,-0.984,-1.044,-1.1065,-1.1724,-1.2221,-1.2089,-1.2113,-1.2369,-1.2618,-1.2938,-1.3406,-1.4145,-1.5331,-1.562,-1.5884,-1.6455,-1.7286,-1.7653,-1.7913,-1.8125,-1.8185,-1.8352,-1.8679,-1.9185,-1.9911,-2.0444,-2.1003,-2.1521,-2.2001,-2.2173,-2.219,-2.2283,-2.2334,-2.2315,-2.2282,-2.2299,-2.2282,-2.2268,-2.1988,-2.1538,-2.0814,-2.0534,-2.0383,-2.0314,-1.9969,-1.9588,-1.9603,-1.9657,-1.969,-1.9617,-1.9512,-1.9457,-1.9387,-1.946,-1.9424,-1.893,-1.8458,-1.8033,-1.7565,-1.7084,-1.6689,-1.6539,-1.645,-1.6352,-1.608,-1.5981,-1.6102,-1.617,-1.668,-1.6659,-1.6637,-1.6607,-1.6543,-1.6543,-1.6513,-1.6513,-1.6522,-1.65,-1.6337,-1.6073,-1.5666,-1.5343,-1.4846,-1.456,-1.456,-1.4548,-1.4445,-1.4445,-1.4675,-1.4721,-1.4732,-1.4329,-1.3802,-1.3505,-1.3276,-1.289,-1.2905,-1.2832,-1.2584,0.0168,0.0,0.0,0.0,0.0,-0.1591,-0.3065,-0.4405,-0.4519,-0.5308,-0.6588,-0.6588,-0.7429,-0.8732,-0.8804,-0.9211,-0.9614,-1.0038,-1.0517,-1.1023,-1.145,-1.1275,-1.1275,-1.14,-1.169,-1.2052,-1.2531,-1.3477,-1.496,-1.563,-1.6476,-1.712,-1.7874,-1.8386,-1.8669,-1.9024,-1.9084,-1.9203,-1.9471,-2.0068,-2.0734,-2.1313,-2.1819,-2.2255,-2.2513,-2.2596,-2.2561,-2.2443,-2.2385,-2.2293,-2.2282,-2.2296,-2.2313,-2.1988,-2.1598,-2.1213,-2.0666,-2.0299,-2.0246,-2.0002,-1.9645,-1.9229,-1.9118,-1.9402,-1.9457,-1.9336,-1.9151,-1.9062,-1.8912,-1.8874,-1.8727,-1.8341,-1.8013,-1.7666,-1.7188,-1.6761,-1.638,-1.6139,-1.6039,-1.562,-1.5353,-1.5499,-1.5555,-1.6129,-1.6586,-1.6522,-1.6513,-1.6513,-1.6513,-1.6513,-1.6513,-1.6513,-1.6479,-1.6479,-1.625,-1.5986,-1.5466,-1.4994,-1.4445,-1.3967,-1.3766,-1.3766,-1.3967,-1.4352,-1.4824,-1.5118,-1.5241,-1.4687,-1.3873,-1.3552,-1.329,-1.2735,-1.2329,-1.227,-1.2089,0.0,0.0,0.0,-0.014,-0.0615,-0.1675,-0.2926,-0.3959,-0.4349,-0.5281,-0.6507,-0.6588,-0.7423,-0.8646,-0.8831,-0.9035,-0.9361,-0.9736,-1.0115,-1.032,-1.0618,-1.0593,-1.0568,-1.0695,-1.1091,-1.1441,-1.2141,-1.3253,-1.4812,-1.6348,-1.7374,-1.8013,-1.8708,-1.8803,-1.9062,-1.9434,-1.9704,-1.9781,-2.003,-2.0668,-2.1241,-2.1842,-2.2293,-2.2617,-2.2746,-2.2784,-2.2656,-2.2446,-2.2312,-2.2089,-2.2017,-2.1913,-2.1705,-2.118,-2.0766,-2.03,-1.9713,-1.9372,-1.924,-1.9144,-1.8897,-1.8688,-1.8574,-1.8722,-1.8798,-1.8708,-1.8631,-1.8535,-1.8308,-1.8092,-1.7894,-1.7686,-1.7504,-1.7312,-1.6854,-1.6432,-1.6117,-1.582,-1.5454,-1.5016,-1.4971,-1.5152,-1.5522,-1.612,-1.6513,-1.6513,-1.6513,-1.6513,-1.6513,-1.6513,-1.6513,-1.6513,-1.6457,-1.6414,-1.6129,-1.5722,-1.5107,-1.4502,-1.3836,-1.3382,-1.3089,-1.3467,-1.4073,-1.4607,-1.5152,-1.5264,-1.5219,-1.4641,-1.3967,-1.3542,-1.2895,-1.2193,-1.1832,-1.1873,-1.1566,0.0,0.0,0.0,-0.0336,-0.1062,-0.184,-0.2591,-0.3287,-0.4125,-0.5308,-0.6426,-0.6588,-0.7396,-0.8586,-0.8804,-0.8804,-0.9087,-0.9387,-0.9562,-0.9769,-1.0115,-1.0167,-1.0192,-1.0415,-1.0939,-1.1383,-1.2196,-1.347,-1.4959,-1.6455,-1.7767,-1.8784,-1.876,-1.8741,-1.8822,-1.9346,-1.9528,-1.9513,-1.9816,-2.03,-2.1022,-2.1665,-2.2235,-2.2504,-2.2699,-2.2825,-2.2613,-2.2428,-2.2266,-2.1788,-2.1429,-2.1275,-2.0619,-2.0133,-1.9715,-1.9339,-1.8797,-1.8584,-1.8487,-1.8424,-1.8249,-1.8125,-1.8046,-1.7894,-1.78,-1.8033,-1.8033,-1.7953,-1.7767,-1.7585,-1.7381,-1.725,-1.7084,-1.6972,-1.671,-1.6247,-1.5886,-1.5387,-1.471,-1.4365,-1.4388,-1.4606,-1.5085,-1.5634,-1.6129,-1.6315,-1.6337,-1.6315,-1.625,-1.6228,-1.6392,-1.6414,-1.6457,-1.6315,-1.581,-1.5332,-1.4652,-1.3978,-1.3382,-1.3089,-1.3002,-1.3563,-1.4318,-1.4971,-1.5588,-1.5163,-1.4915,-1.4249,-1.3545,-1.2885,-1.2227,-1.1507,-1.1283,-1.1266,-1.0864,0.0,0.0,0.0,-0.0112,-0.042,-0.1647,-0.2286,-0.2593,-0.3929,-0.5281,-0.6426,-0.6696,-0.7423,-0.8639,-0.8778,-0.8778,-0.8883,-0.9008,-0.9035,-0.9185,-0.9458,-0.9935,-0.9814,-1.0192,-1.0931,-1.2033,-1.297,-1.4011,-1.5716,-1.6891,-1.7565,-1.821,-1.8249,-1.8176,-1.8123,-1.8617,-1.8779,-1.8835,-1.9115,-1.9715,-2.0553,-2.121,-2.1749,-2.179,-2.1888,-2.1843,-2.1659,-2.15,-2.1365,-2.1118,-2.0717,-2.0138,-1.9348,-1.909,-1.8787,-1.8473,-1.8084,-1.79,-1.7874,-1.7834,-1.7767,-1.7565,-1.7381,-1.687,-1.6773,-1.7203,-1.7401,-1.7319,-1.7229,-1.7076,-1.693,-1.6816,-1.6731,-1.6659,-1.6573,-1.6117,-1.5654,-1.4846,-1.4027,-1.3849,-1.3826,-1.419,-1.4675,-1.5175,-1.5644,-1.582,-1.5798,-1.5732,-1.5567,-1.5545,-1.603,-1.6151,-1.6414,-1.6228,-1.5622,-1.496,-1.4306,-1.3813,-1.3262,-1.3041,-1.2954,-1.3742,-1.4618,-1.5454,-1.593,-1.5231,-1.4412,-1.3632,-1.2938,-1.2227,-1.1584,-1.0889,-1.044,-1.0346,-0.9891,0.0,0.0,0.0,0.0,0.0,-0.1563,-0.2204,-0.248,-0.3849,-0.5089,-0.6091,-0.6529,-0.7423,-0.8639,-0.8778,-0.8778,-0.8778,-0.8804,-0.9106,-0.9211,-0.9235,-0.9788,-0.9987,-1.0238,-1.134,-1.2522,-1.3788,-1.5083,-1.6464,-1.6752,-1.7128,-1.7531,-1.7518,-1.7206,-1.7137,-1.7356,-1.7673,-1.7773,-1.8031,-1.8612,-1.9536,-2.0059,-2.0719,-2.0815,-2.0703,-2.0607,-2.0525,-2.0326,-2.0008,-1.9509,-1.8782,-1.83,-1.7663,-1.737,-1.7167,-1.7008,-1.6902,-1.699,-1.7128,-1.7244,-1.7291,-1.7097,-1.6951,-1.6527,-1.6505,-1.6866,-1.6651,-1.6587,-1.6782,-1.6689,-1.6701,-1.6629,-1.6607,-1.6565,-1.6423,-1.6117,-1.5343,-1.4457,-1.3766,-1.332,-1.3467,-1.3909,-1.4457,-1.5141,-1.5477,-1.531,-1.5298,-1.532,-1.5107,-1.5039,-1.5488,-1.5732,-1.5898,-1.5788,-1.5175,-1.4583,-1.399,-1.3539,-1.3176,-1.3454,-1.3658,-1.4224,-1.4926,-1.5466,-1.5499,-1.471,-1.3924,-1.3158,-1.2288,-1.1516,-1.0872,-1.0269,-0.9917,-0.9666,-0.9335,0.0,0.0,0.0,0.0,-0.0335,-0.159,-0.2287,-0.2591,-0.3873,-0.4869,-0.5569,-0.6172,-0.7316,-0.8242,-0.8778,-0.8778,-0.8778,-0.8778,-0.9159,-0.9475,-0.9563,-1.0045,-1.0498,-1.0906,-1.1853,-1.3036,-1.4378,-1.5506,-1.6676,-1.6455,-1.628,-1.6709,-1.6397,-1.5871,-1.5842,-1.6179,-1.668,-1.6638,-1.6772,-1.6933,-1.7611,-1.835,-1.9038,-1.9316,-1.9284,-1.9016,-1.8998,-1.8837,-1.838,-1.7843,-1.7021,-1.6586,-1.6329,-1.6132,-1.6016,-1.5922,-1.6198,-1.6157,-1.6136,-1.6505,-1.6573,-1.6543,-1.6513,-1.6479,-1.6457,-1.6346,-1.6148,-1.6105,-1.6324,-1.65,-1.65,-1.6513,-1.6513,-1.6457,-1.6293,-1.5986,-1.5073,-1.4213,-1.361,-1.3027,-1.331,-1.3745,-1.4318,-1.5016,-1.5141,-1.496,-1.4903,-1.488,-1.488,-1.4926,-1.5152,-1.5141,-1.5096,-1.4903,-1.4583,-1.4271,-1.3742,-1.3454,-1.3224,-1.3789,-1.4224,-1.4352,-1.4606,-1.5073,-1.4881,-1.4238,-1.3467,-1.2701,-1.1796,-1.1091,-1.0466,-1.0046,-1.0064,-0.9762,-0.9237,0.0,0.0,0.0,-0.0306,-0.0978,-0.184,-0.2536,-0.3204,-0.4042,-0.4869,-0.5378,-0.5674,-0.6519,-0.7943,-0.8593,-0.8778,-0.8778,-0.8804,-0.8971,-0.9255,-0.9459,-1.0155,-1.0857,-1.1288,-1.2215,-1.3377,-1.448,-1.5173,-1.5804,-1.5431,-1.5263,-1.5656,-1.5173,-1.488,-1.4914,-1.5196,-1.5329,-1.5384,-1.5503,-1.5642,-1.5709,-1.6313,-1.6793,-1.6973,-1.6952,-1.6904,-1.687,-1.6904,-1.678,-1.6473,-1.6009,-1.547,-1.5306,-1.5318,-1.5419,-1.553,-1.5776,-1.603,-1.6173,-1.6337,-1.6479,-1.6513,-1.6457,-1.6315,-1.6315,-1.638,-1.616,-1.5952,-1.6151,-1.6457,-1.6513,-1.6513,-1.6513,-1.6358,-1.6194,-1.5599,-1.4858,-1.4236,-1.3671,-1.3396,-1.3396,-1.3826,-1.4294,-1.4801,-1.5118,-1.5028,-1.5096,-1.5005,-1.4514,-1.4675,-1.4926,-1.4687,-1.448,-1.419,-1.3956,-1.3944,-1.3576,-1.331,-1.3296,-1.3813,-1.4084,-1.4037,-1.4295,-1.4653,-1.4469,-1.3922,-1.313,-1.2297,-1.1904,-1.1233,-1.0364,-0.9917,-1.0012,-0.9884,-0.9413]}]]